GFSSW_prec_radar_000.txt.gz
Reflectivity
-9 -20 -20 -20 -20 -1 -19 -20 -18 -2 -20 -2 -2 -5 18 -10 1 4 -20 -20 -20 -20 -20 -20 -20 -20 -20 -20 -20 -20 -20 -20 -20 -20 -20 -20 -20 -20 -20 -20 -20 -20 -20 -20 -20
12 -3 -20 -20 -20 -11 -3 -10 -20 -20 -20 7 5 6 20 17 -8 -0 -20 -20 -20 -20 -20 -20 -20 -20 -20 -20 -20 -20 -20 -20 -20 -20 -20 -20 -20 -20 -20 -20 -20 -20 -20 -20 -20
-19 15 -16 -20 -20 -20 -20 1 -17 -13 6 -20 5 11 21 5 4 -16 -20 -20 -20 -0 -20 -20 -20 -20 -20 -20 -20 -20 -20 -20 -20 -20 -20 -20 -20 -20 -20 -20 -20 -20 -20 -20 -20
-20 20 -18 -20 -20 -20 -2 2 2 -6 5 -17 -17 -16 1 17 4 -20 -20 -20 -20 21 -20 -20 -20 -20 -20 -20 -20 -20 -20 -20 -20 -20 -20 -20 -20 -20 -20 -20 -20 -20 -20 -20 -20
-17 -18 23 -20 -20 -20 -4 -20 -4 -20 -20 -20 4 -20 9 -20 -1 -20 -20 -20 -20 -17 -3 -20 -20 -20 -20 -20 -20 -20 -20 -20 -20 -20 -20 -20 -20 -20 -20 -20 -20 -20 -20 -20 -20
-16 0 -3 22 6 -20 -20 -20 -20 -20 6 -20 -1 -8 -20 -20 -20 -20 -20 -20 -20 -20 -20 -20 -20 -20 -20 -20 -20 -20 -20 -20 -20 -20 -20 -20 -20 -20 -20 -20 -20 -20 -20 -20 -20
21 16 19 22 8 -20 -20 -20 -20 -20 -20 -18 -9 -20 -20 -20 -20 -20 -20 -20 -20 -20 -20 -20 -20 -20 4 -20 -20 -20 -20 -20 -20 -20 -20 -20 -20 -20 -20 -20 -20 -20 -20 -20 -20
19 17 16 25 16 3 -20 5 -6 13 18 -14 -11 -20 -20 -20 -20 -20 -20 -20 -20 -20 -20 -20 -20 -20 -20 -20 -20 -17 -15 -20 -20 -20 -20 -20 -20 -20 -20 -20 -20 -20 -20 -20 -20
13 20 18 10 22 8 6 -7 -1 -20 -9 13 -17 -20 -20 -20 -20 -20 -20 -20 -20 -20 -20 -20 -20 -20 -20 -20 -20 -20 -20 -20 -20 -20 -20 -20 -20 -20 -20 -20 -20 -20 -20 -20 -20
5 30 2 20 25 22 19 15 -18 -20 -20 -20 -20 -20 -20 -20 -20 -20 -20 -20 -20 -20 -20 -20 -20 -20 -6 -20 -20 -20 -20 -20 -20 -20 -20 -20 -20 -20 -20 -20 -20 -20 -20 -20 -20
3 8 26 -1 25 25 8 3 -20 12 -6 -20 -20 -20 -20 -20 -20 -20 -20 -20 -20 -20 -20 -20 -20 0 -20 -20 -20 -20 -20 -20 -20 -20 -8 -20 -20 -20 -20 -20 -20 -20 -20 -20 -20
11 4 24 7 26 32 -0 -14 -20 -20 -20 -20 -20 -20 -20 -20 -20 -20 -20 -20 -20 -20 -20 -20 -20 -20 -20 -20 -20 -2 -17 -6 -20 -20 -20 -20 -20 -20 -20 -20 -20 -20 -20 -20 -20
8 10 18 28 25 29 9 -6 -20 -20 -20 -20 -20 -20 -20 -20 -20 -20 -20 -20 -20 -20 -20 -20 -20 -20 -20 -20 -20 -20 -20 -20 -20 -20 -20 -20 -20 -20 -20 -20 -20 -20 -20 -20 -20
-15 -16 6 34 38 32 33 2 -20 -20 -20 -20 -20 -20 -20 -20 -12 -20 -20 -20 -20 -20 -20 -20 -20 -20 -20 -20 -20 -20 -20 -20 -20 -20 -20 -20 -20 -20 -20 -20 -20 -20 -20 -20 -20
-20 -13 4 32 37 37 18 -19 -20 -20 -20 -20 -20 -20 -20 -20 -19 -20 -20 -19 -20 -20 -20 -20 -20 -20 -20 -20 -20 -17 -20 -20 -6 9 -11 -20 6 -20 -20 -20 -20 -20 -20 -20 -20
7 1 18 36 41 29 28 20 -20 -20 -20 -20 -20 8 4 -20 8 -20 -20 -19 -16 -9 -20 -20 -20 -20 -20 -20 -20 -20 -14 -20 -20 7 6 -20 -20 -20 -20 -20 -20 -20 -20 -20 -20
23 -2 18 35 40 23 30 6 -20 -20 -20 -11 -15 -5 1 3 -2 -2 -3 -1 -3 -1 2 6 -20 -20 -20 -20 -20 -11 8 -9 14 4 -18 -20 -20 -20 -20 -20 -20 -20 -20 -20 -20
9 21 19 15 40 23 38 14 -7 -20 -20 -20 -20 9 -1 -1 -4 3 -5 8 -3 -2 -20 -20 -20 -20 -20 -20 -20 1 4 -20 -20 -18 -20 -20 -20 -20 -20 -20 -20 -20 -20 -20 -20
-9 24 33 33 38 20 32 10 -20 -20 -20 -20 -20 -7 0 -20 -20 -1 1 -0 -20 -9 5 -17 -19 -20 -20 5 24 25 17 -7 -4 -20 -13 -20 -20 -20 -20 -20 -20 -20 -20 -20 -20
21 7 25 32 36 31 23 -20 -20 -20 -20 -20 -20 -20 -20 -19 -20 5 -20 -20 -6 -20 1 -19 0 -20 -20 -20 -12 -8 4 18 14 -1 -11 -20 -20 -20 -20 -20 -20 -20 -20 -20 -20
16 17 29 32 38 36 19 -20 -20 -20 -20 -20 -20 -20 -20 -20 -20 -18 -20 -20 -20 -20 -20 -20 -13 -20 -5 -12 -20 -12 14 7 7 -19 -20 -20 -20 -20 -20 -20 -20 -20 -20 -20 -20
26 8 15 20 37 39 25 -20 -20 -20 -20 -20 -20 -20 -20 -20 -20 -20 -20 -20 -20 -20 -9 -13 14 -20 -20 -20 -20 -20 -20 -20 -19 -20 -20 -20 -20 -20 -20 -20 -20 -20 -20 -20 -20
33 26 26 25 31 32 -20 -20 -20 -20 -20 -20 -20 -20 -13 -20 -20 -20 -20 -20 -20 -20 -20 -14 13 1 5 13 10 11 -5 -20 -17 -11 -18 -20 -20 -20 6 -2 -20 -20 -20 -20 -20
33 38 33 33 28 -12 -12 -20 -20 -20 -20 -20 -4 -20 -20 -13 -20 -20 -20 -20 -20 -20 -20 -1 23 16 15 20 27 24 1 1 -20 -1 -18 -10 -7 -6 28 -3 9 -5 -20 -20 -20
23 24 24 24 18 -17 -20 -20 -20 -20 -20 -9 13 3 -10 22 -17 -10 -20 -20 -20 -20 19 25 -1 11 22 27 33 31 24 -11 6 -20 -19 1 13 25 -7 2 22 -19 -3 -20 -20
11 -2 -20 -19 -5 -19 -20 -20 -20 -13 1 -1 -18 -18 14 10 -20 -20 -20 -20 -20 -20 -9 25 27 25 13 24 25 29 1 4 -5 -20 -20 -7 14 32 24 -14 14 -20 -20 -20 -20
20 25 4 1 7 -20 -20 -20 -20 -19 -20 -2 -11 7 4 -11 3 2 5 -20 -17 14 26 28 31 19 9 5 12 20 3 -16 -18 -12 -20 -20 2 19 33 26 22 4 -5 9 7

GFSSW_prec_radar_003.txt.gz
Reflectivity
11 -3 3 -16 -20 -20 -20 -12 3 -11 -20 -20 4 -7 -6 11 -20 -11 -20 -20 -20 -20 -20 -20 -20 -20 -20 -20 -20 -20 -20 -20 -20 -20 -20 -20 -20 -20 -20 -20 -20 -20 -20 -20 -20
3 -18 -19 9 -19 -20 -20 -20 -20 -14 -20 -20 -11 -20 23 18 -20 -9 -20 -20 -20 -20 -20 -20 -20 -20 -20 -20 -20 -20 -20 -20 -20 -20 -20 -20 -20 -20 -20 -20 -20 -20 -20 -20 -20
5 -4 -13 30 -20 -20 -20 -20 -4 -14 -20 -20 -20 11 25 20 13 -8 -20 -20 -20 21 -20 -20 -20 -20 -20 -20 -20 -20 -20 -20 -20 -20 -20 -20 -20 -20 -20 -20 -20 -20 -20 -20 -20
18 -4 10 -20 -11 -20 -20 -20 -17 -10 -20 -20 -20 -20 5 5 12 -20 -20 -20 -20 -9 -20 -20 -20 -20 -20 -20 -20 -20 -20 -20 -20 -20 -20 -20 -20 -20 -20 -20 -20 -20 -20 -20 -20
20 20 18 10 24 -20 -20 -20 -20 -20 -20 -20 -20 -20 -14 -1 -11 -20 -20 -20 -20 6 -20 -20 -20 -20 -20 -20 -20 -20 -20 -20 -20 -20 -20 -20 -20 -20 -20 -20 -20 -20 -20 -20 -20
-18 18 10 13 -0 10 -20 -20 -20 -20 -1 -20 -20 -20 -20 -4 -20 -20 -20 -20 -20 -9 -20 -15 -20 -20 -20 -20 -20 -20 -20 -20 -20 -20 -20 -20 -20 -20 -20 -20 -20 -20 -20 -20 -20
-16 12 21 14 -19 25 -20 -20 -20 -20 -20 -20 -20 -20 -20 -20 -20 -20 -20 -20 -20 -20 -20 -20 -20 -20 -20 -20 -20 -20 -20 -20 -20 -20 -20 -20 -20 -20 -20 -20 -20 -20 -20 -20 -20
-15 -3 28 -13 11 23 18 -20 -20 -4 1 -20 -20 -20 -20 -20 -20 -20 -20 -20 -20 -20 -20 -20 -20 -20 -20 -20 -20 -20 -20 -20 -20 -20 -20 -20 -20 -20 -20 -20 -20 -20 -20 -20 -20
13 -19 8 18 11 19 20 -5 -15 2 3 22 -20 -20 -20 -20 -20 -20 -20 -20 -20 -20 -20 -20 -20 -20 -20 -20 -20 -20 -20 -20 -20 -20 -20 -20 -20 -20 -20 -20 -20 -20 -20 -20 -20
15 -7 2 13 17 17 32 17 14 -11 -20 -20 -20 -20 -20 -20 -20 -20 -20 -20 -20 -20 -20 -20 -20 -20 -20 -20 -20 -20 -20 -20 -20 -20 -20 -20 -20 -20 -20 -20 -20 -20 -20 -20 -20
10 9 14 -19 31 20 37 29 15 -6 -20 -20 -20 -20 -20 -20 -20 -20 -20 -20 -20 -20 -20 -20 -20 -20 -20 -20 -20 -20 -20 -20 -20 -20 -20 -20 -20 -20 -20 -20 -20 -20 -20 -20 -20
3 11 7 -18 25 29 27 31 -16 -20 -15 -20 -20 -20 -20 -20 -20 -20 -20 -20 -20 -20 -20 -20 -20 -20 -20 -20 -20 -20 -19 -17 -20 -20 -20 -20 -20 -20 -20 -20 -20 -20 -20 -20 -20
0 26 22 -20 16 30 30 25 16 -20 -20 -20 -20 -20 -20 -20 -20 -20 -20 -20 -20 -20 -20 -20 -20 -20 -20 -20 -17 -12 -20 -20 -20 -20 -20 -20 -20 -20 -20 -20 -20 -20 -20 -20 -20
26 24 23 -7 20 8 31 19 38 -15 -20 -20 -20 -20 -20 -20 -20 -20 -20 -20 -20 -20 -20 -20 -20 -20 -20 -20 -20 -20 -20 -20 -20 4 -5 -20 -20 -20 -20 -20 -20 -20 -20 -20 -20
-15 2 24 9 16 26 29 28 25 -18 -20 -20 -20 -20 -20 -20 -20 -20 -20 -20 -20 -20 -20 -20 -20 -20 -20 -20 -20 -20 -20 -20 -20 3 1 -5 12 -20 -20 -20 -20 -20 -20 -20 -20
9 16 23 11 18 31 36 30 39 18 -17 -20 -20 8 9 -20 11 -20 -2 7 -20 -15 -20 -20 -20 -20 -20 -20 -20 -20 -20 -20 -20 -3 5 -20 -20 -20 -20 -20 -20 -20 -20 -20 -20
11 -8 16 25 -14 29 38 38 30 14 -20 -5 -13 15 2 -11 -13 -5 9 3 -4 -8 -17 -17 -20 -20 -20 -20 -20 -20 6 0 12 12 -11 -20 -20 -20 -20 -20 -20 -20 -20 -20 -20
37 21 -9 21 -18 33 37 32 21 -13 -20 -20 -20 6 -5 -20 -8 1 -19 4 0 -15 -20 -20 -20 -20 -20 -20 -20 -20 -18 -2 -14 -8 -20 -20 -20 -20 -20 -20 -20 -20 -20 -20 -20
23 -20 -6 -18 -1 36 39 26 4 -20 -20 -20 -19 -13 -1 -6 -20 -2 9 -11 -20 -20 -20 -20 -20 -20 -20 -20 -20 6 1 -8 23 19 16 -19 -20 -20 -20 -20 -20 -20 -20 -20 -20
25 24 24 -19 7 36 35 27 13 -20 -20 -20 -20 -20 -20 -10 -14 -7 5 -20 -20 -20 -10 -1 -9 -20 -20 -20 -20 -19 -17 6 13 16 2 -20 -20 -20 -20 -20 -20 -20 -20 -20 -20
31 18 -19 -7 21 37 30 34 -12 -20 -20 -20 -20 -20 -20 -19 -20 -20 -20 -20 -20 -20 -20 -3 -9 -20 -18 -10 -20 -9 -1 2 3 25 13 -18 -20 -20 -20 -20 -20 -20 -20 -20 -20
39 33 11 20 34 28 27 -18 -20 -20 -20 -20 -20 -20 -20 -20 -20 -20 -20 -20 -20 -20 -20 -20 -16 5 -20 -20 -20 -11 1 -1 11 -12 -20 -20 -20 -20 -20 -20 -20 -20 -20 -20 -20
28 26 21 22 4 22 23 -20 -20 -20 -20 -20 -20 -20 -20 -20 -20 -20 -20 -20 -20 -20 -20 -20 9 -19 -20 -17 -11 17 13 25 9 15 -8 -20 -19 -3 -20 -20 -20 -19 -20 -20 -20
32 33 31 26 10 -15 -17 -20 -20 -20 -20 -20 -20 -20 -20 -10 -20 -20 -20 -20 -20 -20 -20 -20 2 -20 -20 7 32 19 8 15 24 11 -20 -20 -6 -18 -20 -20 -8 -20 -15 -20 -20
24 19 10 8 29 -11 3 -5 -20 -20 -20 -20 4 -18 -20 6 9 -20 -20 -20 -20 -20 -20 -12 -15 -11 -20 3 29 33 18 2 17 -10 -19 -20 -20 -20 -20 -3 -4 -19 -3 -20 -20
37 17 -15 -1 29 7 -20 -20 -20 -20 -20 -20 -20 -17 2 13 -5 -20 -20 -20 -20 -20 -20 -3 2 12 -20 -11 23 25 12 10 -18 -20 -20 -20 -20 -20 -20 -20 -19 23 -20 -20 -20
30 19 -14 5 10 -20 -20 -20 -20 -20 -20 23 -12 2 10 -7 -1 -20 -17 -20 -20 -15 1 17 4 3 -5 5 29 9 -2 1 2 -20 -20 -13 -5 -14 -13 30 31 20 -0 11 9

GFSSW_prec_radar_006.txt.gz
Reflectivity
1 4 4 -17 20 -20 -20 -20 -20 -20 -20 -19 -20 0 -8 -20 -11 -1 -20 -20 -20 -20 -20 -20 -20 -20 -20 -20 -20 -20 -20 -20 -20 -20 -20 -20 -20 -20 -20 -20 -20 -20 -20 -20 -20
11 12 5 6 6 -20 -20 -20 -20 -20 -20 -20 -17 -11 19 -20 2 2 -20 -20 -20 -20 -20 -20 -20 -20 -20 -20 -20 -20 -20 -20 -20 -20 -20 -20 -20 -20 -20 -20 -20 -20 -20 -20 -20
11 6 4 12 12 -3 -20 -20 -20 -20 -20 -20 -20 -20 11 11 15 -12 -20 -20 11 -19 -20 -20 -20 -20 -20 -20 -20 -20 -20 -20 -20 -20 -20 -20 -20 -20 -20 -20 -20 -20 -20 -20 -20
-20 5 13 4 6 22 -20 -20 -20 -20 -7 -20 -20 -20 14 18 3 -20 -19 -20 4 14 -12 -20 -20 -20 -20 -20 -20 -20 -20 -20 -20 -20 -20 -20 -20 -20 -20 -20 -20 -20 -20 -20 -20
5 -15 6 19 -4 -6 21 -20 -20 -20 -20 -20 -20 -20 5 7 2 -20 -20 -20 -12 15 -9 -8 -20 -20 -20 -20 -20 -20 -20 -20 -20 -20 -20 -20 -20 -20 -20 -20 -20 -20 -20 -20 -20
-15 -8 5 6 3 9 21 8 -20 -20 -20 -20 -20 -20 -20 5 -20 -20 -20 -20 -20 17 -10 -20 -20 -20 -20 -20 -20 -20 -20 -20 -20 -20 -20 -20 -20 -20 -20 -20 -20 -20 -20 -20 -20
-2 -11 -20 -19 4 -4 25 -18 -20 -20 -20 -20 -20 -20 -20 -20 -20 -20 -20 -20 -20 14 -18 -3 -14 -20 -20 -10 -14 -20 -20 -20 -20 -20 -20 -20 -20 -20 -20 -20 -20 -20 -20 -20 -20
-13 10 5 -20 9 24 15 -8 -20 -20 -20 -20 -20 -20 -20 -20 -20 -20 -20 -20 -20 -20 -18 15 14 -20 -20 -20 -20 -20 -20 -20 -20 -20 -20 -20 -20 -20 -20 -20 -20 -20 -20 -20 -20
-20 3 3 -20 4 30 17 30 26 -2 -20 -3 -20 -20 -20 -20 -20 -20 -20 -20 -20 -20 -20 -20 -20 -20 -20 -20 -20 -20 -20 -20 -20 -20 -20 -20 -20 -20 -20 -20 -20 -20 -20 -20 -20
7 -20 -20 10 -1 30 21 30 30 11 16 -20 -20 -20 -20 -20 -20 -20 -20 -20 -20 -20 -20 -20 -20 -20 -20 -20 -20 -20 -20 -20 -20 -20 -20 -20 -20 -20 -20 -20 -20 -20 -20 -20 -20
-20 -11 -9 -20 3 28 22 30 36 26 -15 -20 -20 -20 -20 -20 -20 -20 -20 -20 -20 -20 -20 -6 -3 -5 -20 -20 -20 -20 -20 -20 -20 -20 -20 -20 -20 -20 -20 -20 -20 -20 -20 -20 -20
15 -3 24 21 -18 3 37 36 19 -12 -17 -20 -20 -20 -20 -20 -20 -20 -20 -20 -20 -20 -20 -20 -20 -20 -20 -20 -20 -20 -20 -20 -20 -20 -20 -20 -20 -20 -20 -20 -20 -20 -20 -20 -20
31 21 25 -20 18 -13 22 32 14 33 20 1 -20 -20 -20 -20 -20 -20 -20 -20 -20 -15 -20 -20 -20 -20 -20 -20 -20 -20 -20 -20 -20 -20 -20 -20 -20 -20 -20 -20 -20 -20 -20 -20 -20
22 -13 24 18 -20 -20 1 30 36 33 34 -18 -2 -20 -20 -20 -20 -20 -20 -20 -20 -20 -20 -20 -20 -20 -20 -20 -20 -20 -20 -20 -20 -5 -11 -20 -20 -20 -20 -20 -20 -20 -20 -20 -20
24 0 -20 4 31 -8 23 30 38 29 32 -20 -2 2 -16 -20 -20 -20 -20 -20 -20 -20 -20 -20 -20 -20 -20 -20 -20 -19 -20 -20 -20 -5 -3 -20 -14 -20 -20 -20 -20 -20 -20 -20 -20
5 17 -13 -10 -13 -2 24 29 37 32 22 6 11 10 12 -13 -15 -15 3 -1 -20 -7 -20 -20 -20 -20 -20 -20 -20 -20 -11 -0 -2 -16 -2 -20 -20 -20 -20 -20 -20 -20 -20 -20 -20
10 18 23 -9 -8 5 25 29 29 29 16 4 3 10 -16 -7 2 -15 2 8 -2 7 9 -15 -17 -20 -20 -20 -20 -1 4 -4 1 11 -20 -20 -20 -20 -20 -20 -20 -20 -20 -20 -20
34 25 10 8 -20 6 38 35 24 5 -19 -20 6 -12 7 -17 10 -19 0 12 2 -8 -1 -18 -20 -20 -20 -20 -20 -20 -5 -17 -20 -20 -15 -20 -12 -20 -20 -20 -20 -20 -20 -20 -20
31 4 12 -19 -10 20 33 27 17 -19 -20 -19 9 6 5 -20 -7 -18 -19 -18 -19 -20 -20 -9 -20 -20 -20 -20 -20 3 3 -19 11 -12 13 1 -20 -20 -20 -20 -20 -20 -20 -20 -20
29 25 15 -12 8 29 25 32 19 -18 2 5 -14 -20 -20 -13 -3 -14 2 -20 -20 -20 -20 -4 -10 -20 -20 -20 -20 -3 -8 12 15 11 12 -8 -20 -20 -20 -20 -17 -20 -20 -20 -20
30 15 31 10 21 14 29 35 13 -16 13 -18 -20 -20 -20 -9 -20 -20 -20 -20 -20 -20 -20 2 -15 -15 -1 -0 -20 -11 5 8 -3 16 9 3 -18 -20 -20 -18 -3 -20 -20 -20 -20
31 34 23 17 32 30 30 24 10 -2 -20 -20 -20 -20 -20 -20 -20 -20 -20 -20 -20 -20 3 -20 7 8 -19 -20 -20 -20 -7 7 22 17 21 10 -13 -20 -20 -20 -20 -20 -20 -20 -20
31 15 15 27 33 29 27 32 13 -18 -20 -20 -20 -20 -20 -20 -20 -20 -20 -20 -20 -20 -20 -4 10 -15 -20 -16 -16 -3 -20 1 23 27 15 15 -12 5 4 -12 -20 -20 -20 -20 -20
37 37 18 22 16 0 -18 -7 -20 -20 -20 -20 -20 -20 -20 -20 -20 -20 -20 -20 -20 -20 -20 -20 0 -20 -20 -20 10 21 -16 18 11 17 -19 1 -20 -20 -20 -20 -20 -20 -20 -20 -20
25 19 -4 23 -10 -2 -20 -20 -20 -20 -20 -20 -20 -20 -20 -20 -20 -20 -20 -20 -20 -20 -20 2 -1 2 -20 -20 -13 2 4 14 22 -15 7 -18 -20 -20 -20 -20 -20 -20 -20 -20 -20
22 13 -20 12 -20 -20 -20 -20 -20 -20 -20 -20 -20 -20 -20 -7 -20 -20 -20 -20 -20 -20 -20 10 -7 7 -20 -20 -20 -0 2 6 12 4 1 1 -20 -20 -20 -20 -20 -20 -20 -20 -20
16 0 10 12 -8 -10 -20 -20 -20 -20 -20 -20 -16 -20 -20 -20 -18 -20 -17 -20 -20 -14 -20 5 -6 12 -20 -20 -20 -11 20 0 -14 -6 -2 -8 -20 -16 -20 -16 -8 18 -18 -20 -20

GFSSW_prec_radar_009.txt.gz
Reflectivity
-18 14 13 8 -14 17 -20 -12 -20 -20 -20 -20 -20 -20 -20 -18 -14 7 -19 -20 -20 -20 -20 -20 -20 -20 -20 -20 -20 -20 -20 -20 -20 -20 -20 -20 -20 -20 -20 -20 -20 -20 -20 -20 -20
-20 -13 -4 12 7 -18 25 -20 -20 -20 -20 -20 -20 -20 -20 19 4 -12 -20 -20 -20 -20 -20 -20 -20 -20 -20 -20 -20 -20 -20 -20 -20 -20 -20 -20 -20 -20 -20 -20 -20 -20 -20 -20 -20
-20 -20 -20 4 6 9 -11 14 -20 -20 -20 -20 -20 -20 -5 -20 8 2 -20 -20 -20 -20 -20 -20 -20 -20 -20 -20 -20 -20 -20 -20 -20 -20 -20 -20 -20 -20 -20 -20 -20 -20 -20 -20 -20
-20 -20 -4 -14 8 6 16 28 -20 -20 1 -20 -20 -20 -5 22 14 -5 -20 -20 -19 -19 -17 -20 -20 -20 -20 -20 -20 -20 -20 -20 -20 -20 -20 -20 -20 -20 -20 -20 -20 -20 -20 -20 -20
-20 -20 -10 -20 -20 10 2 17 23 -20 -16 -20 -20 -20 -20 29 18 -20 -20 -20 -15 2 3 -7 -11 -20 -20 -20 -20 -20 -20 -20 -20 -20 -20 -20 -20 -20 -20 -20 -20 -20 -20 -20 -20
-20 -20 -20 -5 -20 -20 16 -4 25 -20 -18 -20 -20 -20 -13 14 -18 19 -17 -20 -20 11 7 -7 -16 -20 -20 -20 -20 -20 -20 -20 -20 -20 -20 -20 -20 -20 -20 -20 -20 -20 -20 -20 -20
-20 -20 -20 -20 -20 -20 -7 6 12 -7 -18 5 -20 -20 -20 12 -20 -19 -20 -20 -20 15 12 -19 -20 -20 -19 -20 -20 -20 -20 -20 -20 -20 -20 -20 -20 -20 -20 -20 -20 -20 -20 -20 -20
-20 -20 -20 -20 -20 -20 -11 10 -13 14 -20 -14 -20 -20 -20 -20 -20 -20 -20 -20 -20 -20 -20 -16 -15 -6 -20 -20 -20 -20 -20 -20 -20 -20 -20 -20 -20 -20 -20 -20 -20 -20 -20 -20 -20
-20 -9 -20 -20 -20 -20 3 -6 -7 34 -20 -2 -20 -20 -20 -20 -20 -20 -20 -20 -20 -20 -20 -20 -0 -5 -20 -20 -20 -20 -20 -20 -20 -20 -20 -20 -20 -20 -20 -20 -20 -20 -20 -20 -20
-6 -20 12 5 -20 -11 -1 2 14 38 24 4 -20 -20 -20 -20 -20 -20 -20 -20 -20 -20 -20 -20 -20 -20 -20 -20 -20 -20 -20 -20 -20 -20 -20 -20 -20 -20 -20 -20 -20 -20 -20 -20 -20
17 -20 -20 -20 18 8 3 14 26 37 35 -20 -20 -20 -20 -20 -20 -20 -20 -20 -20 -20 -20 -20 -14 -20 -20 -20 -20 -20 -20 -20 -20 -20 -20 -20 -20 -20 -20 -20 -20 -20 -20 -20 -20
12 26 -3 25 26 20 -20 30 36 24 22 -17 -20 -20 -20 -20 -20 -20 -20 -20 -16 -8 -9 -14 -13 -20 -20 -20 -20 -20 -20 -20 -20 -20 -20 -20 -20 -20 -20 -20 -20 -20 -20 -20 -20
-17 -18 6 1 -1 -18 3 25 35 30 30 20 -20 -20 -20 -20 -20 -20 -20 -20 -20 -20 -20 -20 -20 -20 -20 -20 -20 -20 -20 -20 -20 -20 -20 -20 -20 -20 -20 -20 -20 -20 -20 -20 -20
-20 13 14 -20 -12 -1 -20 29 35 32 31 24 10 -16 -20 -20 -20 -20 -20 -20 -20 -12 -20 -11 -20 -20 -20 -20 -20 -20 -20 -20 -20 -20 -20 -20 -20 -20 -20 -20 -20 -20 -20 -20 -20
8 8 10 -17 10 11 15 30 32 37 29 33 4 -20 -7 -20 -20 -18 -20 -20 -20 -20 -20 -20 -20 -20 -20 -20 -20 -20 -20 -20 -20 -10 -19 -20 -20 -20 -20 -20 -20 -20 -20 -20 -20
8 14 16 -13 8 -20 10 36 34 28 24 18 16 2 4 -20 -10 -4 -7 -14 -20 -20 -20 -20 -20 -20 -20 -20 -20 -20 -20 -20 -20 -20 -1 -20 -20 -20 -20 -20 -20 -20 -20 -20 -20
-16 9 37 11 -2 -2 21 30 27 12 28 8 -10 10 1 -9 -1 -3 -2 -4 -20 -3 -10 -20 -20 -20 -20 -20 -20 -20 -19 -12 3 9 -20 -20 -20 -20 -20 -20 -20 -20 -20 -20 -20
22 19 15 22 -20 -13 29 32 21 9 -2 -2 4 9 9 -20 -17 -14 -19 1 -20 -20 -20 -19 -15 -20 -20 -20 -19 -20 -18 -19 -20 -20 -20 -20 -20 -20 -20 -20 -20 -20 -20 -20 -20
-4 -20 12 16 -3 10 33 14 21 -1 -20 1 3 1 10 -20 -0 7 -3 2 -14 -20 -20 -20 -20 -20 -20 -20 -20 -16 -20 -19 -3 -20 -2 -20 -20 -20 -20 -20 -20 -20 -20 -20 -20
8 -10 25 12 3 26 27 30 37 -12 -20 -20 -14 -9 -11 -20 -6 -7 -0 -20 -20 -20 -20 -20 -20 -20 -20 -20 -20 -20 -20 -8 3 -1 -13 -20 -20 -20 -13 -12 -20 -20 -20 -20 -20
15 -12 20 6 -3 15 11 36 14 -20 -18 -9 -20 -20 -20 -20 -19 -18 -20 -20 -20 -20 -20 -13 -20 -20 -20 -16 -20 -20 2 -3 -5 1 6 -1 -18 -14 0 -6 -18 -20 -20 -20 -20
0 11 24 6 17 27 26 24 14 -4 -20 -20 -20 -20 -20 -20 -20 -20 -20 -20 -20 -20 -20 -20 3 -20 -19 -20 -20 -20 -20 -12 12 -19 12 5 -13 -19 -6 -20 -20 -20 -20 -20 -20
11 4 10 10 11 7 22 19 5 19 24 11 -8 -15 -20 -20 -20 -20 -20 -20 -20 -20 -20 -20 -7 -10 -20 -17 -20 -20 -20 -20 10 21 12 15 -13 -20 -8 -20 -20 -20 -20 -20 -20
-17 10 29 11 10 -0 31 24 10 22 6 -20 -20 -20 -20 -20 -20 -20 -20 -20 -20 -20 -20 -16 -4 -20 -20 -20 -20 7 -9 4 25 17 -17 -15 -20 -20 -19 9 1 1 -19 -20 -20
15 6 19 12 -20 10 27 26 16 -1 -13 -20 -20 -20 -20 -20 -20 -20 -20 -20 -20 -20 -20 -5 -2 -14 -20 -20 -20 -20 -20 -11 22 18 15 2 -15 -20 -15 -19 -17 -20 -20 -20 -2
-20 -5 -6 -6 -5 12 -8 -11 11 -20 -20 -20 -20 -20 -20 -6 -1 -6 -4 -20 -10 -20 -20 5 7 8 -20 -20 -20 -14 -18 21 6 -10 5 -1 -3 -20 -6 -19 -20 -20 -20 9 -20
-15 -8 11 -15 -15 5 9 -5 -6 -20 -19 -20 -20 -7 4 7 -10 -20 -20 -20 -15 3 3 -2 -2 3 -20 -20 -20 -6 5 -6 -12 -20 -8 -3 -6 -20 -1 3 -20 -20 -12 -18 -20

GFSSW_prec_radar_012.txt.gz
Reflectivity
-20 -20 -20 -20 -1 1 5 18 -11 -20 -20 -20 -20 -20 -20 -20 -17 5 2 -20 -20 -20 -20 -20 -20 -20 -20 -20 -20 -20 -20 -20 -20 -20 -20 -20 -20 -20 -20 -20 -20 -20 -20 -20 -20
-20 -20 -20 -20 -20 5 0 9 19 -20 -20 -20 -10 -20 -20 -20 13 2 -20 -11 -20 -18 -20 -20 -20 -20 -20 -20 -20 -20 -20 -20 -20 -20 -20 -20 -20 -20 -20 -20 -20 -20 -20 -20 -20
-20 -20 -20 -20 -20 1 7 1 12 -1 -20 -20 -20 -20 -20 -20 18 -20 -20 -20 -20 -20 -20 -20 -20 -20 -20 -20 -20 -20 -20 -20 -20 -20 -20 -20 -20 -20 -20 -20 -20 -20 -20 -20 -20
-20 -20 -20 -20 -20 13 11 9 1 28 -1 -20 -20 -20 -20 20 -3 -2 -20 -13 -20 -19 -20 -20 -20 -20 -20 -20 -20 -20 -20 -20 -20 -20 -20 -20 -20 -20 -20 -20 -20 -20 -20 -20 -20
-20 -20 -20 -20 -20 -20 -5 -9 -3 10 18 -20 -20 -20 -20 10 -8 -20 -20 -20 -20 20 -20 -20 -20 -20 -20 -20 -20 -20 -20 -20 -20 -20 -20 -20 -20 -20 -20 -20 -20 -20 -20 -20 -20
7 6 -14 -20 -20 -20 -20 -20 -6 14 32 -20 -20 -20 -20 16 3 -6 -7 -20 -20 26 13 -4 -8 -20 -20 -20 -20 -20 -20 -20 -20 -20 -20 -20 -20 -20 -20 -20 -20 -20 -20 -20 -20
11 9 5 5 -19 3 -20 0 -3 15 26 14 -20 -20 -20 -19 -20 -20 -19 -20 -20 12 18 5 -19 -20 -20 -20 -20 -20 -20 -20 -20 -20 -20 -20 -20 -20 -20 -20 -20 -20 -20 -20 -20
-20 -20 -20 -9 -20 -12 -19 -20 13 17 11 30 -20 -20 -18 -20 -20 -20 -20 26 -15 -20 18 11 -6 -20 -20 -20 -20 -20 -20 -20 -20 -20 -20 -20 -20 -20 -20 -20 -20 -20 -20 -20 -20
-2 -16 -18 -7 -19 -13 -9 -9 6 -7 5 34 -20 -20 -20 -20 -20 -20 -20 -20 -20 19 28 23 -3 -20 -20 -20 -20 -20 -20 -20 -20 -20 -20 -20 -20 -20 -20 -20 -20 -20 -20 -20 -20
18 -20 -18 7 -20 -20 5 -10 11 7 25 36 -12 3 -20 -20 -20 -20 -20 -20 -20 4 -20 -12 -20 -20 -20 -20 -20 -20 -20 -20 -20 -20 -20 -20 -20 -20 -20 -20 -20 -20 -20 -20 -20
-19 -20 22 19 -20 -1 13 9 12 17 26 29 -11 -20 -20 -20 -20 -20 -20 -18 -20 -3 -20 -20 -20 -20 -20 -20 -20 -20 -20 -20 -20 -20 -20 -20 -20 -20 -20 -20 -20 -20 -20 -20 -20
-11 15 22 11 26 -15 22 4 12 17 36 28 -2 -20 -20 -20 -20 -20 -20 -20 -20 -6 -17 -20 -20 -20 -20 -20 -20 -20 -20 -20 -20 -20 -20 -20 -20 -20 -20 -20 -20 -20 -20 -20 -20
3 -20 4 -20 -20 11 -6 -20 21 35 28 27 21 -14 -20 -20 -20 -20 -20 -20 -20 -9 -8 -20 -20 -20 -20 -20 -20 -20 -20 -20 -20 -20 -20 -20 -20 -20 -20 -20 -20 -20 -20 -20 -20
-20 -7 -20 -20 -12 18 14 -20 8 37 29 31 28 5 -20 -20 -20 -20 -20 -20 -20 -12 8 -20 -20 -20 -20 -20 -20 -20 -20 -20 -20 -20 -20 -20 -20 -20 -20 -20 -20 -20 -20 -20 -20
3 -20 -1 7 -19 -19 23 33 28 38 -4 20 25 2 -20 -20 -20 -20 -20 -20 -20 -20 -20 -20 -20 -20 -20 -20 -20 -20 -20 -20 -20 -20 -20 -20 -20 -20 -20 -20 -20 -20 -20 -20 -20
-8 -2 18 27 5 -20 18 32 23 27 20 29 28 8 -13 8 -17 -20 -20 -20 -20 -20 -20 -20 -20 -20 -20 -20 -20 -20 -20 -20 -20 -20 -20 -20 -20 -20 -20 -20 -20 -20 -20 -20 -20
-20 4 18 25 25 -20 21 30 25 18 23 14 21 6 -17 -8 9 -2 -8 -1 -20 -20 -20 -20 -20 -20 -20 -20 -20 -20 -20 -20 -16 -11 -20 -20 -20 -20 -20 -20 -20 -20 -20 -20 -20
-16 18 2 22 8 -15 23 21 21 24 20 -18 6 6 -18 -16 7 5 -17 5 -20 -20 -20 -20 -20 -20 -20 -20 -20 -20 -20 -20 -20 -20 -20 -20 -20 -20 -20 -20 -20 -20 -20 -20 -20
-0 19 -3 22 -12 -7 6 10 27 14 -9 -18 21 24 24 4 -11 -0 7 -4 -20 -20 -20 -20 -20 -20 -20 -20 -20 -18 -20 -20 -20 -20 -20 -20 -20 -20 -20 -20 -20 -20 -20 -20 -20
6 8 5 13 -19 -4 10 16 22 30 1 -8 -20 -8 -20 -17 -5 -7 -6 -20 -20 -20 -20 -20 -18 -20 -20 -20 -20 -20 -20 -14 3 -20 -20 -20 -20 -20 -20 -20 -20 -20 -20 -20 -20
-6 5 23 15 -6 -1 0 -4 8 28 7 1 -20 -18 -20 -12 -8 -20 -20 -20 -20 -20 -20 -20 -20 -20 -20 -20 -20 -20 -18 -2 -16 -19 -19 -20 -20 -20 -20 -20 -20 -20 -20 -20 -20
-3 16 4 14 1 -3 30 23 34 6 6 -20 -20 -20 -20 -20 -20 -20 -20 -20 -20 -20 -20 -20 -20 -20 -20 -20 -20 -20 -20 -20 4 -20 -20 -20 -20 -20 -20 -20 -14 -20 -20 -20 -20
8 8 9 4 -4 -5 7 31 16 -13 -16 -20 -20 -11 -20 -20 -20 -20 -11 -20 -20 -20 -20 -20 -14 -20 -20 -20 -20 -20 -20 -20 -16 4 -10 -16 -20 -20 -19 -1 -13 5 -20 -20 -20
-7 -19 -7 -20 -20 -14 26 30 28 12 -0 -20 -20 -13 -20 -20 -20 -18 -20 -20 -20 -20 -20 -20 -11 -20 -20 -20 -20 -20 -20 -20 1 12 -20 -20 -20 -20 -13 -0 -14 12 24 9 -4
-18 -20 -20 7 11 7 22 26 17 14 11 -9 -20 -20 -20 -10 -20 -20 -20 -20 -20 -20 -20 -16 -20 -20 -20 -20 -20 -20 -20 -19 17 -2 -3 -13 -16 -20 -6 -3 -12 -13 -17 -20 -20
-6 -20 -20 -20 5 3 4 21 -13 -8 -20 -20 -20 -20 -20 -20 0 -20 -20 -20 -20 -20 -20 -20 -10 -14 -20 -20 -20 -20 -20 -20 -20 -16 -4 -15 -20 -0 3 -9 -20 -20 -20 -20 -20
-16 -12 -10 -20 -18 -3 -4 -20 -10 -20 -20 -20 -15 -16 2 -7 -20 -20 -20 -20 -20 -20 -20 -9 -20 -20 -20 -20 -20 -20 -20 -20 -13 1 -5 -1 -5 -8 -19 -12 -20 -11 -20 -20 -20

GFSSW_prec_radar_015.txt.gz
Reflectivity
-20 -20 -20 -20 -18 14 13 10 4 19 -18 -20 -20 -20 -20 -16 3 2 -18 -20 -20 -20 -20 -20 -20 -20 -20 -20 -20 -20 -20 -20 -20 -20 -20 -20 -20 -20 -20 -20 -20 -20 -20 -20 -20
-20 -20 -20 -20 -20 1 14 9 13 11 19 -20 -20 -20 -20 -0 8 6 -20 -20 -20 -20 -20 -20 -20 -20 -20 -20 -20 -20 -20 -20 -20 -20 -20 -20 -20 -20 -20 -20 -20 -20 -20 -20 -20
-19 -17 -20 -20 -20 -20 15 12 4 9 26 -20 -20 -20 -20 -20 9 -20 -20 -20 -20 -20 -20 -20 -20 -20 -20 -20 -20 -20 -20 -20 -20 -20 -20 -20 -20 -20 -20 -20 -20 -20 -20 -20 -20
-20 -8 -17 -14 -16 -19 -20 9 15 17 23 16 -16 -20 -20 -17 -20 -20 -20 -20 -20 -20 -20 -20 -20 -20 -20 -20 -20 -20 -20 -20 -20 -20 -20 -20 -20 -20 -20 -20 -20 -20 -20 -20 -20
-2 -8 -2 13 -0 -20 -15 -20 13 5 21 31 20 -20 -20 11 -20 -20 11 -20 0 -7 -20 -20 -20 -20 -20 -20 -20 -20 -20 -20 -20 -20 -20 -20 -20 -20 -20 -20 -20 -20 -20 -20 -20
8 13 5 -18 5 11 -4 -20 -11 6 14 28 26 -3 -20 -17 -20 -20 -20 -6 9 -14 -20 -20 -20 -20 -20 -20 -20 -20 -20 -20 -20 -20 -20 -20 -20 -20 -20 -20 -20 -20 -20 -20 -20
11 -3 -19 -11 -2 -6 -10 -20 -19 2 23 20 27 -8 -20 -20 -20 -20 -20 -20 -20 15 -20 11 -20 -20 -20 -20 -20 -20 -20 -20 -20 -20 -20 -20 -20 -20 -20 -20 -20 -20 -20 -20 -20
20 5 -20 -20 6 -16 -5 -3 -20 -20 14 13 33 4 -16 -20 -20 -20 -13 -10 -20 -20 -12 12 -17 -20 -20 -20 -20 -20 -20 -20 -20 -20 -20 -20 -20 -20 -20 -20 -20 -20 -20 -20 -20
20 20 17 7 -9 -20 -16 -12 -20 -20 -3 27 27 7 -20 -20 -19 -20 -20 -20 -20 -0 20 -8 17 -14 -16 -20 -20 -20 -20 -20 -20 -20 -20 -20 -20 -20 -20 -20 -20 -20 -20 -20 -20
17 15 8 -18 -20 -20 1 -20 -20 -20 14 22 28 18 -20 -20 -19 -20 -20 -20 7 18 23 29 8 -12 -20 -17 -20 -20 -20 -20 -20 -20 -20 -20 -20 -20 -20 -20 -20 -20 -20 -20 -20
-6 15 -20 -20 -20 24 -20 -20 5 -9 9 32 21 -16 -20 -20 -20 -20 -20 -14 -4 7 10 7 22 -8 -20 -20 -20 -20 -20 -20 -20 -20 -20 -20 -20 -20 -20 -20 -20 -20 -20 -20 -20
-20 -20 -15 -20 -20 -20 -12 -20 11 15 15 21 29 13 -20 -16 -20 -20 -20 -20 -12 -20 -20 -20 -20 -20 -20 -14 -20 -20 -20 -20 -20 -20 -20 -20 -20 -20 -20 -20 -20 -20 -20 -20 -20
-20 4 6 6 -20 -20 -20 -20 10 32 19 36 22 -3 -19 -20 -20 -20 -20 -20 -20 -8 -20 -20 -20 -20 -20 -20 -20 -20 -20 -20 -20 -20 -20 -20 -20 -20 -20 -20 -20 -20 -20 -20 -20
-1 -3 -11 -20 -20 -20 -20 10 13 21 21 34 32 20 -20 -20 -20 -20 -20 -20 -20 -16 -20 -20 -20 -20 -20 -20 -20 -20 -20 -20 -20 -20 -20 -20 -20 -20 -20 -20 -20 -20 -20 -20 -20
11 8 19 30 21 -19 1 -13 32 17 20 31 20 6 2 -20 -20 -20 -20 -20 -20 -20 -20 -20 -20 -20 -20 -20 -20 -20 -20 -20 -20 -20 -20 -20 -20 -20 -20 -20 -20 -20 -20 -20 -20
15 -8 0 25 8 20 -20 6 23 21 26 35 9 3 12 9 -11 -20 -20 -20 -20 -20 -20 -18 -20 -20 -20 -20 -20 -20 -20 -20 -20 -20 -20 -20 -20 -20 -20 -20 -20 -20 -20 -20 -20
-3 10 -3 26 9 -12 -20 16 11 18 28 23 19 1 -4 6 0 -20 -13 -20 -20 -20 -20 -20 -20 -20 -20 -20 -20 -20 -20 -20 -20 -20 -20 -20 -20 -20 -20 -20 -20 -20 -20 -20 -20
13 -3 -20 3 -11 -20 -1 15 17 27 27 11 9 2 8 -13 -9 -0 -5 -20 -20 -20 -20 -20 -20 -20 -20 -20 -20 -20 -20 -20 -20 -20 -20 -20 -20 -20 -20 -20 -20 -20 -20 -20 -20
-11 -19 18 17 13 -20 4 17 20 29 10 22 13 27 9 0 -18 -10 -18 -20 -20 -20 -20 -20 -20 -20 -20 -20 -20 -20 -20 -20 -20 -20 -20 -20 -20 -20 -20 -20 -20 -20 -20 -20 -20
-20 -2 26 12 -11 -20 14 30 30 35 12 -19 -8 -20 -15 2 -20 -12 4 -20 -20 -20 -20 -20 -20 -20 -20 -20 -20 -20 -20 -20 -20 -20 -20 -20 -20 -20 -20 -20 -20 -20 -20 -20 -20
-20 2 -2 -18 -3 8 23 25 23 20 19 -19 -20 -20 -20 -12 -20 -20 -20 -20 -20 -20 -20 -20 -20 -20 -20 -20 -20 -20 -20 -20 -20 -20 -20 -20 -20 -20 -20 -20 -20 -20 -20 -20 -20
-20 -15 -20 4 -4 6 16 25 25 18 -20 -20 -20 -20 -20 -20 -20 -20 -20 -20 -20 -20 -20 -20 -20 -20 -20 -20 -20 -20 -20 -20 -20 -20 -20 -20 -20 -20 -20 -20 -20 -18 -20 -20 -20
-20 -14 -20 -20 22 29 21 21 30 33 2 -20 -20 -20 -20 -20 -18 -20 -20 -20 -20 -20 -20 -20 -20 -20 -17 -20 -20 -20 -20 -20 -20 -17 -20 -18 -20 -20 -20 -20 -20 -20 -20 -20 -20
-20 -20 -20 -20 -4 31 16 8 -13 -10 -20 -20 -20 -20 -20 -20 -20 -20 -20 -20 -20 -20 -4 -20 -16 -20 -20 -20 -20 -20 -20 -20 -11 6 -20 -20 -20 -20 -17 -11 -11 -20 -20 -20 -20
-20 -20 -20 -20 -20 -20 4 19 -20 -20 -20 -20 -20 -20 -20 -20 -20 -20 -20 -20 -20 -20 -20 -20 -20 -20 -20 -20 -20 -20 -20 -20 -20 -20 7 -19 -20 -20 -14 -5 2 -15 -20 -20 -20
-20 -20 -20 -20 -20 -20 -20 -20 -20 -20 -20 -20 -20 -20 -20 -20 -20 -20 -20 -20 -20 -20 -20 -20 -20 -20 -20 -20 -20 -20 -20 -20 -20 -20 -20 -20 -16 -5 -9 -10 -20 -10 -20 -20 -20
-20 -20 2 -20 -20 -20 -20 -20 -20 -20 -20 -20 -20 -20 -19 -20 -20 -20 -20 -20 -20 -20 -20 -11 -20 -20 -20 -20 -20 -20 -20 -20 -20 -20 -16 -16 -20 -18 -20 -20 -18 -14 -17 -20 -20

GFSSW_prec_radar_018.txt.gz
Reflectivity
14 -6 -1 -15 -20 -20 3 11 6 5 16 24 -8 -20 -1 -20 6 12 -18 -20 -20 -20 -20 -20 -20 -20 -20 -20 -20 -20 -20 -20 -20 -20 -20 -20 -20 -20 -20 -20 -20 -20 -20 -20 -20
-12 6 8 -8 16 -0 -20 2 4 8 9 22 25 -20 6 4 3 -0 -20 -20 -20 -20 -20 -20 -20 -20 -20 -20 -20 -20 -20 -20 -20 -20 -20 -20 -20 -20 -20 -20 -20 -20 -20 -20 -20
17 5 -20 11 -10 16 14 -11 -20 8 -15 1 26 -7 3 5 5 -20 -20 -20 -20 -20 -20 -20 -20 -20 -20 -20 -20 -20 -20 -20 -20 -20 -20 -20 -20 -20 -20 -20 -20 -20 -20 -20 -20
20 15 5 18 16 -8 17 12 11 -20 11 3 21 0 2 14 -20 -20 -20 -20 -1 7 -20 -20 -20 -20 -20 -20 -20 -20 -20 -20 -20 -20 -20 -20 -20 -20 -20 -20 -20 -20 -20 -20 -20
-5 28 -1 18 -8 -11 2 -10 -7 -20 4 9 -11 29 -14 6 -20 -20 -19 17 14 -16 -20 -20 -20 -20 -20 -20 -20 -20 -20 -20 -20 -20 -20 -20 -20 -20 -20 -20 -20 -20 -20 -20 -20
12 26 11 -18 -4 12 13 -20 -20 -20 -20 0 -9 35 6 -10 -20 -20 -20 22 -20 -20 -20 -20 -20 -20 -20 -20 -20 -20 -20 -20 -20 -20 -20 -20 -20 -20 -20 -20 -20 -20 -20 -20 -20
-1 -19 -2 -14 -17 -20 -13 -20 -20 -20 -20 -2 17 36 32 -20 -15 -20 -17 26 4 -20 -20 -20 -20 -20 -20 -20 -20 -20 -20 -20 -20 -20 -20 -20 -20 -20 -20 -20 -20 -20 -20 -20 -20
15 14 -14 -20 -17 -8 -20 3 -9 -20 -20 -12 11 31 2 9 -20 -20 -20 -20 -20 -11 -20 -18 -20 -20 -20 -20 -20 -20 -20 -20 -20 -20 -20 -20 -20 -20 -20 -20 -20 -20 -20 -20 -20
11 5 4 -2 2 11 -20 -20 -20 -20 -18 -19 20 34 9 11 -20 0 -20 -14 -20 -9 1 -2 -12 -4 -20 -20 -20 -20 -20 -20 -20 -20 -20 -20 -20 -20 -20 -20 -20 -20 -20 -20 -20
2 8 12 4 8 24 9 -20 -20 -20 -20 -1 29 32 -6 -20 2 -11 5 -7 -4 26 14 21 14 14 -20 -20 -20 -20 -20 -20 -20 -20 -20 -20 -20 -20 -20 -20 -20 -20 -20 -20 -20
-0 -19 -9 7 -6 10 -13 -20 -20 -8 0 -18 25 18 -20 -20 7 -20 -20 -5 22 18 14 -20 1 27 -20 -20 -20 -20 -20 -20 -20 -20 -20 -20 -20 -20 -20 -20 -20 -20 -20 -20 -20
-20 8 -20 -15 -20 -0 -12 -20 7 13 -20 -1 29 10 -20 -20 -1 -20 0 -12 17 28 24 23 23 9 -3 -18 -20 -11 -20 -20 -20 -20 -20 -20 -20 -20 -20 -20 -20 -20 -20 -20 -20
-20 5 3 -8 -16 -20 -20 -20 -16 14 -6 31 21 -8 9 -20 -20 -20 -10 -14 -9 -20 -16 -20 -19 -10 -20 -20 -20 -20 -20 -20 -20 -20 -20 -20 -20 -20 -20 -20 -20 -20 -20 -20 -20
4 -19 -8 23 -2 -7 -20 2 -19 -16 -12 23 33 13 18 -20 -20 -20 -3 -18 1 4 -20 -20 -20 -20 -20 -20 -20 -20 -20 -20 -20 -20 -20 -20 -20 -20 -20 -20 -20 -20 -20 -20 -20
9 16 22 26 33 22 -19 -20 27 -17 -18 19 33 6 10 -20 -20 -6 -2 -20 -20 -20 -20 -20 -20 -20 -20 -20 -20 -20 -20 -20 -20 -20 -20 -20 -20 -20 -20 -20 -20 -20 -20 -20 -20
8 22 22 21 12 25 -19 -20 -20 -16 19 31 36 16 24 -20 -20 -9 -13 -20 -19 -19 -20 -20 -20 -20 -20 -20 -20 -20 -20 -20 -20 -20 -20 -20 -20 -20 -20 -20 -20 -20 -20 -20 -20
23 -8 -10 20 10 19 -20 -20 -15 16 32 14 23 7 2 -6 -12 4 16 -18 -10 -10 28 -20 -20 -20 -20 -20 -20 -20 -20 -20 -20 -20 -20 -20 -20 -20 -20 -20 -20 -20 -20 -20 -20
19 10 12 10 -3 -20 -7 -3 10 12 34 2 -13 9 -17 -16 -10 8 4 -3 -20 -20 -20 -20 -20 -20 -20 -20 -20 -20 -20 -20 -20 -20 -20 -20 -20 -20 -20 -20 -20 -20 -20 -20 -20
-20 -20 4 -10 -19 -18 -15 5 18 22 31 13 12 -18 -11 -20 -14 -4 4 -20 -20 -20 -20 -20 -20 -20 -20 -20 -20 -20 -20 -20 -20 -20 -20 -20 -20 -20 -20 -20 -20 -20 -20 -20 -20
-20 -20 -2 -13 -5 -9 7 24 23 27 -3 -20 -9 -19 -12 -20 -17 3 -5 -20 -20 -20 -20 -20 -20 -20 -20 -20 -20 -20 -20 -20 -20 -20 -20 -20 -20 -20 -20 -20 -20 -20 -20 -20 -20
-20 -19 -11 10 3 22 23 26 32 25 3 -12 -20 -20 -20 -20 -20 -20 -20 -20 -20 -20 -20 -20 -20 -20 -20 -20 -20 -20 -20 -20 -20 -20 -20 -20 -20 -20 -20 -20 -20 -20 -20 -20 -20
-20 -20 -6 1 16 29 37 35 25 -14 -20 -20 -20 -20 -20 -20 -20 -20 -20 -20 -20 -20 -20 -20 -20 -20 -20 -20 -20 -20 -20 -20 -20 -20 -20 -20 -20 -20 -20 -20 -20 -20 -20 -20 -20
-20 -20 -20 -20 -19 12 10 -3 -15 -13 -20 -20 -20 -20 -20 -20 -20 -20 -20 -20 -20 -20 -20 -20 -20 -20 -20 -20 -20 -20 -20 -20 -20 -20 -20 -20 -20 -20 -20 -20 -20 -20 -20 -20 -20
-20 -20 -20 -20 -20 -20 -20 -20 -20 -20 -20 -20 -20 -20 -20 -20 -20 -20 -20 -20 -20 -20 -20 -20 -20 -20 -20 -20 -20 -20 -20 -20 -20 -12 -20 -20 -20 -20 -20 -20 -20 -20 -20 -20 -20
-20 -20 -20 -20 -20 -19 -14 -20 -20 -20 -20 -20 -20 -20 -20 -20 -20 -20 -20 -20 -20 1 -20 -20 -20 -20 -20 -20 -20 -20 -20 -20 -20 -20 -20 -20 -20 -20 -20 -20 -16 -20 -20 -20 -20
-20 -20 -20 -20 -20 -20 -20 -20 -20 -20 -20 -20 -20 -20 -20 -20 -20 -20 -20 -20 -20 -20 -20 -20 -20 -20 -20 -20 -20 -20 -20 -20 -20 -20 -20 -20 -20 -20 -20 -20 -20 -20 -10 7 13
-20 -20 -20 -20 -20 -20 -20 -20 -20 -20 -20 -20 -20 -20 -20 -20 -20 -20 -20 -20 -20 -20 -20 -20 -20 -20 -20 -20 -20 -20 -20 -20 -20 -20 -20 -20 -20 -19 -12 -20 -13 -20 -10 9 -14

GFSSW_prec_radar_021.txt.gz
Reflectivity
-11 -7 -6 -19 3 -1 -2 -20 6 14 -15 -20 -5 28 -20 -12 -0 4 -18 -20 -20 -20 -20 -20 -20 -20 -20 -20 -20 -20 -20 -20 -20 -20 -20 -20 -20 -20 -20 -20 -20 -20 -20 -20 -20
19 20 12 -20 -6 -9 -20 7 -20 -9 -3 -20 -20 33 -14 12 -0 -2 -20 -20 -20 -20 9 -20 -20 -20 -20 -20 -20 -20 -20 -20 -20 -20 -20 -20 -20 -20 -20 -20 -20 -20 -20 -20 -20
-17 -5 -1 24 15 24 12 -9 12 -8 -17 -13 -3 4 30 11 -10 -20 -20 -20 -20 -20 -0 -20 -20 -20 -20 -20 -20 -20 -20 -20 -20 -20 -20 -20 -20 -20 -20 -20 -20 -20 -20 -20 -20
-19 -11 -20 20 -0 17 21 13 -18 -7 -20 -19 -18 -0 33 -20 -20 -15 -20 -20 -20 -20 -2 -20 -20 -20 -20 -20 -20 -20 -20 -20 -20 -20 -20 -20 -20 -20 -20 -20 -20 -20 -20 -20 -20
-4 21 11 -20 10 10 3 3 -20 -20 -20 -20 -20 -14 37 -9 -15 -9 10 -20 -11 18 -4 -20 -20 -20 -20 -20 -20 -20 -20 -20 -20 -20 -20 -20 -20 -20 -20 -20 -20 -20 -20 -20 -20
-11 21 -1 -16 -0 7 11 11 -20 -20 -20 -20 6 19 27 25 -16 -19 8 28 5 11 -20 -20 -20 -20 -20 -20 -20 -20 -20 -20 -20 -20 -20 -20 -20 -20 -20 -20 -20 -20 -20 -20 -20
20 12 9 -1 3 -15 -11 9 10 -20 -20 -5 13 4 23 23 -20 -20 7 18 6 -20 -20 -20 -20 -20 -20 -20 -20 -20 -20 -20 -20 -20 -20 -20 -20 -20 -20 -20 -20 -20 -20 -20 -20
-15 14 13 6 8 1 -16 -2 10 -2 -20 -0 8 19 -1 -16 4 -20 -20 24 28 25 -20 -20 -20 -20 -20 -20 -20 -20 -20 -20 -20 -20 -20 -20 -20 -20 -20 -20 -20 -20 -20 -20 -20
17 -10 -2 5 16 1 5 9 -10 -20 -1 7 -8 29 32 12 5 -3 -19 27 22 27 26 -20 -10 -20 -20 -20 -20 -20 -20 -20 -20 -20 -20 -20 -20 -20 -20 -20 -20 -20 -20 -20 -20
-20 -20 -20 -14 -7 -19 -12 -19 -20 -20 -0 -1 -12 34 19 -19 22 12 18 -11 -19 27 24 24 19 -20 -20 -20 -17 -20 -20 -20 -20 -20 -20 -20 -20 -20 -20 -20 -20 -20 -20 -20 -20
-20 -20 -20 -20 3 -14 -20 -20 -14 -20 -20 -20 4 21 -20 -20 24 -20 20 -11 25 27 24 18 13 -0 -20 -20 -20 -20 -20 -20 -20 -20 -20 -20 -20 -20 -20 -20 -20 -20 -20 -20 -20
-15 -18 4 -3 -14 -20 -20 -20 -9 24 -20 -20 24 13 25 -10 3 18 19 6 23 30 -4 11 26 6 -18 -19 -20 -20 -20 -20 -20 -20 -20 -20 -20 -20 -20 -20 -20 -20 -20 -20 -20
6 13 3 23 -5 -8 -20 -7 -16 -11 -17 -20 9 5 10 -6 -7 -6 19 21 0 3 15 18 14 -14 36 -0 -19 -17 -20 -20 -20 -20 -20 -20 -20 -20 -20 -20 -20 -20 -20 -20 -20
0 22 -13 25 4 29 -1 -20 -20 -20 -20 -16 27 16 -13 -19 -20 3 -12 -6 -19 1 40 29 21 17 -10 -20 -20 -20 -20 -20 -20 -20 -20 -20 -20 -20 -20 -20 -20 -20 -20 -20 -20
30 34 -4 28 28 12 -20 -20 -0 -17 -20 3 23 19 -16 -20 -20 -14 -8 -20 17 -14 -9 28 -20 -20 -20 -20 -20 -20 -20 -20 -20 -20 -20 -20 -20 -20 -20 -20 -20 -20 -20 -20 -20
17 -14 5 23 19 2 -20 -20 -19 -20 19 37 34 13 17 -20 -14 17 -11 -20 -15 -7 -12 -20 -20 -20 -20 -20 -20 -20 -20 -20 -20 -20 -20 -20 -20 -20 -20 -20 -20 -20 -20 -20 -20
-20 19 -15 -10 -9 -14 -20 -20 -20 5 19 31 28 2 6 7 13 15 6 -4 -12 13 8 -20 -20 -20 -20 -20 -20 -20 -20 -20 -20 -20 -20 -20 -20 -20 -20 -20 -20 -20 -20 -20 -20
6 -18 -20 -20 -20 -20 -20 -8 -4 15 19 29 5 3 -2 11 17 1 -18 -20 -20 -20 -15 -20 -20 -20 -20 -20 -20 -20 -20 -20 -20 -20 -20 -20 -20 -20 -20 -20 -20 -20 -20 -20 -20
-5 -19 -20 -20 -20 -20 -16 9 19 16 24 25 3 -14 22 -20 12 -4 -13 -20 -20 -20 -20 -20 -20 -20 -20 -20 -20 -20 -20 -20 -20 -20 -20 -20 -20 -20 -20 -20 -20 -20 -20 -20 -20
-20 -20 -20 -20 -20 -13 -8 24 18 15 3 -20 -17 -15 -13 -20 -10 -20 -14 -20 -20 -20 -20 -20 -20 -20 -20 -20 -20 -20 -20 -20 -20 -20 -20 -20 -20 -20 -20 -20 -20 -20 -20 -20 -20
-20 -20 -20 -20 -20 -20 0 6 6 -19 -20 -20 -20 -20 -20 -20 -20 -20 -20 -20 -20 -20 -20 -20 -20 -20 -20 -20 -20 -20 -20 -20 -20 -20 -20 -20 -20 -20 -20 -20 -20 -20 -20 -20 -20
-20 -20 -20 -20 -20 1 13 18 -16 -9 -20 -20 -20 -20 -20 -19 -20 -20 -20 -20 -20 -20 -20 -20 -20 -20 -20 -20 -20 -20 -20 -20 -20 -20 -20 -20 -20 -20 -20 -20 -20 -20 -20 -20 -20
-20 -20 -20 -20 -20 -20 -20 -20 -20 -20 -20 -20 -20 -20 -20 -20 -20 -20 -20 -20 -20 -20 -20 -20 -20 -20 -20 -20 -20 -20 -20 -20 -20 -20 -20 -20 -20 -20 -20 -20 -20 -20 -20 -20 -20
-20 -20 -20 -20 -20 -20 -20 -20 -20 -20 -20 -20 -20 -20 -20 -20 -20 -20 -20 -20 -20 -20 -20 -20 -20 -20 -20 -20 -20 -20 -20 -20 -20 -20 -20 -20 -20 -20 -20 -20 -6 -20 -20 -20 -20
-20 -20 -20 -20 -20 -15 -20 -20 -20 -20 -20 -20 -20 -20 -20 -20 -20 -20 -20 -20 -20 -3 -20 -20 -20 -20 -20 -20 -20 -20 -20 -20 -20 -20 -20 -20 -20 -20 -20 -2 -20 -20 -20 -20 -20
-20 -20 -20 -20 -20 -20 -20 -20 -20 -20 -20 -20 -20 -20 -20 -20 -20 -20 -20 -20 -20 -20 -20 -20 -20 -20 -20 -20 -20 -20 -20 -20 -20 -20 -20 -20 -20 -20 -20 -6 -20 -20 -20 -20 -20
-20 -20 -18 -20 -20 -20 -20 -20 -20 -20 -20 -20 -20 -20 -20 -20 -20 -20 -20 -20 -20 -20 -20 -20 -20 -20 -20 -20 -20 -20 -20 -20 -20 -20 -20 -20 -20 -20 -20 -20 1 -15 -20 -20 -20

GFSSW_prec_radar_024.txt.gz
Reflectivity
-4 3 9 16 24 9 -0 -0 -17 -20 -20 -0 -20 -15 24 16 -1 -2 -19 -20 -20 -20 -20 -20 -15 -20 -20 -20 -20 -20 -20 -20 -20 -20 -20 -20 -20 -20 -20 -20 -20 -20 -20 -20 -20
19 -20 -20 -12 -20 25 25 26 2 -20 -20 -14 -13 -20 20 24 16 -14 -20 -19 -20 -20 11 -20 -18 -20 -20 -20 -20 -20 -20 -20 -20 -20 -20 -20 -20 -20 -20 -20 -20 -20 -20 -20 -20
-20 -10 -3 11 -14 20 23 29 22 -20 -20 -20 -20 -20 -17 30 -1 -20 -20 -3 -20 -20 13 -20 -20 -20 -20 -20 -20 -20 -20 -20 -20 -20 -20 -20 -20 -20 -20 -20 -20 -20 -20 -20 -20
18 7 -5 -1 17 3 24 23 22 -11 -20 -20 -20 -20 -20 31 16 -20 -20 -20 -20 -20 14 5 -20 -20 -20 -20 -20 -20 -20 -20 -20 -20 -20 -20 -20 -20 -20 -20 -20 -20 -20 -20 -20
9 2 13 -5 -10 -14 -20 -20 21 10 -19 -20 -20 -20 -11 15 23 22 -20 3 -20 2 2 14 -20 -20 -20 -20 -20 -20 -20 -20 -20 -20 -20 -20 -20 -20 -20 -20 -20 -20 -20 -20 -20
10 13 -20 -19 1 -15 -5 22 -3 -20 -20 -13 -20 4 14 12 6 -2 -6 10 -20 10 -5 -20 -20 -20 -20 -20 -20 -20 -20 -20 -20 -20 -20 -20 -20 -20 -20 -20 -20 -20 -20 -20 -20
-2 19 6 -10 19 -13 9 -3 17 -0 5 17 2 -6 21 -8 -13 2 -20 -8 -20 -10 10 -20 -20 -20 -20 -20 -20 -20 -20 -20 -20 -20 -20 -20 -20 -20 -20 -20 -20 -20 -20 -20 -20
-10 -15 -20 -20 -20 -18 -9 -0 1 -9 7 8 4 13 13 14 23 -7 2 27 25 25 -20 -20 -20 -20 -20 -20 -20 -20 -20 -20 -20 -20 -20 -20 -20 -20 -20 -20 -20 -20 -20 -20 -20
20 11 -20 -13 -20 -20 -20 -13 -19 -7 11 14 8 -15 8 -20 15 18 16 18 28 31 22 10 -5 -4 -20 -20 -20 -20 -20 -20 -20 -20 -20 -20 -20 -20 -20 -20 -20 -20 -20 -20 -20
24 -19 -6 8 -1 -17 -20 -20 -20 -20 -17 -17 -8 14 -5 -20 -4 -14 12 19 8 27 26 11 18 14 -20 -20 -20 -20 -20 -20 -20 -20 -20 -20 -20 -20 -20 -20 -20 -20 -20 -20 -20
21 7 -5 -7 16 -18 -20 -20 -20 -20 -20 -20 -20 25 -4 11 -5 24 20 15 33 45 23 9 13 9 -20 -20 -20 -20 -20 -20 -20 -20 -20 -20 -20 -20 -20 -20 -20 -20 -20 -20 -20
-13 -9 25 12 26 -14 -20 -20 -11 17 -19 -8 -20 25 14 33 -15 -10 22 22 11 30 33 25 10 -18 -20 -20 -20 -20 -20 -20 -20 -20 -20 -20 -20 -20 -20 -20 -20 -20 -20 -20 -20
26 1 22 6 22 8 4 -20 -20 -20 -15 1 11 21 18 10 8 -15 22 23 10 12 26 -6 3 -20 -20 -20 -4 -20 -20 -20 -20 -20 -20 -20 -20 -20 -20 -20 -20 -20 -20 -20 -20
24 24 9 22 -20 -11 -20 -20 -9 -20 -20 -19 24 29 8 -9 -13 3 38 24 41 22 11 19 11 33 12 -1 -7 -20 -20 -20 -20 -20 -20 -20 -20 -20 -20 -20 -20 -20 -20 -20 -20
-17 -20 22 -15 -20 34 -14 -20 -20 -20 -20 7 19 21 29 -20 -18 2 42 24 14 14 39 13 35 7 -9 23 7 -20 -20 -20 -20 -20 -20 -20 -20 -20 -20 -20 -20 -20 -20 -20 -20
6 -20 -11 -12 -13 -3 -20 -20 -20 -20 -15 -2 24 16 6 -20 -20 -16 -6 -6 -8 -20 22 29 9 19 2 14 -15 -20 -20 -20 -20 -20 -20 -20 -20 -20 -20 -20 -20 -20 -20 -20 -20
-13 -20 -20 -20 -19 -20 -20 -20 -18 -19 13 26 32 -8 -20 7 -7 -16 10 9 -13 4 19 -20 -20 9 -20 -20 -20 -20 -20 -20 -20 -20 -20 -20 -20 -20 -20 -20 -20 -20 -20 -20 -20
-20 -20 -20 -20 -20 -20 -20 -10 -9 -12 -3 17 2 -19 -20 10 -8 20 -11 -20 -20 -20 -20 4 -19 -20 -20 -20 -20 -20 -20 -20 -20 -20 -20 -20 -20 -20 -20 -20 -20 -20 -20 -20 -20
-20 -20 -20 -20 -20 -20 -20 -20 2 25 35 18 -18 -16 -18 -20 18 12 -20 -20 -20 -20 -20 -20 -20 -20 -20 -20 -20 -20 -20 -20 -20 -20 -20 -20 -20 -20 -20 -20 -20 -20 -20 -20 -20
-20 -20 -20 -20 -20 -20 -20 1 -3 5 -20 -20 -20 -20 -20 -17 -20 -20 -20 -20 -20 -20 -20 -20 -20 -20 -20 -20 -20 -20 -20 -20 -20 -20 -20 -20 -20 -20 -20 -20 -20 -20 -20 -20 -20
-20 -20 -20 -20 -20 -20 2 11 7 -6 -20 -20 -20 -20 -20 -20 -20 -20 -20 -20 -20 -20 -20 -20 -20 -20 -20 -20 -20 -20 -20 -20 -20 -20 -20 -20 -20 -20 -20 -20 -20 -20 -20 -20 -20
-20 -20 -20 -20 -20 -20 -20 -20 -20 -20 -20 -20 -20 -20 -20 -20 -20 -20 -20 -20 -20 -20 -20 -20 -20 -20 -20 -20 -20 -20 -20 -20 -20 -20 -20 -20 -20 -20 -20 -20 -20 -20 -20 -20 -20
-20 -20 -20 -20 -15 -20 -20 -20 -20 -20 -20 -20 -20 -20 -20 -20 -20 -20 -20 -20 -20 -20 -20 -20 -20 -20 -20 -20 -20 -20 -20 -20 -20 -20 -20 -20 -20 -20 -20 -20 -20 -20 -20 -20 -20
-20 -20 -20 -20 -20 -20 -20 -20 -20 -20 -20 -20 -20 -20 -20 -20 -20 -20 -20 -20 -20 -20 -20 -20 -20 -20 -20 -20 -20 -20 -20 -20 -20 -20 -20 -20 -20 -20 -20 -20 -17 -20 -10 -20 -20
-20 -20 -20 -20 -20 -20 -20 -20 -20 -20 -20 -20 -20 -20 -20 -20 -20 -20 -20 -20 -20 -20 -20 -20 -20 -20 -20 -20 -20 -20 -20 -20 -20 -20 -20 -20 -20 -20 -20 -20 -20 -16 -4 -20 -20
-20 -19 -20 -20 -20 -20 -20 -20 -20 -20 -20 -20 -20 -20 -20 -20 -20 -20 -20 -20 -20 -20 -20 -20 -20 -20 -20 -20 -20 -20 -20 -20 -20 -20 -20 -20 -20 -20 -20 -20 -20 -9 -20 -20 -20
-20 -6 6 -20 -20 -20 -20 -20 -20 -20 -20 -20 -20 -20 -20 -20 -20 -20 -20 -20 -20 -20 -20 -20 -20 -20 -20 -20 -20 -20 -20 -20 -20 -20 -20 -20 -20 -20 -20 -20 -20 -20 -20 -20 -20

GFSSW_prec_radar_027.txt.gz
Reflectivity
-12 13 -8 -20 -20 -0 -5 22 22 -20 -20 -20 -16 -13 -15 25 30 -8 6 -20 -19 -17 -3 -20 -20 -20 -20 -20 -20 -20 -20 -20 -20 -20 -20 -20 -20 -20 -20 -20 -20 -20 -20 -20 -20
-20 -3 -4 13 -9 -9 -4 -20 20 13 -20 -20 -20 -20 -20 17 30 6 -20 -20 -6 -20 -18 -20 -1 -20 -20 -20 -20 -20 -20 -20 -20 -20 -20 -20 -20 -20 -20 -20 -20 -20 -20 -20 -15
-20 -20 9 18 16 20 -3 14 -20 -20 -16 2 -20 -20 -8 14 16 -14 -20 -20 -20 -20 -20 -20 -14 -20 -20 -20 -20 -20 -20 -20 -20 -20 -20 -20 -20 -20 -20 -20 -20 -20 -20 -20 -20
-18 -20 -19 -5 -5 15 -7 -14 13 24 8 20 -1 -19 -5 11 31 -2 -15 -20 -20 -20 11 -13 10 5 -20 -20 -20 -20 -20 -20 -20 -20 -20 -20 -20 -20 -20 -20 -20 -20 -20 -20 -20
-19 10 12 6 -6 1 -2 7 -2 -17 25 6 3 2 7 14 16 16 12 9 -20 -20 11 -3 -20 -18 -20 -20 -20 -20 -20 -20 -20 -20 -20 -20 -20 -20 -20 -20 -20 -20 -20 -20 -20
-15 -20 25 -13 -7 -1 15 6 -4 -20 -12 -12 5 15 14 15 -5 9 -20 -12 -20 9 8 13 -18 -20 -20 -20 -20 -20 -20 -20 -20 -20 -20 -20 -20 -20 -20 -20 -20 -20 -20 -20 -20
19 23 -15 17 3 7 -19 -20 -19 -20 -5 -16 13 6 14 -18 -6 22 -20 -9 -20 1 10 10 -20 -20 -20 -20 -20 -20 -20 -20 -20 -20 -20 -20 -20 -20 -20 -20 -20 -20 -20 -20 -20
16 27 30 -10 -2 -2 2 1 -20 -12 -19 -20 7 11 -16 -17 -16 32 23 -18 19 22 3 4 -20 -20 -20 -20 -20 -20 -20 -20 -20 -20 -20 -20 -20 -20 -20 -20 -20 -20 -20 -20 -20
-2 2 14 20 3 -20 -13 -3 -20 -3 2 1 -13 -1 -8 15 -20 -19 -5 -15 25 21 24 23 6 -2 -20 -20 -20 -20 -20 -20 -20 -20 -20 -20 -20 -20 -20 -20 -20 -20 -20 -20 -20
25 26 20 25 -19 14 -20 -20 -20 -20 26 -20 -20 4 -20 -20 -20 -20 -20 4 24 12 28 29 13 12 -5 -10 -20 -20 -20 -20 -20 -20 -20 -20 -20 -20 -20 -20 -20 -20 -20 -20 -20
25 18 14 19 -11 -20 -20 -20 -20 -20 -20 -20 -20 -20 14 12 -6 26 -18 34 25 23 36 18 3 -20 -7 -20 -20 -20 -20 -20 -20 -20 -20 -20 -20 -20 -20 -20 -20 -20 -20 -20 -20
20 22 35 25 -20 -20 9 -20 -16 -20 -20 -20 -20 27 -9 22 11 -20 19 24 36 35 34 21 12 -13 -20 -20 -20 -20 -20 -20 -20 -20 -20 -20 -20 -20 -20 -20 -20 -20 -20 -20 -20
15 3 16 8 -20 -20 -20 -20 -20 -20 1 17 22 4 19 25 -6 -15 39 42 34 37 28 14 0 -19 -20 0 -20 -20 -20 -20 -20 -20 -20 -20 -20 -20 -20 -20 -20 -20 -20 -20 -20
4 -16 18 -20 -20 -20 -20 -20 -20 -20 -20 1 13 29 22 12 12 -9 41 37 27 32 36 29 20 13 1 0 -20 -20 -20 -20 -20 -20 -20 -20 -20 -20 -20 -20 -20 -20 -20 -20 -20
-2 -12 -20 -20 -20 -20 -20 -20 -20 -20 -20 -20 27 22 15 10 -20 -2 12 1 26 23 29 25 18 6 3 -9 -20 -20 -20 -20 -20 -20 -20 -20 -20 -20 -20 -20 -20 -20 -20 -20 -20
-20 -20 -10 -20 -12 -20 -20 -20 -20 -20 -6 -4 26 28 2 8 -12 6 18 23 13 37 33 24 39 29 37 -1 8 -20 -20 -20 -20 -20 -20 -20 -20 -20 -20 -20 -20 -20 -20 -20 -20
-20 -20 -20 -20 -20 -20 -20 -20 -20 -20 -1 32 27 -1 7 14 -8 36 37 23 23 16 8 8 3 24 27 6 11 -20 -20 -20 -20 -20 -20 -20 -20 -20 -20 -20 -20 -20 -20 -20 -20
-20 -20 -20 -20 -20 -20 -20 -20 -20 -15 6 20 -9 7 -6 3 5 -14 -11 -20 -20 -18 11 -20 -12 18 -5 -20 -20 -20 -20 -20 -20 -20 -20 -20 -20 -20 -20 -20 -20 -20 -20 -20 -20
-20 -20 -20 -20 -20 -20 -20 -20 -17 -7 21 -1 -4 -20 3 -20 3 -19 -20 -20 -20 -20 -20 -11 -20 -20 -20 -20 -20 -20 -20 -20 -20 -20 -20 -20 -20 -20 -20 -20 -20 -20 -20 -20 -20
-20 -20 -20 -20 -20 -20 -20 9 12 -1 -20 -20 -20 -20 -20 4 -16 -20 -20 -20 -20 -20 -20 -20 -20 -20 -20 -20 -20 -20 -20 -20 -20 -20 -20 -20 -20 -20 -20 -20 -20 -20 -20 -20 -20
-20 -20 -20 -20 -20 -20 -6 -18 -14 -20 -20 -20 -20 -20 -20 -20 -20 -20 -20 -20 -20 -20 -20 -20 -20 -20 -20 -20 -20 -20 -20 -20 -20 -20 -20 -20 -20 -20 -20 -20 -20 -20 -20 -20 -20
-20 -20 -20 -20 -20 -20 -20 -20 -20 -20 -20 -20 -20 -20 -20 -20 -20 -20 -20 -20 -20 -20 -20 -20 -20 -20 -20 -20 -20 -20 -20 -20 -20 -20 -20 -20 -20 -20 -20 -20 -20 -20 -20 -20 -20
-20 -20 -20 -20 -20 -20 -15 -20 -20 -20 -20 -20 -20 -20 -20 -20 -20 -20 -20 -20 -20 -20 -20 -20 -20 -20 -20 -20 -20 -20 -20 -20 -20 -20 -20 -20 -20 -20 -20 -20 -20 -20 -20 -20 -20
-20 -20 -20 -20 -20 -20 -20 -20 -20 -20 -20 -20 -20 -20 -20 -20 -20 -20 -20 -20 -20 -20 -20 -20 -20 -20 -20 -20 -20 -20 -20 -20 -20 -20 -20 -20 -20 -20 -20 -20 -20 -20 -20 -20 -20
-20 -18 -16 -20 -20 -20 -20 -20 -20 -20 -20 -20 -20 -20 -20 -20 -20 -20 -20 -20 -20 -20 -20 -20 -20 -20 -20 -20 -20 -20 -20 -20 -20 -20 -20 -20 -20 -20 -20 -20 -20 -20 -20 -20 -20
-20 -20 -20 -20 -20 -20 -20 -20 -20 -20 -20 -20 -20 -20 -20 -20 -20 -20 -20 -20 -20 -20 -20 -20 -20 -20 -20 -20 -20 -20 -20 -20 -20 -20 -20 -20 -20 -20 -20 -20 -20 -20 -20 -20 -20
-20 -20 -17 -20 -20 -20 -20 -20 -20 -20 -20 -20 -20 -20 -20 -20 -20 -20 -20 -20 -20 -20 -20 -20 -20 -20 -20 -20 -20 -20 -20 -20 -20 -20 -20 -20 -20 -20 -20 -20 -20 -20 -20 -20 -20

GFSSW_prec_radar_030.txt.gz
Reflectivity
-20 -20 -12 -20 -1 -8 -8 -8 -20 23 16 -20 -20 -20 -20 -20 4 28 10 -20 -20 -0 -18 -17 -9 14 -20 -20 -20 -20 -20 -20 -20 -20 -20 -20 -20 -20 -20 -20 -20 -20 -20 -20 -20
-20 10 -20 -11 -8 11 12 -12 -20 -20 25 -15 -20 -20 -20 1 -20 -10 29 -19 -20 -20 15 -15 5 16 -20 -20 -20 -20 -20 -20 -20 -20 -20 -20 -20 -20 -20 -20 -20 -20 -20 -20 -20
15 -20 -20 21 -20 -13 -20 -15 -9 23 -15 -20 19 -20 -20 -20 4 5 35 8 -18 -3 3 -20 12 12 -20 -20 -20 -20 -20 -20 -20 -20 -20 -20 -20 -20 -20 -20 -20 -20 -20 -20 -20
14 -8 20 25 7 4 -20 -19 -12 -15 -15 -8 9 -20 -20 -19 7 -20 -10 31 -18 -20 4 4 13 15 1 -20 -20 -20 -20 -20 -20 -10 -19 -20 -20 -20 -20 -20 -20 -20 -20 -20 -20
20 4 -8 -2 9 -20 -20 -20 -17 -20 -20 -20 -20 -20 -20 1 -15 -17 -7 8 15 -14 12 9 -7 7 5 -20 -20 -20 -20 -20 -20 -18 -20 -20 -20 -20 -20 -20 -20 -20 -20 -20 -20
18 -12 -12 19 21 6 -20 -20 -20 -20 -20 -20 -20 -20 -20 -20 -20 -7 25 15 12 -10 12 10 -20 4 4 -20 -20 -20 -20 -20 -20 -20 -20 -20 -20 -20 -20 -20 -20 -20 -20 -20 -20
3 19 20 21 32 20 12 6 -20 -1 -17 -20 -19 -19 -0 -20 6 19 27 37 27 -20 2 8 -20 9 -20 -20 -20 -20 -20 5 -17 -20 -20 -20 -20 -20 -20 -20 -20 -20 -20 -20 -20
17 16 15 4 -14 3 -3 2 -20 -16 6 11 19 6 -16 -20 -20 9 2 9 17 4 13 20 2 -20 -20 -20 -20 -20 -20 -1 -3 -20 -20 -20 -20 -20 -20 -20 -20 -20 -20 -20 -20
22 26 -6 -3 19 -20 -20 -20 -3 11 10 -18 3 -1 -20 -11 -3 30 18 -17 18 16 23 21 -4 -4 -20 -20 -20 -20 -20 -20 -20 -20 -20 -20 -20 -20 -20 -20 -20 -20 -20 -20 -20
5 20 -20 -20 -20 -6 16 -20 -20 -20 -13 12 6 2 -20 -13 13 -2 -20 -7 23 19 24 23 26 7 -2 -20 -20 -20 -20 -20 -20 -20 -20 -20 -20 -20 -20 -20 -20 -20 -20 -20 -20
19 5 -20 -20 -20 -20 -20 -20 -20 -20 -20 -20 -20 -20 -18 20 -20 -20 -20 0 17 23 14 2 16 4 -20 -20 -20 -20 -19 -20 -20 -20 -20 -20 -20 -20 -20 -20 -20 -20 -20 -20 -20
8 -20 -20 -20 -20 -20 -20 -20 -20 -20 -20 -20 -17 3 -20 -20 8 -1 29 28 29 12 13 17 11 9 -20 -20 -20 -20 -20 -13 -20 -20 -20 -20 -20 -20 -20 -20 -20 -20 -20 -20 -20
13 -20 -20 -20 -20 -20 -20 -20 -20 -20 5 22 19 -13 -20 2 24 8 -7 35 31 20 11 4 9 -20 -20 -20 -10 -20 -20 -15 -20 -20 -20 -20 -20 -20 -20 -20 -20 -20 -20 -20 -20
-18 -20 -20 -20 -20 -20 -20 -13 -20 -20 22 14 32 18 10 -7 24 24 37 37 32 34 9 33 19 2 -20 -10 -20 -20 -20 -20 -20 -20 -20 -20 -20 -20 -20 -20 -20 -20 -20 -20 -20
-20 -20 -20 -20 -20 -20 -13 -1 1 -20 -17 20 30 27 18 18 12 16 30 17 21 36 32 30 18 12 8 -20 -20 -8 -20 -20 -20 -20 -20 -20 -20 -20 -20 -20 -20 -20 -20 -20 -20
-20 -20 -20 -20 -20 -20 -20 -20 -20 -20 -6 22 27 16 19 10 3 24 33 35 25 26 31 24 20 21 -9 -20 -6 -20 -20 -20 -20 -20 -20 -20 -20 -20 -20 -20 -20 -20 -20 -20 -20
-20 -20 -20 -20 -20 -20 -20 -20 -20 -16 12 28 12 24 -16 2 -1 -11 34 32 11 18 30 34 34 7 25 3 -14 -20 -20 -3 -20 -20 -20 -20 -20 -20 -20 -20 -20 -20 -20 -20 -20
-20 -20 -20 -20 -20 -20 -20 -20 -20 -9 21 -15 1 5 5 -15 35 27 11 7 8 16 12 16 17 34 39 16 17 -20 -20 -20 -20 -20 -20 -20 -20 -20 -20 -20 -20 -20 -20 -20 -20
-20 -20 -20 -20 -20 -20 -20 -20 -18 -14 -20 7 -20 -20 7 -20 -14 -20 -20 -18 -20 10 -4 1 -19 7 17 9 5 -18 -20 -20 -20 -20 -20 -20 -20 -20 -20 -20 -20 -20 -20 -20 -20
-20 -20 -20 -20 -20 -20 -20 -3 -7 -20 -20 -20 -20 -20 -11 -4 -20 -20 -20 -20 -20 -20 -20 -20 -20 -20 -1 -20 -20 -20 -20 -20 -20 -20 -20 -20 -20 -20 -20 -20 -20 -20 -20 -20 -20
-20 -20 -20 -20 -20 -20 -10 -13 7 -12 -20 -20 -20 -20 -20 -20 -20 -20 -20 -20 -20 -20 -20 -20 -20 -20 -20 -20 -20 -20 -20 -20 -20 -20 -20 -20 -20 -20 -20 -20 -20 -20 -20 -20 -20
-20 -20 -20 -20 -20 -20 -19 -20 -20 -20 -20 -20 -20 -20 -20 -20 -20 -20 -20 -20 -20 -20 -20 -20 -20 -19 -20 -20 -20 -20 -20 -20 -20 -20 -20 -20 -20 -20 -20 -20 -20 -20 -20 -20 -20
-20 -20 -20 -20 -20 -20 -20 -20 -20 -20 -20 -20 -20 -20 -20 -20 -20 -20 -20 -20 -20 -20 -20 -20 -20 -20 -17 -20 -20 -20 -20 -20 -20 -20 -20 -20 -20 -20 -20 -20 -20 -20 -20 -20 -20
-20 -20 -20 -20 -20 -20 -20 -20 -20 -20 -20 -20 -20 -20 -20 -20 -20 -20 -20 -20 -20 -20 -20 -20 -20 -20 -20 -20 -20 -20 -20 -20 -20 -20 -20 -20 -20 -20 -20 -20 -20 -20 -20 -20 -20
-20 -20 -20 -20 -20 -20 -20 -20 -20 -20 -20 -20 -20 -20 -20 -20 -20 -20 -20 -20 -20 -20 -20 -20 -20 -20 -20 -20 -20 -20 -20 -20 -20 -20 -20 -20 -20 -20 -20 -20 -20 -20 -20 -20 -20
-20 -20 -20 -20 -20 -20 -20 -20 -20 -20 -20 -20 -20 -20 -20 -20 -20 -20 -20 -20 -20 -20 -20 -20 -20 -20 -20 -20 -20 -20 -20 -20 -20 -20 -20 -20 -20 -20 -20 -20 -20 -20 -20 -20 -20
-20 -20 -14 -20 -20 -20 -20 -20 -20 -20 -20 -20 -20 -20 -20 -20 -20 -20 -20 -20 -20 -20 -20 -20 -20 -20 -20 -20 -20 -20 -20 -20 -20 -20 -20 -20 -20 -20 -20 -20 -20 -20 -20 -20 -20

GFSSW_prec_radar_033.txt.gz
Reflectivity
16 12 10 -19 3 -20 -8 -5 -6 -20 3 23 0 -20 -20 -18 -20 12 9 -5 -20 -20 -20 -20 -9 -5 -20 -20 6 -15 9 -14 -20 -20 -20 -20 -20 -20 -20 -20 -20 -20 -20 -20 -20
4 8 11 16 -1 3 -20 22 3 25 19 23 8 -20 -20 -20 -20 -20 -20 17 -20 -20 5 -20 -20 7 -20 -12 -4 -20 -7 -20 -20 -20 -20 -20 -20 -20 -20 -20 -20 -20 -20 -20 -20
15 16 -15 17 -15 -20 -20 -20 14 -20 17 26 3 -20 -20 -20 -20 -20 -2 10 -12 -20 -16 -20 -20 -19 -13 -9 -11 -19 -20 -20 -20 -20 -20 -20 -20 -20 -20 -20 -20 -20 -20 -20 -20
4 -5 -4 21 13 -20 -17 -17 -9 -14 -20 17 9 -6 -20 -20 -20 -20 -20 -13 -20 -19 -17 -15 -8 25 2 -9 -20 -20 -20 -20 -20 -20 0 -19 -20 -20 -20 -20 -20 -20 -20 -20 -20
21 13 4 17 -17 -20 -7 21 3 -20 -20 -20 4 -4 -20 -20 -20 11 -20 24 -7 2 8 8 -20 3 10 -20 -20 -20 -20 -20 -20 -4 -4 -14 -20 -20 -20 -20 -20 -20 -20 -20 -20
18 22 1 -20 -8 18 25 26 -8 -20 -20 5 -11 -20 -20 -7 -20 -20 -11 -20 23 23 -20 -20 -20 -20 -20 -20 -20 -20 -20 -20 -20 8 -9 -20 -20 -20 -20 -20 -20 -20 -20 -20 -20
5 24 28 -19 -20 -20 27 21 -20 -13 -20 -20 -6 -12 7 -20 -20 -20 11 -20 18 38 -20 -20 -20 -20 -20 -20 -20 -20 -20 -20 -20 10 -20 -20 -20 -20 -20 -20 -20 -20 -20 -20 -20
21 16 22 25 20 -20 18 -20 -20 -20 -20 -20 -20 -1 -7 -20 -20 -20 16 -20 -20 27 -15 -8 -20 -20 -20 -20 -20 -20 -20 -9 -20 10 -17 -20 -20 -20 -20 -20 -20 -20 -20 -20 -20
10 17 11 19 -20 -20 -20 -20 -20 -3 -20 -20 -5 6 -9 -20 -20 -20 12 -9 6 24 -20 -5 -10 -20 -20 4 8 -17 -20 -16 -20 6 -19 -20 -20 -20 -20 -20 -20 -20 -20 -20 -20
16 -16 11 -20 -20 -20 -20 -20 -20 -20 -18 -5 9 9 -20 -15 -20 -20 -0 5 16 17 21 22 15 -4 -1 -20 -20 -20 -20 -20 -17 -20 -20 -20 -20 -20 -20 -20 -20 -20 -20 -20 -20
3 -7 -2 -20 -20 -20 -20 -20 5 16 20 17 -20 -16 22 12 28 26 0 38 43 11 19 22 12 13 -20 -20 -20 -20 -20 -20 2 -20 -20 -20 -20 -20 -20 -20 -20 -20 -20 -20 -20
-20 -20 -20 -20 -20 -20 -20 10 -20 -13 -12 -20 -20 -20 22 8 30 32 36 41 12 14 4 -1 6 -20 -20 -20 -20 -20 -20 -20 -2 -19 -20 -18 -20 -20 -20 -20 -20 -20 -20 -20 -20
-20 -20 -20 -20 -20 -20 -20 -12 -8 -13 14 -4 17 -20 10 17 27 19 20 44 4 10 14 11 -10 -19 -20 -20 -20 -20 -20 -20 -20 -20 -20 -20 -20 -20 -20 -20 -20 -20 -20 -20 -20
-4 -20 -20 -20 -20 -14 -3 -1 -19 -20 19 5 -2 -13 10 26 33 22 14 9 29 8 7 1 -17 13 -16 -17 -20 -20 -20 -20 -20 -11 -20 -20 -20 -20 -20 -20 -20 -20 -20 -20 -20
-2 -20 -20 -20 -20 -20 -20 -20 -20 4 23 26 12 2 14 25 13 8 19 30 32 -15 32 14 -16 4 0 -20 -20 -18 -20 -20 -20 -20 -19 -20 -20 -20 -20 -20 -20 -20 -20 -20 -20
-14 -20 -20 -20 -20 -20 -20 -20 -18 1 19 27 29 28 21 21 -2 12 18 29 34 28 1 9 26 24 18 10 -20 -20 -20 -20 -20 -20 -20 -20 -20 -20 -20 -20 -20 -20 -20 -20 -20
11 -20 -20 -20 -20 -20 -20 -20 -9 0 12 15 12 22 7 -0 18 30 36 34 36 33 32 26 31 31 17 9 -8 -20 -19 8 5 -7 -20 -20 -20 -20 -20 -20 -20 -20 -20 -20 -20
-20 -18 -20 -20 -20 -20 -20 -19 3 -5 -0 -17 -12 -12 15 -17 10 13 29 31 29 22 30 34 25 26 -9 -20 -20 -18 3 9 -8 -20 -20 -20 -20 -20 -20 -20 -20 -20 -20 -20 -20
-20 -20 -20 -20 -20 -20 -20 -20 -1 -19 -20 3 -11 -12 21 2 -9 11 2 -7 12 16 22 5 10 17 31 6 -19 -7 -20 -20 -20 -20 -20 -20 -20 -20 -20 -20 -20 -20 -20 -20 -20
-20 -20 -20 -20 -20 -20 -17 0 0 -20 -11 -20 3 -16 -20 -20 -16 -2 7 -20 -20 -12 12 2 1 2 23 28 13 -19 -20 -16 -20 -20 -20 -20 -20 -20 -20 -20 -20 -20 -20 -20 -20
-20 -20 -20 -20 -20 -9 -20 11 -2 -20 -20 -20 -20 -20 -20 -20 -20 -20 -20 -20 -20 -20 -20 -20 -20 0 12 4 -6 -4 12 2 -20 -20 -20 -20 -20 -20 -20 -20 -20 -20 -20 -20 -20
-20 -2 -20 -20 -20 -19 4 -20 -14 -16 -20 -20 -20 -20 -3 -19 -6 -20 -20 -20 -20 -20 -20 -20 -20 -2 -4 -20 -20 -20 -20 -20 -20 -20 -20 -20 -20 -20 -20 -20 -20 -20 -20 -20 -20
-20 -20 -20 -20 -2 -20 -20 -20 -20 -20 -20 -20 -20 -20 -20 -20 -10 -20 -20 -20 -20 -20 -20 -20 -20 -9 -20 -16 -20 -20 -20 -20 -20 -20 -20 -20 -20 -20 -20 -20 -20 -20 -20 -20 -20
-19 -15 -20 -20 -20 -20 -20 -20 -20 -20 -20 -20 -20 -20 -20 -20 -20 -20 -20 -20 -20 -20 -20 -20 -20 -20 -20 -20 -20 -20 -20 -20 -20 -20 -20 -20 -20 -20 -20 -20 -20 -20 -20 -20 -20
-20 -20 -20 -4 -20 -20 -20 -20 -20 -20 -20 -20 -20 -20 -20 -20 -20 -20 -20 -20 -20 -20 -20 -20 -20 -20 -20 -20 -20 -20 -20 -20 -20 -20 -20 -20 -20 -20 -20 -20 -20 -20 -20 -20 -20
-20 3 -20 -20 -20 -20 -20 -20 -20 -20 -20 -20 -20 -20 -20 -20 -20 -20 -20 -20 -20 -20 -20 -20 -20 -20 -20 -20 -20 -20 -20 -20 -20 -20 -20 -20 -20 -20 -20 -20 -20 -20 -20 -20 -20
-20 -20 -6 -20 -20 -20 -20 -20 -20 -20 -20 -20 -20 -13 -15 -20 -20 -20 -20 -20 -20 -20 -20 -20 -20 -20 -20 -20 -20 -20 -20 -20 -20 -20 -20 -20 -20 -20 -20 -20 -20 -20 -20 -20 -20

GFSSW_prec_radar_036.txt.gz
Reflectivity
10 5 2 8 19 6 -17 -20 -19 18 -16 -19 -2 20 -20 -20 -0 -20 12 8 -20 -20 -20 -20 -10 -10 6 10 7 14 23 23 -20 -2 -20 -17 -17 -20 -20 -20 -20 -20 -20 -20 -16
11 19 1 -10 1 -18 21 -5 5 -20 21 1 -20 22 4 -20 -20 -20 -20 -11 -20 -20 -20 -20 -20 5 0 -0 12 21 20 -15 -12 -20 12 12 20 -20 -20 -20 -20 -20 -20 -20 -20
-16 12 17 26 -10 -15 -20 -14 20 -5 -7 -12 -1 20 -20 -1 -20 -20 -20 -20 -4 7 -20 -20 -20 -7 3 -6 1 -1 -20 -2 26 25 24 19 -2 -20 -20 -20 -20 -20 -20 -20 -20
8 21 24 22 -19 -15 -16 -3 -8 -20 23 -20 -20 24 23 -20 -11 -5 -20 -20 3 -19 18 -20 -20 9 11 -11 -16 -8 -15 10 10 33 29 -14 5 -20 -20 -20 -20 -20 -20 -20 -20
11 14 11 26 18 -12 3 21 23 -20 23 6 0 23 24 -20 -14 -20 -20 -20 -18 5 -20 4 -20 0 -19 -16 -20 -20 5 10 7 14 -20 -20 -20 -20 -20 -20 -20 -20 -20 -20 -20
12 12 6 9 19 -20 -20 10 4 15 -14 -20 -9 -3 -19 -1 -20 -20 -1 4 8 28 -20 -2 -20 -20 -6 -20 -20 -20 6 12 11 -20 -17 -0 -18 -20 -20 -20 -20 -20 -20 -20 -20
25 10 5 21 10 -20 -20 9 22 24 14 -20 -20 -20 -8 -20 -20 -20 -20 24 2 -8 -12 -20 -20 -20 -20 10 -19 -20 -6 -6 6 -20 0 10 -10 -20 -20 -20 -20 -20 -20 -20 -20
14 4 -16 -13 -20 -20 -20 -20 -20 -20 -20 -20 -20 -18 -18 -20 -20 -20 -20 -7 -20 -18 -20 -19 -20 -20 -20 -20 -17 -9 -20 -7 -5 -20 -1 -7 -20 -20 -20 -20 -20 -20 -20 -20 -20
4 9 -20 -20 -20 -20 -20 -20 -20 -20 -20 -20 -20 -9 -20 -20 -20 -20 -20 18 14 -8 14 -1 -2 -20 16 6 12 -4 -20 -20 -20 -20 -7 -14 -20 -20 -20 -20 -20 -20 -20 -20 -20
-19 -20 -20 -20 -20 -20 -20 -20 -20 -20 -20 -20 -20 11 -20 -20 -20 -20 -20 7 6 23 26 37 33 9 16 18 -14 -19 -20 -20 -20 -5 -20 -20 -20 -20 -20 -20 -20 -20 -20 -20 -20
-20 -20 -20 -20 -20 -20 -20 -20 13 -9 -1 7 2 -20 -20 -20 -20 -20 12 24 -16 27 20 36 1 2 -20 -20 -20 -20 -20 -20 -20 -20 -20 -20 -20 -20 -20 -20 -20 -20 -20 -20 -20
-20 -20 -20 -20 -20 -20 -15 -20 -13 -17 -3 -20 -20 -20 -20 4 17 23 19 19 1 34 7 4 26 -20 -14 -20 -20 -20 -20 -20 -20 -20 -20 -20 -20 -20 -20 -20 -20 -20 -20 -20 -20
6 -20 -20 -20 -20 8 -4 -14 -17 -20 26 -6 -11 8 20 23 15 -4 -7 9 9 32 21 -15 5 -20 -20 -20 -20 -20 -20 -20 -20 -20 -20 -20 -20 -20 -20 -20 -20 -20 -20 -20 -20
6 -8 -20 -20 -20 -19 9 4 -11 -8 22 -2 20 18 35 40 35 40 38 34 33 22 16 21 -9 -14 -12 -20 -20 -20 -20 -20 -20 -20 -20 -15 -20 -20 -20 -20 -20 -20 -20 -20 -20
15 -19 -15 -20 -20 -20 -20 -20 -20 -18 10 -14 1 16 33 39 34 36 28 -16 -6 25 18 2 -6 12 17 -7 -12 -20 -20 -20 -20 -20 -20 -20 -20 -20 -20 -20 -20 -20 -20 -20 -20
14 13 -20 -20 -13 -20 -20 -20 -20 -17 3 21 -2 -1 20 -10 8 21 -1 -3 -20 -18 -20 16 4 15 7 -11 8 -17 -20 -20 -20 -20 -20 -20 -20 -20 -20 -20 -20 -20 -20 -20 -20
-6 9 -13 -20 -15 -20 -20 -20 -20 -14 -13 15 12 18 3 -7 7 12 -4 0 32 7 8 -15 -9 -10 -18 -20 6 16 -12 -8 9 -19 -20 -20 -20 -20 -20 -20 -20 -20 -20 -20 -20
-20 -20 -20 -20 -20 -20 -20 -6 -20 -10 -5 -15 19 -17 -20 1 -12 14 33 31 24 6 18 12 17 6 -1 -20 -13 -17 -20 -15 -20 -18 -20 -20 -20 -20 -20 -20 -20 -20 -20 -20 -20
-20 -20 -20 -20 -20 -20 -20 -20 -20 -20 -20 -2 -6 -1 -20 -12 -19 21 25 28 28 28 24 17 19 29 23 16 19 22 -20 -20 -20 -20 -20 -20 -20 -20 -20 -20 -20 -20 -20 -20 -20
-20 -20 -20 -20 -20 -20 -20 -20 -20 -20 -20 -20 -11 -20 -3 -20 -10 2 3 20 12 16 -4 -5 -3 25 33 -1 -16 -20 -20 -20 -20 -20 -20 -20 -20 -20 -20 -20 -20 -20 -20 -20 -20
-20 -20 -20 -20 -20 -20 -20 -15 -20 -20 -20 -20 -9 -20 -20 -20 -20 -13 -20 -20 -20 8 15 -18 -18 13 9 29 -13 -20 -20 -20 -20 -20 -20 -20 -20 -20 -20 -20 -20 -20 -20 -20 -20
-20 -20 -20 -20 -2 -10 -20 -20 -20 -20 -20 -20 -20 -20 -20 -20 -20 -20 -19 -20 -20 -20 -20 -19 -20 -20 -3 -9 5 20 0 -6 -20 -20 -20 -20 -20 -20 -20 -20 -20 -20 -20 -20 -20
-20 -20 -20 -20 9 -20 -20 -20 -20 -20 -20 -20 -20 -20 -20 -20 -20 -20 -20 -20 -20 -20 -20 -20 -20 -20 -20 12 -4 -4 -14 14 9 -0 3 -13 -20 -20 -20 -20 -20 -20 -20 -20 -20
-19 -16 -8 -20 -20 -4 -18 -20 -20 -20 -20 -20 -20 -20 -20 -20 -20 -20 -20 -20 -20 -20 -20 -20 -20 -20 -20 -20 -20 -20 -20 -20 -20 -20 -9 -20 -20 -20 -20 -20 -20 -20 -20 -20 -20
-20 1 -17 -13 -20 -20 -20 -16 1 -3 -20 -20 -20 -20 -20 -20 -20 -20 -20 -20 -20 -20 -20 -20 -20 -20 -20 -20 -20 -20 -20 -20 -20 -14 -19 -20 -20 -20 -20 -20 -20 -20 -20 -20 -20
-20 -15 -20 -20 -20 -20 -20 -20 -2 -20 -20 -20 -20 -20 -20 -17 -20 -20 -20 -20 -20 -20 -20 -20 -20 -20 -20 -20 -20 -20 -20 -20 -20 -20 -20 -20 -20 -20 -20 -20 -20 -20 -20 -20 -20
-20 -10 -20 -20 -20 -20 -20 -20 -20 -20 -20 -20 -16 -3 -16 -20 -20 -20 -20 -20 -20 -20 -20 -20 -20 -20 -20 -20 -20 -20 -20 -20 -20 -20 -20 -20 -20 -20 -20 -20 -20 -20 -20 -20 -20

GFSSW_prec_radar_039.txt.gz
Reflectivity
-1 8 9 10 -7 -20 -20 -5 -20 9 -20 -20 -20 -3 2 13 3 -20 -20 -20 -5 -20 -20 -20 -20 -20 -17 28 12 25 5 26 -9 13 11 15 22 -14 -20 -20 -20 -20 -20 -20 -20
20 19 22 25 10 -13 21 24 12 -17 -18 -20 -20 4 6 20 12 -17 -20 -17 -13 -3 -20 -20 -20 -20 -3 25 28 33 15 -12 -20 -0 15 5 -12 10 -20 -20 -20 -20 -20 -20 -20
4 -8 -11 20 27 11 -5 14 -1 24 -20 -20 -20 19 -1 5 -14 13 -20 -18 15 21 -20 -20 -20 23 -20 11 21 24 4 -14 21 29 36 27 -4 23 -20 -20 -20 -20 -20 -20 -20
17 13 19 20 -14 5 -18 11 23 -20 -20 -15 -20 26 19 -0 -20 9 10 -16 -6 29 19 -20 -20 4 -8 -17 1 1 6 14 16 33 20 15 -2 8 -20 -20 -20 -20 -20 -20 -20
16 14 9 6 -20 -6 -19 -20 15 19 -7 20 4 24 -1 22 -20 -17 11 -0 -10 -1 -20 -20 -20 -3 -20 -20 -11 -11 9 13 19 5 22 22 6 6 13 -20 -20 -20 -20 -20 -20
7 5 -1 -20 -20 -20 -20 -20 20 -20 -20 -20 18 26 24 14 -16 -20 2 8 -4 17 -20 -20 -20 -20 -19 -20 -0 -17 12 9 13 12 7 31 23 2 -14 -20 -20 -20 -20 -20 -20
12 11 -10 -20 -20 -20 -20 -20 -18 -20 -20 -20 -17 12 5 7 -20 -20 -6 22 26 -7 19 -20 -20 -20 -20 -20 -20 -9 8 3 24 -7 5 10 12 6 -16 -20 -20 -20 -20 -20 -20
4 1 -0 -20 -20 -20 -20 -20 -20 -20 -20 -20 -20 -20 -8 -20 -17 -20 -20 16 10 28 31 14 6 11 -20 -20 -13 18 -5 -5 -13 -20 4 14 -19 -20 -20 -20 -20 -20 -20 -20 -20
-15 6 -20 -7 -20 -20 -20 -20 -20 -20 -20 -20 -20 -20 -20 -20 -20 -12 0 -0 -5 20 23 5 0 -20 -19 11 13 22 -11 -17 -20 -20 -16 8 -10 -20 -20 -20 -20 -20 -20 -20 -20
-20 -20 2 2 -12 -20 -20 -20 -20 -20 -20 -20 -20 -20 -20 -20 -20 -20 -20 12 5 30 34 14 20 -20 -18 -5 -16 -20 -20 -20 -20 -8 -13 -16 -20 -20 -20 -20 -20 -20 -20 -20 -20
11 -20 -20 -20 8 -20 -20 -20 -20 -20 -20 -2 -20 -20 -20 -20 -20 -20 -20 27 18 3 -2 15 5 -20 -20 -20 -20 -20 -20 -20 -20 -9 -18 -6 -20 5 -20 -20 -20 -20 -20 -20 -20
7 3 -18 -20 -10 -14 -20 -20 -20 -20 -17 -20 -20 -20 -20 -20 5 3 -12 19 15 -0 -20 12 23 -20 -20 -20 -20 -20 -20 -20 -20 -17 -20 -20 -20 -19 -20 -20 -20 -20 -20 -20 -20
-7 11 1 -20 -20 -20 -20 -20 -20 -17 25 -9 -20 -20 8 10 9 0 -18 -5 1 6 23 29 -7 -20 -20 -20 -20 -20 -20 -20 -20 -20 -20 -20 -20 -20 -20 -20 -20 -20 -20 -20 -20
-20 15 7 -20 -20 -20 -20 -20 -20 -20 14 27 18 15 -18 -20 5 9 -20 -15 8 11 34 27 23 -20 -20 -20 -20 -20 -20 -20 -20 -20 -20 -20 -20 -20 -20 -20 -20 -20 -20 -20 -20
-10 -0 11 3 -20 -20 -20 -20 -20 -19 -15 16 29 32 28 26 -8 -11 -18 -8 -17 35 14 -20 -20 -20 -19 -20 -20 -20 -20 -20 -20 -20 -20 -20 -20 -20 -20 -20 -20 -20 -20 -20 -20
-20 1 -9 -20 -20 -20 -20 -20 -20 -17 6 35 27 34 39 39 40 29 34 17 16 21 24 -10 -19 4 -20 -20 -20 -20 -20 -20 -20 -20 -20 -20 -20 -20 -20 -20 -20 -20 -20 -20 -20
-20 -1 -10 -20 -20 -20 -20 -20 -20 -20 -10 8 13 18 3 11 21 30 14 10 1 19 -6 3 8 -20 12 -15 -20 -19 -20 -20 -20 -20 -20 -20 -20 -20 -20 -20 -20 -20 -20 -20 -20
-20 -20 -20 -20 -20 -20 -20 -20 -20 -3 -16 2 -9 -16 -9 16 22 17 -9 -9 -20 -20 -20 -20 9 -20 -20 -20 -20 -20 -20 -20 -20 -20 -20 -20 -20 -20 -20 -20 -20 -20 -20 -20 -20
-20 -20 -20 -20 -20 -20 -1 -20 -20 -20 -20 -20 -20 -19 -20 -1 20 24 23 7 10 -20 -20 -20 -15 -1 -20 -20 -20 -20 -20 -20 -20 -20 -20 -20 -20 -20 -20 -20 -10 -12 -20 -20 -20
-20 -20 -20 -20 -20 -20 -20 -20 -20 -20 -20 -20 -18 -20 -20 -20 -15 -14 24 4 -2 -20 -20 -16 -20 5 -18 -20 -20 -20 4 24 -0 -19 -20 -20 -20 -20 -20 -20 -15 -18 -20 -20 -20
-20 -20 -20 -20 -20 -20 -20 -20 -20 -20 -20 -20 -20 -20 -20 -20 -20 -20 -20 -9 5 -20 -20 -3 -7 19 28 25 16 18 26 -11 -20 -20 -20 -20 -20 -20 -20 -20 -20 -20 -20 -20 -20
-20 -20 -20 -20 -20 -20 -20 -20 -20 -20 -20 -20 -20 -20 -20 -20 -20 -20 -20 -20 -17 14 11 -4 -20 -6 17 -4 8 23 13 -3 -20 -20 -20 -20 -20 -20 -20 -20 -20 -20 -20 -20 -20
-20 -20 -20 -20 -20 -20 -20 -20 -20 -20 -20 -20 -20 -20 -20 -20 -20 -20 -20 -20 -20 -20 -2 -11 -20 -17 2 2 -20 6 -20 -20 -20 -20 -20 -20 -20 -20 -20 -20 -20 -20 -20 -20 -20
-20 -20 -20 -20 0 -12 -20 -20 -20 -20 -20 -20 -20 -20 -20 -20 -20 -20 -20 -20 -20 -20 -20 -20 -20 -20 -20 -20 -16 -20 -20 -14 20 8 -10 -14 -17 -20 -20 -20 -20 -20 -20 -20 -20
-20 -8 -20 -20 -20 -16 -16 -4 -4 -9 -20 -20 -20 -20 -20 -20 -20 -20 -20 -20 -20 -20 -20 -20 -20 -20 -20 -20 -20 -20 -20 -20 -15 1 -12 -19 -20 -20 -20 -20 -20 -20 -20 -20 -20
-20 -20 -20 -20 -20 -20 -20 9 -3 -20 -20 -20 -20 -20 -20 -20 -20 -20 -20 -20 -20 -20 -20 -20 -20 -20 -20 -20 -20 -20 -20 -20 -20 -20 -20 -20 -20 -20 -12 -20 -20 -20 -20 -20 -20
-20 -20 -20 -20 -20 -20 -19 -20 -11 -20 -20 -7 -14 -15 -20 -20 -20 -20 -20 -20 -20 -20 -20 -20 -20 -20 -20 -20 -20 -20 -20 -20 -20 -20 -20 -20 -20 -20 -20 -20 -20 -20 -20 -20 -20

GFSSW_prec_radar_042.txt.gz
Reflectivity
12 12 -11 13 2 1 19 -13 25 29 -20 -20 -20 -20 -20 24 12 1 -20 -20 -1 21 -20 -20 -20 -20 -20 3 6 23 3 -2 16 26 18 -20 -20 -20 -20 -20 -20 -20 -20 -20 -20
10 14 3 11 4 15 14 7 11 -9 -20 -20 -20 -20 -17 -10 19 3 -14 9 -20 31 -20 -20 -20 -20 -19 -20 2 40 -3 -20 -20 16 15 -14 -20 -20 -20 -20 -20 -20 -20 -20 -20
17 17 11 4 21 4 26 22 23 -4 -12 -20 -20 -20 13 -20 5 -8 17 -11 -8 -15 -20 -20 -20 -20 -17 9 -3 -18 -20 -20 2 30 33 24 -15 -20 -20 -20 -20 -20 -20 -20 -7
10 -1 -9 6 -15 23 -9 -20 -20 22 -20 -20 -20 27 19 -20 -2 10 -7 22 -13 15 -15 -20 -20 6 -20 -20 -3 -16 -6 -4 21 24 24 25 31 -20 -20 -20 -20 -20 -20 -20 -14
11 2 -8 -19 -20 -20 -20 -20 -20 -20 -20 -20 -20 25 20 4 -15 -4 -12 11 16 30 28 -20 -20 -20 -20 -20 -3 -16 9 27 29 22 31 24 9 3 -20 -8 -20 -20 -20 -20 -20
-20 -10 1 -1 -20 -20 -20 -2 -17 23 -20 -20 27 6 -3 -15 2 -20 -20 -10 16 22 27 -20 -20 -20 -20 -20 -20 -20 8 10 24 19 25 31 4 18 -18 -20 -19 -20 -20 -20 -20
-17 -10 -20 -18 -20 -20 -20 -20 -18 24 -20 -20 -20 29 -19 -14 13 -20 -20 -18 17 30 22 7 -20 -20 -20 -20 -20 -20 18 21 9 3 11 26 32 32 -0 -20 -20 -20 -2 -20 -20
-20 -20 -20 -20 -20 -20 -20 -20 -20 -20 -20 -20 -20 7 -20 -20 14 -5 -20 -18 5 37 29 24 -20 -20 -20 -20 -20 -20 -17 4 -0 5 6 22 15 18 -20 -20 -20 -20 -20 -6 -20
-7 -20 -20 -20 -20 -20 -20 -20 -20 -20 -20 -20 -20 -20 -20 9 -14 6 -15 -8 4 14 34 0 -10 -20 -20 -19 -8 -20 -6 -14 6 -1 1 -9 13 28 17 15 -20 -20 -20 -20 -20
1 7 -20 -20 -20 -20 -20 -20 -20 -20 -20 -20 -20 -20 -20 -20 -20 -20 11 -12 10 28 28 27 -3 -20 -20 -0 -12 -20 -20 -7 2 8 -20 -20 13 24 12 -20 -20 -20 -20 -20 -20
13 -20 -9 -20 -20 -20 -20 -20 -20 -20 -20 -20 -20 -20 -20 -20 -20 -20 -8 11 15 26 22 36 -19 -20 -20 -20 -20 -20 -20 -20 -6 0 -8 -20 5 15 -20 -20 -20 -20 -20 -20 -20
-3 3 -2 -20 -20 -20 -20 -20 -20 -20 -20 -20 -20 -20 -20 -20 -4 -13 2 21 15 24 41 35 -10 -20 -20 -20 -20 -20 -20 -20 -19 5 2 -1 -18 12 -20 -20 -20 -20 -20 -20 -20
1 9 13 -19 -20 -20 -20 -20 -18 -9 -6 -19 -20 -20 -5 -18 3 6 16 31 11 5 28 33 -20 -20 -20 -12 -20 -20 -20 -20 -20 -19 -19 -20 -20 -4 -20 -20 -20 -20 -20 -20 -20
2 1 12 -18 -20 -20 -20 -20 -20 -10 17 13 11 -9 -20 -20 -20 18 18 29 13 23 16 -10 -14 -20 -20 -20 -20 -20 -20 -20 -20 -20 -20 -20 -20 -20 -20 -20 -20 -20 -20 -20 -20
-1 -20 13 -1 -20 -20 -20 -20 -20 -12 11 26 17 -7 -15 11 -3 -4 4 -14 23 15 -20 19 -8 -20 -20 -20 -20 -20 -20 -20 -20 -20 -20 -20 -20 -20 -20 -20 -20 -20 -20 -20 -20
-20 4 7 -20 -20 -20 -20 -20 -13 -17 -5 31 38 15 -17 9 -11 7 12 -20 -18 -15 -20 23 -2 -8 -20 -20 -20 -20 -20 -20 -20 -20 -20 -20 -20 -20 -20 -20 -20 -20 -20 -20 -20
-20 1 -20 -20 -20 -20 -20 -20 -20 -20 -15 -14 23 34 26 -6 7 8 -19 -14 -3 27 17 30 16 -20 -20 -3 -20 -20 -20 -20 -20 -20 -20 -20 -20 -20 -20 -20 -20 -20 -20 -20 -20
-20 -20 -20 -20 -20 -20 -20 -20 -20 -20 20 -20 11 36 36 31 13 4 3 24 7 16 12 -1 19 -13 -20 -20 -16 -20 -20 -20 -20 -20 -20 -20 -20 -20 -20 -20 -20 -20 -20 -20 -20
-20 -20 -20 -20 -20 -20 -20 -20 -20 -20 -20 -20 -20 -12 36 23 22 4 11 7 -17 -20 -8 -20 -20 7 -20 -20 -20 -20 -20 -20 -20 -20 -20 -20 -20 -20 -20 -20 -20 -20 -20 -20 -20
-20 -20 -20 -20 -20 -20 -15 -20 -20 -20 -20 -20 -20 -20 -20 3 31 10 1 -18 -13 -20 -20 -20 -20 -9 -12 -9 -20 -20 -20 -20 -20 -20 -20 -20 -20 -20 -20 -20 -20 -20 -20 -20 -20
-20 -20 -20 -20 -20 -16 -20 -20 -20 -20 -20 -20 -20 -20 -20 -20 -20 -20 -15 6 -20 -20 -20 -20 -20 -4 -16 14 -12 -20 -1 -20 -20 -20 -20 -20 -20 -20 -20 -20 -20 -20 -20 -20 -20
-20 -20 -20 -20 -20 -20 -20 -20 -20 -20 -20 -20 -20 -20 -20 -20 -20 -20 -20 -20 -20 -20 -20 -20 -20 -20 -1 -20 -13 -20 -20 -20 -18 -7 -20 -20 -20 -20 -20 -20 -20 -17 -20 -20 -20
-20 -20 -20 -20 -20 -20 -20 -20 -20 -20 -20 -20 -20 -20 -20 -20 -20 -20 -20 -20 -12 -16 -8 -20 -20 -20 2 3 -8 3 -18 -19 -20 -19 -11 -20 -20 -20 -20 -20 -20 -20 -20 -20 -20
-20 -20 -20 -20 -20 -20 -20 -20 -20 -20 -20 -20 -20 -20 -20 -20 -20 -20 -20 -20 -20 -20 -13 -20 -20 -20 -20 -20 -8 -14 3 -20 -20 -20 -7 -20 -20 -20 -20 -20 -19 -6 -20 -20 -20
-20 -20 -20 -20 -4 -15 -20 -20 -14 -4 -20 -20 -20 -20 -20 -20 -20 -20 -20 -20 -20 -20 -20 -20 -20 -20 -20 -20 -20 -20 -20 -20 -20 -20 -20 11 -15 -20 -14 -20 -20 -20 -20 -20 -20
-20 -20 -20 -20 -20 -20 -9 -20 9 -19 -20 -20 -20 -20 -20 -20 -20 -20 -20 -20 -20 -20 -20 -20 -20 -20 -20 -20 -20 -20 -20 -20 -20 -20 -20 -20 -20 -20 6 -11 -20 -20 -20 -20 -20
-20 -20 -20 -20 -20 -20 -20 -11 -18 -20 -20 -20 -10 -14 -20 -20 -20 -20 -20 -20 -20 -20 -20 -20 -20 -20 -20 -20 -20 -20 -20 -20 -20 -20 -20 -20 -6 -20 -20 -20 -20 -20 -20 -20 -20

GFSSW_prec_radar_045.txt.gz
Reflectivity
15 5 -18 9 13 10 -4 28 25 16 6 19 -17 -20 -20 11 26 18 -3 0 -20 -19 -20 -20 -20 -20 21 29 18 25 23 -18 11 15 7 -20 -20 -20 -20 -20 -20 -20 -20 -20 -20
6 -2 8 12 9 1 -20 -20 -6 25 21 -4 -0 -20 -20 -15 20 11 -17 10 -13 -4 -20 -20 -20 -8 21 -8 22 21 32 -19 -20 14 -1 -8 -20 -20 -20 -20 -20 25 -20 -20 -20
5 16 13 5 8 -20 -20 -20 -20 -20 -20 -20 -20 -20 24 13 -12 14 21 4 5 2 10 -20 -20 -4 11 11 -0 37 26 -20 3 14 18 -1 -0 -20 -20 -20 -20 -20 -20 -20 -20
-2 -20 4 -2 -4 -20 -20 -20 -20 -20 -20 -20 -20 5 -20 11 9 24 23 18 5 -7 20 8 -20 0 0 -1 9 -20 -18 -10 16 3 -4 8 25 -20 -20 -20 -20 -20 25 -20 -20
-1 -4 -7 -20 -20 -12 -10 -20 -20 -20 -20 -20 -20 20 15 21 -9 -13 4 5 1 -10 23 -20 -20 3 -11 -8 -20 -19 -3 13 10 -7 5 21 25 8 -20 -20 -20 -20 -20 24 -20
-0 2 -5 -20 -20 -3 9 -20 -20 -20 -20 -20 -20 18 14 35 8 26 -5 9 -5 10 24 -20 -20 -20 -0 -20 19 -20 14 12 19 4 24 11 21 32 -16 -20 -20 -20 2 -6 -20
3 -19 -0 -19 -20 -20 -19 -20 -20 -20 -20 -20 -20 1 6 -17 -19 -20 18 5 6 17 12 10 -20 -16 -18 -20 -7 13 19 23 23 21 13 17 26 34 15 -20 -20 -20 24 -20 -17
8 11 -20 -20 -20 -20 -20 -20 -20 -20 -20 -20 -20 1 -20 -20 -18 -20 3 20 4 -19 18 28 2 -13 -20 -20 11 14 -8 20 9 26 27 28 -3 15 32 -18 -20 -20 -20 5 -20
13 12 13 -20 -20 -20 -20 -20 -20 -20 -20 -20 -20 -17 -20 -20 25 -13 10 16 21 6 24 36 -1 -5 -20 -20 -20 -20 -20 -20 -15 14 -2 -17 -20 27 29 2 -20 -20 -20 -20 -1
-1 2 6 2 -20 -20 -20 -20 -20 -20 -20 -20 -20 -20 -20 -20 8 -20 -18 -19 18 25 44 35 13 -14 -20 -7 -14 -19 -20 -20 -20 10 -17 -16 -20 -1 -1 -4 -20 -20 -20 -20 -20
-0 8 15 9 -20 -20 -20 -20 -20 -20 -20 -20 -20 -20 -20 -20 -20 -20 -20 -3 30 36 35 19 -20 -4 -20 -20 -20 -20 -20 -20 -20 4 -8 2 -16 -3 18 20 10 -20 -20 -20 -20
7 -4 14 14 -20 -20 -20 -20 -20 -20 -20 -20 -20 -20 -20 -20 -11 3 -20 -4 15 33 35 25 -12 -20 -20 -20 -20 -20 -20 -20 -20 -7 2 2 4 -14 17 2 6 -20 -20 -20 -20
11 5 16 10 -20 -20 -20 -20 -20 -20 -18 -20 -20 -20 -20 -17 -3 -8 -20 -5 -2 30 27 15 -15 -20 -19 -11 -13 -20 -20 -20 -20 -20 -15 -6 -6 2 5 5 4 -20 -20 -20 -20
8 1 16 13 -20 -20 -20 -20 -20 -20 -1 -4 -6 -11 -17 -20 -20 13 -20 -5 38 16 15 31 9 -20 -18 11 -20 -20 -20 -20 -20 -20 -20 -18 -20 -15 5 3 -6 -20 -20 -20 -20
-7 -6 16 11 -20 -20 -20 -20 -20 -20 12 8 13 -20 -20 12 -20 8 25 24 35 11 27 35 11 -20 -20 -20 -20 -20 -20 -20 -20 -20 -20 -20 -20 -12 -16 -7 3 -20 -20 -20 -20
-20 -20 16 -3 -19 -20 -20 -20 -20 -16 -20 23 -1 -19 -2 -8 5 12 -4 21 18 23 15 27 -11 -20 -20 -20 -20 -20 -20 -20 -20 -20 -20 -20 -20 -20 -13 -20 -20 -11 -20 -20 -20
-20 -20 9 -20 -20 -20 -20 -20 -18 -20 -20 29 -5 -20 -20 -8 9 15 -0 13 30 28 24 23 -19 -20 -20 -20 -20 -20 -20 2 -15 -20 -20 -20 -20 -20 -20 -20 -20 -20 -20 -20 -20
-20 -20 -19 -20 -20 -20 -20 -17 -20 -20 -13 15 21 -20 -13 -8 -4 6 -1 4 21 -7 0 18 23 -6 -20 -20 -20 -20 -20 -20 -20 -20 -20 -20 -20 -20 -20 -20 -20 -20 -20 -20 -20
-20 -20 -20 -20 -20 -20 10 -20 -20 -20 -20 -1 31 34 21 16 -5 -4 5 2 -7 -17 -20 -20 -20 -20 -20 -20 -20 -20 -20 -20 -20 -20 -20 -20 -20 -20 -20 -20 -20 -20 -20 -20 -20
-20 -20 -20 -20 2 2 -4 -20 -20 -20 -20 -20 -20 13 -0 10 -1 4 -10 -20 -14 -7 -20 -20 -20 -18 -20 -20 -20 -20 -20 -20 -20 -20 -20 -20 -20 -20 -20 -20 -20 -20 -20 -20 -20
-20 -20 -20 -20 -16 4 -20 -20 -20 -20 -20 -20 -20 -20 -20 15 -11 -20 -20 -20 -20 -20 -20 -20 -20 -7 -20 -20 -20 -20 -20 -20 -20 -20 -20 -20 -20 -20 -20 -20 -20 -20 -20 -20 -20
-20 -20 -20 -20 -4 -18 -20 -20 -20 -20 -20 -20 -20 -20 -20 -20 -20 -18 -20 -20 -20 -20 -20 -20 -20 -20 -20 -20 -20 -20 -20 -20 -20 -20 -20 -20 -20 -20 -20 -20 -20 -20 -20 -20 -20
-20 -20 -20 -20 -20 -20 -20 -20 -20 -20 -20 -20 -20 -20 -20 -20 -20 -20 -20 -20 -20 -20 -20 -20 -20 -13 6 -6 -20 -2 -19 -20 -20 -20 -20 -20 -20 -20 -20 -20 -20 -20 -20 -20 -20
-20 -20 -20 -20 -20 -20 -20 -20 -20 -20 -20 -20 -20 -20 -20 -20 -20 -20 -20 -19 -8 -13 -18 -20 -20 -20 -20 -20 -20 -20 -20 -20 -20 -13 -20 -20 -20 -20 -20 -20 -20 -20 -20 -20 -20
-20 -20 -20 -20 -20 -20 -20 -20 -15 -12 -20 -20 -20 -20 -20 -20 -20 -20 -20 -20 -20 -16 19 11 -9 -20 -20 -16 -20 -20 -20 -15 -8 -20 -18 11 -20 -20 -20 -20 -20 -20 -20 -20 -20
-20 -20 -20 -20 -20 -20 -20 -12 -20 -9 -20 -20 -20 -20 -20 -20 -20 -20 -20 -20 -20 -20 -20 -20 -20 -20 -20 -20 -20 -20 -20 -20 -20 -20 -20 -20 -20 7 -20 -20 -20 -20 -20 -20 -20
-20 -20 -20 -20 -20 -20 -20 -20 -20 -20 -20 -20 3 -17 -20 -20 -20 -20 -20 -20 -20 -20 -20 -20 -20 -20 -20 -20 -20 -20 -20 -20 -20 -20 -20 -20 5 -13 -20 -20 -20 -20 -20 -20 -20

GFSSW_prec_radar_048.txt.gz
Reflectivity
-1 15 8 2 6 -6 -13 -20 23 -20 -20 -19 -20 14 -14 -20 18 28 10 -20 -9 -8 13 -20 -20 -20 19 23 27 30 20 -20 -20 -15 19 -13 -20 -20 -20 -20 -20 -20 -20 -20 -20
13 -11 10 12 -0 6 -15 -20 -20 -20 -20 6 -20 -7 -17 -18 7 16 19 9 -11 24 -20 -20 -20 -5 -18 23 27 34 31 11 -20 -0 15 -9 -20 -20 -20 -20 -20 -20 -20 -3 -16
16 -7 3 -20 -16 -1 -2 -2 -20 -20 -20 -20 -20 -20 -20 22 12 -0 17 22 2 13 27 12 -20 -20 12 12 16 21 -0 -19 -20 14 18 10 -15 -20 -20 -20 -20 -20 -20 -15 26
-20 15 1 -17 -19 7 -1 -17 -20 -20 -20 -20 -20 -20 -20 -20 -12 12 28 13 4 -18 20 22 -20 -20 6 12 13 12 30 -11 -20 18 12 15 -4 -20 -20 -20 -20 -20 -20 -20 21
7 -12 11 2 -2 -3 -12 -15 -20 -16 -20 -20 -20 -20 -20 -20 -11 -3 22 12 26 -12 -6 -20 -20 -20 -8 10 18 9 -18 -3 13 21 20 19 12 1 -20 -20 -20 -20 -20 -20 -20
10 -3 -10 11 0 -20 -20 -20 -20 -20 -7 -20 -20 -14 4 -4 21 -19 12 -4 -1 -2 -17 -20 -20 -20 -20 9 16 -15 13 4 25 24 24 16 -10 10 -20 -20 -20 -20 -20 -20 -7
8 -7 14 -2 4 -20 -20 -20 -20 -20 -18 -20 -20 -20 5 17 17 -10 -19 -19 14 -13 12 -16 -20 -20 -16 12 -16 21 19 16 12 19 25 28 10 6 13 -9 -20 -20 -20 -20 -20
-12 12 9 16 -7 -20 -20 6 -20 -20 -20 -20 -20 -20 -20 -20 0 28 17 18 23 -19 25 6 2 -20 24 -20 -20 21 25 21 11 -2 15 3 -20 -20 15 18 -20 -20 -20 -20 -20
5 2 12 1 13 -20 -20 -20 -20 -20 -20 -20 -20 -20 -20 -20 -6 11 -20 10 27 -20 25 25 -12 -20 -20 -1 -0 -2 -20 -18 17 -20 -2 0 -20 6 17 34 -8 -20 -20 -20 -20
12 13 13 14 -6 9 -20 -20 -20 -20 -20 -20 -20 -20 -20 -20 -20 -20 -20 10 31 1 -6 33 13 8 -20 2 -20 -20 -20 -20 -20 -20 -20 -12 -20 -7 -7 18 9 -20 -20 -20 -20
17 14 15 15 9 4 -20 -20 -20 -20 -20 -20 -20 -20 -20 -20 14 -20 -20 17 31 8 13 25 39 8 -20 -20 -20 -20 -20 -20 -20 -20 -20 -11 12 -12 -13 20 32 -19 -20 -20 -20
19 16 15 16 15 5 -20 -20 -20 -20 -20 -20 -20 -20 -20 -20 -20 -20 -20 16 23 5 20 27 35 -5 -20 -20 -20 -20 -20 -20 -20 -19 -18 -1 -16 -8 3 -11 19 0 -20 -20 -20
15 16 9 15 16 -20 -20 -20 -20 -20 -20 -20 -20 -20 -20 -20 -20 -20 -20 20 35 6 35 32 -3 4 9 -11 -20 -20 -20 -20 -20 -20 -16 -20 -3 7 -19 -20 -6 25 1 -20 -20
15 17 2 13 -17 -20 -20 -20 -20 -20 -1 -20 -6 -13 -20 -20 -20 -11 -20 22 38 34 36 27 2 -20 6 12 -20 -20 -20 -20 -20 -20 -19 -20 -14 4 6 1 13 -20 2 -16 -20
17 16 16 16 -20 -20 -20 -20 -20 -20 2 26 22 -20 -20 -10 -20 -2 -20 -1 3 28 28 31 5 -20 -20 0 -20 -20 -20 -20 -20 -20 -20 -20 -20 -20 -19 -3 -20 8 -19 2 -14
-7 15 15 -2 1 -20 -20 -20 -20 -16 -16 16 -5 -19 -20 4 -20 14 10 1 31 27 32 24 1 -20 -20 -20 -20 -20 -20 -20 -20 -20 -20 -20 -20 -20 -3 -20 -20 10 12 -11 -12
13 8 8 -20 -20 -20 -20 -20 -14 -20 -6 8 7 -20 -11 -0 2 -3 9 29 13 18 16 33 22 -16 -20 -20 -20 -20 -20 -20 -20 -20 -20 -20 -20 -16 -4 -20 -18 -18 4 6 -18
-10 -5 -17 -20 -20 -20 -20 -20 -20 -20 34 2 -6 -20 1 -20 -20 -15 -20 22 -15 -2 19 15 18 -8 -20 -20 -20 -20 -20 -20 -20 -20 -20 -20 -20 -20 -18 -19 -20 -20 -20 -5 2
-20 -20 -20 -12 -19 -1 -20 -20 -20 -20 2 21 10 23 -17 11 -12 -2 -20 -20 -20 -10 -20 3 -11 -20 -20 -20 -20 -20 -20 -20 -20 -20 -20 -20 -20 -20 -20 -20 -20 -20 -20 -20 -20
-20 -20 -20 -20 4 10 -20 -20 -20 -20 -20 8 22 24 6 11 -20 -15 -20 -3 -20 -17 -20 -20 8 12 -20 -20 -20 -20 -20 -20 -20 -20 -20 -20 -20 -20 -20 -20 -20 -20 -20 -20 -20
-20 -20 -20 -20 4 -14 -20 -20 -20 -20 -20 -20 -13 -18 -8 2 -11 -14 -20 -16 -20 -20 -20 -20 -20 13 25 0 -19 -20 -20 -20 -20 -20 -20 -20 -20 -20 -20 -20 -20 -20 -20 -20 -20
-20 -20 -20 -17 -5 -4 -20 -20 -20 -20 -20 -20 -20 -20 -13 -6 -20 -20 -20 -20 -20 -20 -20 -20 -20 -20 5 -20 -20 -20 -20 -20 -20 -20 -20 -20 -20 -20 -20 -20 -20 -20 -20 -20 -20
-20 -20 -8 -5 -15 -20 -20 -20 -20 -20 -20 -20 -20 -20 -20 -20 -20 -20 -20 -20 -20 -20 -20 -20 -20 -9 9 -12 -20 -20 -20 -20 -20 -20 -20 -20 -20 -20 -20 -20 -20 -20 -20 -20 -20
-20 -20 -20 -13 4 -20 -20 -20 -20 -20 -20 -20 -20 -20 -20 -20 -20 -20 -20 -18 -18 -20 -20 -20 -20 -20 -20 -20 -20 -20 -20 -20 -20 5 -10 -20 -20 -20 -20 -20 -20 -20 -20 -20 -20
-20 -20 -20 -20 -20 -20 -20 -20 -20 -20 -20 -20 -20 -20 -20 -20 -20 -20 -20 -18 -5 -8 -19 -18 -20 -20 -20 -20 -20 -20 -20 -20 -20 -20 -19 -20 -20 -8 -20 -20 -20 -20 -20 -20 -20
-20 -20 -20 -20 -20 -20 -20 -20 -20 -20 -20 -20 -20 -20 -20 -20 -20 -20 -20 -20 -20 -20 19 0 -20 -20 -20 -20 -20 -20 -20 -20 -20 -20 -20 -20 -20 17 -12 -20 -20 -20 -20 -20 -20
-20 -20 -20 -20 -20 -20 -20 -20 -20 -20 -20 -20 -20 -20 -20 -20 -20 -20 -20 -20 -20 -20 -20 -20 -20 -20 -20 -20 -20 -20 -20 -20 -20 -20 -20 -20 -11 -15 -20 -20 -20 -20 -20 -20 -20

GFSSW_prec_radar_051.txt.gz
Reflectivity
5 7 5 -20 -20 -20 4 2 1 -20 -20 22 22 -20 17 23 -20 -13 24 -9 -20 22 25 -20 -20 -3 20 9 -10 25 -12 -14 -20 -20 -17 9 -20 -20 -20 -20 -20 -20 -20 -5 -20
-20 -1 -20 -18 -20 -11 9 -0 8 -20 -20 -20 -20 -20 -20 -20 -20 -3 6 24 2 17 24 -20 -20 11 12 -3 4 19 22 19 -20 -9 -1 11 -4 -6 -20 -20 -20 -20 -20 1 -2
8 -14 0 -20 2 -5 4 13 4 -20 -20 -20 -20 -20 -20 -20 -20 -20 15 32 28 16 -18 3 -20 -20 -6 14 14 32 22 -11 2 -20 -6 11 10 -4 -17 -20 -20 -20 -20 -10 5
12 10 -17 14 -17 -20 7 3 11 7 -17 -20 -20 -20 -20 -20 -10 -8 21 28 33 29 5 -17 -20 9 -20 -6 -4 26 -3 11 20 4 -20 -20 11 -20 -20 -20 -20 -20 -20 -20 -20
-17 12 -2 -20 13 -11 -16 6 4 3 -20 -20 -20 -20 -20 -20 -20 -20 -0 20 24 12 -15 1 -20 -5 -16 -9 -20 -10 2 32 35 14 -17 -20 10 -18 -20 -20 -20 -20 -20 -20 -20
-8 -6 8 3 -18 3 -1 -16 2 -15 -20 -20 -20 -20 -9 -20 -20 -20 2 13 -18 14 -7 15 -20 -20 -19 -20 -10 -20 8 14 25 12 9 4 6 -6 -20 -20 -20 -20 -20 -20 -20
16 -10 -20 -18 17 -19 1 6 -20 -20 -20 -20 -20 -20 12 -16 -20 -20 11 21 -8 10 5 17 -11 -20 -20 -11 -8 23 -17 19 5 7 15 26 -9 -18 -11 -20 -20 -15 -20 -18 -20
10 11 13 12 1 2 -20 -3 -20 -20 -20 -20 -20 -20 -20 -20 -20 -20 5 11 4 -13 -15 21 -2 -20 11 -20 -20 13 14 8 21 12 16 27 -4 -20 15 -13 -20 -20 -20 -1 -15
11 11 10 11 -13 -13 -14 -20 -20 -20 -20 -20 -20 -20 -19 -20 9 -19 -20 16 -20 -20 -20 14 24 -4 -20 -11 -7 -4 -17 7 13 8 -10 -8 -20 -15 17 27 -20 -20 -18 -7 -14
14 14 14 13 8 -12 1 -20 -20 -20 -20 -20 -20 -20 -20 -20 -2 14 -19 -20 -2 24 5 30 28 5 -20 8 -8 -13 -20 -15 21 5 7 -20 3 9 0 -11 12 -20 -20 -9 -5
16 13 15 13 14 5 -20 -20 -20 -20 -20 -20 -20 -20 -20 -20 -15 -5 -20 29 24 -17 19 29 10 -20 -20 -20 -20 -20 -20 -2 -16 13 -19 3 1 2 -20 -20 -6 11 -20 -20 -18
17 15 14 12 16 11 -20 -20 -20 -20 -20 -20 -20 -20 -20 -20 -20 -20 13 37 25 -6 16 33 24 -20 -20 -20 -20 -20 -20 -6 -20 15 -3 -8 -5 -19 -20 -20 -20 -20 -20 -20 -20
14 13 14 15 14 -17 -20 -20 -20 -20 -20 -20 -20 -20 -20 -20 -20 -20 3 36 27 -20 20 24 -4 -20 -10 1 9 -20 -20 -20 -20 -20 -20 -20 -17 -20 -20 -20 -20 -20 -20 -20 -20
16 14 9 12 -17 -20 -20 -20 -20 -20 -20 -20 -20 -20 -20 -20 -20 -20 -16 11 31 -19 -1 6 15 1 16 8 -15 -20 -20 -20 -20 -20 -16 -20 -20 -20 -20 -20 -20 -20 -20 -20 -20
12 15 16 6 -20 -20 -20 -20 -20 -20 -13 14 11 -20 -20 1 -19 -20 -15 6 14 -5 6 12 9 -18 15 -12 -20 -20 -20 -20 -20 -20 -20 -20 -18 -20 -19 -20 -20 -20 -20 13 9
14 17 13 5 -20 -20 -20 -20 -20 -20 -13 9 -7 -20 -20 -20 -9 -5 5 -12 20 23 10 33 -9 15 -16 11 -20 -20 -20 -20 -20 -20 -14 -20 -7 -20 2 -20 -16 -5 -20 -14 18
17 14 -6 -20 -20 -20 -20 -20 -20 -20 21 -11 -4 -20 -20 -17 2 29 -18 28 32 20 24 21 15 -12 -20 9 -20 -20 -20 -20 -11 -20 -13 -20 -20 -20 -3 -20 -20 -19 2 -4 -9
-10 0 -20 -20 -20 -20 -20 -20 -20 -20 9 0 -18 -20 3 -18 -12 -13 -5 -11 -20 9 32 18 18 -20 -20 -17 -19 -19 -20 -20 -20 -20 -20 -20 -20 -20 -20 -20 -20 -20 -20 -19 -1
-20 -20 -20 -20 -16 -6 -20 -20 -20 -18 27 -20 -18 -20 -19 3 -20 -20 -20 -18 -19 -3 16 19 17 -18 -20 -17 -20 -20 -20 -20 -20 -20 -20 -20 -20 -20 -20 -20 -20 -20 -20 -20 -20
-20 -20 -20 -8 -1 -19 -20 -20 -20 -20 18 -9 12 -16 -20 -20 -20 -15 -20 -20 8 -3 -20 -20 -6 -11 -20 -20 -20 -20 -20 -20 -20 -20 -20 -20 -20 -20 -20 -20 -20 -20 -20 -20 -20
-20 -20 -20 -0 -16 -20 -17 -20 -20 -20 -20 6 1 -5 -16 -20 -20 -20 -20 -14 -12 -20 -20 -20 -20 3 -5 -14 -20 -20 -20 -20 -20 -20 -20 -20 -20 -20 -20 -20 -20 -20 -20 -20 -20
-20 -20 -20 12 -6 -19 -20 -20 -20 -20 -20 -20 8 1 -20 -17 -20 -20 -20 -20 -19 -20 -20 -20 -20 -2 2 -20 -20 -20 -20 -20 -20 -20 -20 -20 -20 -20 -20 -20 -20 -20 -20 -20 -20
-20 -20 -20 1 -10 -20 -20 -20 -20 -20 -20 -20 -20 -18 19 7 -19 -20 -20 -20 -20 -20 -20 -20 -20 -20 5 10 -20 -14 -20 -20 -20 -20 -20 -20 -20 -20 -20 -20 -20 -20 -20 -20 -20
-20 -20 -20 6 -0 -20 -20 -20 -20 -20 -20 -20 -20 -20 -20 -20 -20 -20 -20 -20 -20 -20 -20 -20 -20 -20 -20 -20 -20 -20 -20 -20 -20 -20 -20 -20 -20 -20 -20 -20 -20 -20 -20 -20 -20
-20 -20 -20 -19 -20 -20 -20 -20 -20 -20 -20 -20 -20 -20 -20 -20 -20 -20 -20 -19 -9 -3 -20 -20 -20 -20 -20 -20 -20 -20 -20 -20 -20 -20 -20 -20 -20 -20 -20 -20 -20 -20 -20 -20 -20
-20 -20 -20 -20 -20 -20 -20 -20 -20 -20 -20 -20 -20 -20 -20 -20 -20 -20 -20 -20 -20 -20 -20 -20 -20 -20 -20 -20 -20 -20 -20 -20 -20 -20 -20 -20 -20 13 -6 -20 -20 -20 -20 -20 -20
-20 -20 -20 -20 -20 -20 -20 -20 -20 -20 -20 -20 -20 -20 -20 -20 -20 -20 -20 -20 -20 -20 -20 11 -20 -20 -20 -20 -20 -20 -6 -17 -20 -20 -20 -20 -20 -20 -20 -20 -20 -20 -20 -20 -20

GFSSW_prec_radar_054.txt.gz
Reflectivity
9 -19 6 11 -20 -0 12 -20 -8 -6 -5 1 11 -14 -20 -18 21 -19 -20 -1 -20 -4 3 4 -20 10 -4 26 1 15 3 8 13 -20 -8 -5 10 -0 -17 -20 -20 -20 -20 -20 -20
13 3 -7 -19 -20 -20 -12 9 -0 -20 -20 -20 -20 -20 -20 -4 -18 -20 -20 26 -3 20 -2 4 4 18 33 23 25 24 -16 3 5 -7 -20 5 -4 8 -20 -20 -20 -20 -20 -20 -1
1 17 -19 -20 4 -12 -5 -20 1 -10 -20 -20 -20 -20 -20 -20 -20 -20 -20 -9 23 25 -19 -8 6 -19 4 25 12 -17 -18 0 -20 -7 -20 -9 11 1 -0 -20 -20 -20 -20 -20 12
-19 -20 20 -20 -20 -3 -19 5 -16 -6 -20 -18 -20 -20 -20 -20 -8 11 4 -11 33 23 7 5 5 10 -18 29 22 -20 18 1 -13 -20 24 -20 -20 -7 -20 -5 -20 -20 -20 -20 14
16 -2 -20 11 -20 -15 -1 -12 -20 -19 -4 -20 -20 -20 -20 -20 -20 -20 -20 -9 35 19 20 19 5 -20 -20 9 30 -8 -3 -13 -19 -20 -17 -14 0 6 -18 -20 -2 -20 -20 -20 -17
13 3 -20 0 -4 9 -14 -20 -20 -20 -20 -20 -20 -20 -6 -11 -20 -20 -20 -2 28 13 31 17 -17 -20 -20 -14 -10 -6 29 28 -5 18 -20 -20 -20 5 11 -20 -20 -9 -20 -20 -20
8 13 8 -20 -1 11 -20 -20 6 -20 -20 -20 -20 -20 -18 -18 -20 -20 -20 -1 16 23 23 26 -20 -20 -20 1 -20 -17 -17 -13 22 -17 -19 26 -1 -2 11 -20 -20 -20 -12 -20 -17
15 -8 13 7 -15 4 8 -20 -10 -20 -20 -20 -20 -20 -20 -20 -20 -20 -20 4 -16 21 31 38 -14 4 -12 -20 -20 -20 21 18 -4 9 -5 28 1 -20 12 -20 -20 -20 -20 -7 -20
14 14 14 3 -1 10 -20 -15 -20 -20 -20 -20 -20 -20 -20 -20 -12 -1 -14 6 1 -17 24 28 0 -20 -6 9 5 6 7 0 17 6 12 4 -13 -20 11 10 -20 -20 -20 -20 -2
13 7 5 11 -3 12 -20 -20 -20 -20 -20 -20 -20 -20 -20 -17 36 3 -5 29 22 -5 19 13 24 -17 4 4 -14 -20 -3 8 21 14 15 9 11 -20 -20 -20 -20 -20 -20 -20 -20
17 12 14 12 -20 13 -20 -20 -20 -20 -20 -20 -20 -20 -20 -20 -20 7 5 37 16 6 15 31 34 10 -20 -20 -20 -20 -2 11 -13 -14 15 14 15 -14 -20 -20 -20 -20 -20 -20 -20
11 13 14 1 -20 14 -20 -20 -20 -20 -20 -20 -20 -20 -20 -20 -1 5 -14 26 38 17 -20 30 32 4 -16 -15 -20 -20 -20 -11 -13 10 28 23 -15 -12 -20 -20 -7 -20 -18 -20 -20
15 9 13 4 -5 -5 -20 -20 -20 -20 -20 -20 -20 -20 -20 22 -17 -20 -13 15 8 4 -20 21 20 18 -20 5 -20 -20 -20 -16 -20 7 18 -11 -15 -20 -20 -20 -20 -20 -20 -20 -20
6 10 9 2 -16 -20 -20 -20 -20 -20 8 -16 -20 -14 -10 -20 -4 19 9 36 4 11 -4 28 19 -15 -20 -3 -20 -20 -20 -20 -20 -20 -18 -20 -20 -19 -19 -20 -20 -20 -20 -20 -20
13 9 12 -8 -20 -20 -20 -20 -20 -20 12 -19 -2 -20 -20 17 -9 14 2 25 4 -14 6 23 19 18 6 -11 -20 -20 -20 -20 -20 -20 -20 -20 -20 -20 -20 -20 -20 -20 -20 -20 -20
8 14 11 7 -12 -20 -20 -20 -20 -16 4 -2 -7 -20 -13 -10 7 -3 21 14 -2 -19 20 19 29 17 -18 -20 -20 -8 -20 -20 -20 4 -6 -20 -20 -20 -20 -20 -20 -20 -20 -20 -20
15 5 -19 -20 -20 -20 -20 -20 6 3 11 -20 -14 -20 -20 -4 14 9 17 3 -5 -9 18 26 29 -6 -17 -20 -19 -15 -20 9 4 7 -12 -20 -20 -20 -20 -20 -20 -20 -20 -20 -20
13 -5 -20 -20 -20 -20 -20 -20 -20 -9 1 -17 -20 -20 -20 1 11 1 14 30 -4 -20 6 16 23 -7 -5 4 -19 -18 -20 -19 -18 -1 -18 -20 -20 -20 -20 -20 -20 -20 -20 -20 -20
-20 -20 -20 -20 -11 -20 -20 -20 -20 -7 -5 -20 -20 -20 -20 -11 -20 -20 16 8 9 22 28 2 1 -16 -20 -20 -20 -6 1 -20 -20 -20 -20 -20 -20 -20 -20 -20 -20 -20 -20 -20 -20
-20 -20 -20 -20 -20 -20 -20 -20 -11 -11 -19 -20 -12 -20 -20 -20 -20 -20 -20 3 15 6 -14 -20 8 -4 -20 -11 -20 -6 -20 -20 -20 -20 -20 -20 -20 -20 -20 -20 -20 -20 -20 -20 -20
-20 -20 -20 -20 -20 -20 -20 -20 -20 -20 -20 24 4 -19 -20 -20 -20 -20 -20 -15 -20 -20 -20 -20 -16 8 4 15 6 -20 -20 -20 -13 -20 -20 -20 -20 -20 -20 -20 -20 -20 -20 -20 -20
-20 -20 -20 -20 6 -20 -20 -20 -20 -20 -20 -17 -10 -20 -18 -20 -20 -20 -20 -20 -20 -20 -20 -20 -20 8 8 -20 -20 -20 -20 -20 -7 -18 -20 -20 -20 -20 -20 -20 -20 -20 -20 -20 -20
-20 -13 -19 -20 0 -20 -20 -20 -20 -20 -20 -20 -7 12 -20 -20 -20 -20 -20 -20 -20 -20 -20 -20 -20 1 -0 -15 -20 -18 -20 -20 -20 -20 -20 -18 -15 -20 -20 -20 -20 -20 -20 -20 -20
-20 -20 -12 -1 -12 -20 -20 -20 -20 -20 -20 -20 -20 -20 -20 -20 -20 -20 -20 -20 -20 -20 -20 -20 -20 -20 -20 -20 -20 -11 -20 -20 -20 -16 -20 -20 -20 -20 -20 -20 -20 -20 -20 -20 -20
-20 -20 -20 -20 -20 -20 -20 -20 -20 -20 -20 -20 -20 -20 -20 -20 -20 -20 -20 -20 -20 -20 -20 -20 -20 -20 -20 -20 -20 -20 -20 -20 -20 -20 -19 -20 -20 -20 -20 -20 -20 -20 -20 -20 -20
-20 -20 -20 -20 -20 -20 -20 -20 -20 -20 -20 -20 -20 -20 -20 -20 -20 -20 -20 -20 -9 -13 -20 -20 -20 -20 -20 -20 -20 -20 -20 -20 -20 -20 -20 -20 -20 5 -20 -20 -20 -20 -20 -20 -20
-20 -20 -20 -20 -20 -18 -20 -20 -20 -20 -20 -20 -20 -20 -20 -20 -20 -20 -20 -20 -20 -20 -20 -20 -20 -20 -20 -20 -20 -20 -20 -20 -20 -20 -20 -20 -20 -20 -20 -20 -20 -20 -20 -20 -20

GFSSW_prec_radar_057.txt.gz
Reflectivity
-20 14 -16 -20 -20 -20 7 -20 6 -0 -20 -20 -20 -20 -20 -0 -10 24 29 9 -19 -19 -20 10 -10 -20 -11 -9 8 -3 20 -3 3 8 14 -15 -3 10 -18 -20 -20 -20 -20 -20 3
-20 -13 20 -4 -20 -10 -20 10 10 11 -10 -20 -20 -20 -20 -17 -2 12 29 -10 -6 28 -17 18 12 20 7 -4 27 16 19 -8 10 -5 6 -10 -1 -20 6 -20 -20 -20 -20 -13 -0
13 -20 -19 25 -20 -20 -1 -16 -3 2 -20 0 -20 -20 -20 -20 1 17 -16 -17 -18 21 21 25 -20 19 -14 8 18 12 -3 -20 21 21 -20 -9 -1 -20 2 -1 -20 -20 -20 -17 -9
-19 17 -19 -20 18 -19 -7 1 -15 5 -16 -20 -20 -20 -20 -3 10 -2 -20 -14 23 33 -20 23 17 19 17 -20 30 22 -20 -2 24 14 -14 -14 -6 -20 -13 -4 -19 -20 -20 -20 6
-12 -1 11 -20 -14 8 -9 -20 3 -20 -20 -20 -20 -20 -14 -3 6 -20 -20 -20 -20 26 6 -16 5 16 -5 -20 17 5 -7 23 3 14 -5 21 -11 -13 -20 -20 -4 -16 -20 -20 -20
16 1 -14 -20 -20 -20 12 -20 -15 4 -20 -20 -20 -20 5 11 -20 -20 -20 -20 -13 17 13 -2 -5 -3 -20 -11 24 28 10 29 10 25 -16 -20 8 -15 4 -20 -16 3 -13 -20 -20
17 -4 -3 -20 -20 -14 -20 16 -18 -5 -20 -20 -20 -20 -18 14 -20 -20 -20 -20 -4 27 33 14 23 23 -20 -12 18 36 -14 24 -20 -19 -19 -20 -19 -20 4 -19 -20 -20 -0 -15 -20
12 -18 -8 -15 -20 -20 9 -20 6 -20 -20 -20 -20 -20 -15 -20 -20 -20 -20 -18 -20 -5 20 9 -9 -15 -20 -5 -7 3 26 16 -20 -20 -18 -20 -20 -20 12 14 -20 -18 -20 -13 -9
-20 -10 11 -19 -19 -20 -9 -20 -11 -20 -20 -20 -20 -20 7 -20 -20 -20 -20 2 11 5 31 28 17 32 -20 -4 17 13 32 39 3 -20 -10 -20 -20 -3 -5 -3 -20 -7 -20 -20 -16
-19 4 3 -20 -13 -20 2 -20 -20 -20 -20 -20 -20 -20 -20 -8 33 -18 -20 1 22 19 35 41 25 -8 -19 16 -6 -11 -4 -16 -19 3 12 -20 -20 -20 -20 -20 -20 -20 -14 -20 -20
11 -20 -20 -20 8 -20 -20 -20 -20 -20 -20 -20 -20 -20 -20 -20 -6 -13 -20 10 17 20 39 32 33 20 -20 -20 -20 -20 -20 -20 -20 21 4 -18 -8 -20 -16 -20 -20 -20 -16 -20 -20
1 -18 10 4 -5 -8 -15 -20 -20 -20 -20 -20 -20 -20 -20 14 17 25 20 31 18 28 29 35 25 24 -20 -20 -15 -20 -20 -20 13 -18 17 2 16 10 -18 -20 -20 -20 -20 -20 -20
-20 7 10 -20 -18 -2 -18 -20 -20 -20 -10 -20 -20 -20 -20 23 14 23 29 36 8 11 -1 9 25 31 -17 -20 -20 -20 -20 -20 -6 4 3 1 -1 -14 -13 -20 -20 -20 -20 -20 -20
-2 8 -11 10 -20 -18 -20 -20 -20 -20 -4 -3 4 -12 -20 -20 18 2 24 29 23 -1 12 5 26 12 15 -20 -20 -20 -20 8 -14 0 -14 -20 -10 -20 -3 -20 -20 -20 -20 -20 -20
-17 7 13 5 -14 -20 -20 -20 -20 -19 21 9 7 -20 -20 17 -13 16 -3 0 5 6 -2 12 36 17 19 -20 -20 -20 -20 -20 -20 -20 -20 -20 -20 -20 -20 3 -2 -20 -20 -20 -20
-12 11 6 -6 -13 -20 -20 -20 -18 2 -3 -19 -3 -12 -14 11 2 3 32 9 -20 -17 2 16 27 26 -9 -20 -20 -17 -13 -20 -20 -20 -20 -20 -20 -20 -20 -20 -20 -20 -20 -20 -20
-18 -17 -7 -19 -20 -20 -20 -20 6 7 -5 -19 -17 -2 3 2 -13 -14 21 21 9 -0 31 31 23 22 -11 -13 -20 -20 -13 -10 1 4 -0 -20 -20 -20 -20 -20 -20 -20 -8 -20 -20
-20 -19 -20 -20 -20 -20 -20 -20 3 -12 -13 -17 -20 -19 4 -8 -13 -5 14 8 -2 -5 15 24 31 11 -16 -20 -18 -20 -20 -20 -19 -18 -20 -20 -20 -20 -20 -20 -20 -20 -20 -20 -20
-20 -14 -15 -20 -20 -19 -20 5 4 -11 -5 -20 -20 -4 -2 -2 -7 7 32 17 9 -20 -15 -2 21 -3 -13 -20 -20 -20 -4 -20 -20 -20 -20 -20 -20 -20 -20 -20 -20 -20 -20 -20 -20
-20 -12 -17 -20 -20 -2 0 -20 3 -20 -17 -20 2 -20 1 -20 -11 -2 18 7 -20 -20 -14 -16 5 19 -11 -20 -20 -6 -20 -13 -20 -20 -20 -20 -20 -20 -20 -20 -20 -20 -20 -20 -20
-20 -8 -20 -20 -5 -5 5 5 -20 -20 -20 -20 -4 -18 -20 -20 -20 -16 -19 -3 -18 -20 -17 5 -20 16 22 14 5 -20 -20 -10 1 -20 -7 -20 -20 -20 -20 -20 -20 -20 -20 -20 -20
4 -2 -20 -20 9 -19 5 -20 -20 -20 -16 -10 0 0 -20 -20 -20 -20 -3 -15 6 -15 -20 -18 -7 -7 4 -2 -19 -20 2 -20 -0 -5 -20 -20 -20 -20 -20 -20 -20 -20 -20 -20 -20
-6 -12 -18 -6 8 1 -15 -20 -20 -17 -20 -20 -20 -16 -20 -16 -18 -9 3 -20 -20 -20 0 -20 -10 -8 -9 -14 -20 -20 -20 -20 -20 -15 6 -9 -16 -20 -20 -20 -20 -20 -20 -20 -20
1 -17 1 7 -19 -14 4 6 -7 -20 -20 -20 -20 -20 -20 -20 -20 -20 -0 -14 -20 -20 -20 -20 -17 2 4 -14 -20 -20 -20 -20 -20 -20 -20 -20 -20 -20 -20 -20 -20 -20 -20 -20 -20
-20 -20 -20 -14 -17 -20 -6 -20 -1 -12 -18 -20 -20 -20 -20 -20 -4 -13 -20 -16 -20 -20 -20 -20 -5 -20 -20 -20 -20 -20 -20 -20 -10 -20 -15 -20 -20 -20 -20 -20 -20 -20 -20 -20 -20
-20 -20 -20 -20 -20 -20 -20 7 5 -20 -0 -20 -20 -20 -20 -4 -20 -5 -20 -6 -20 -20 -20 -20 -20 -20 -20 -20 -20 -20 -20 -20 4 -20 -16 -2 -16 -20 -20 -20 -20 -20 -20 -20 -20
-20 -20 -20 -20 -20 3 -10 -20 -20 -20 -18 -20 -20 -5 -20 -20 -20 -20 -20 -20 -12 -0 11 6 -20 -20 7 -20 -20 -20 -20 -20 -20 -20 -20 -14 -20 -20 -20 -20 -20 -20 -20 -20 -20

GFSSW_prec_radar_060.txt.gz
Reflectivity
13 -20 -20 11 -2 -15 -20 -19 7 -17 -5 -7 -20 -20 -20 -20 -20 -20 4 25 11 19 -7 10 6 -7 21 23 23 13 15 -20 -20 -20 15 -10 -20 -20 0 -0 -1 3 -20 17 31
-20 7 -15 -20 6 -13 -20 -20 9 7 -20 -2 -20 -20 -20 -20 -20 -6 0 9 13 33 23 4 -10 20 -10 22 18 29 27 -15 -20 3 24 -20 -20 -20 1 -6 -20 -1 -11 8 13
-20 -4 16 -20 -20 5 -20 -20 -20 -6 -20 -20 -20 -20 -20 -20 -20 -10 4 -10 20 -4 -20 6 -19 23 -18 -2 29 24 23 -8 -18 -20 -18 -20 -20 -20 1 9 -20 -20 -10 1 -17
4 -20 1 -20 -20 -20 0 -15 -20 -19 -20 -20 -20 -20 -20 -20 11 24 -18 -2 -9 2 30 19 -0 -4 17 19 21 21 12 23 18 21 -20 -20 -20 -11 18 4 -20 -20 -20 -6 -1
-19 15 3 -20 -20 -20 -17 12 -20 -5 -20 -20 -20 -20 -20 -11 10 -20 -20 -12 -20 1 35 24 22 20 19 -18 28 22 -10 32 11 5 16 -20 -19 -20 -19 -20 -20 -20 -20 -20 -6
-6 15 -4 -20 -20 -20 -20 -15 13 -20 -14 -20 -20 -20 -10 7 -17 -20 -20 -20 -17 -12 34 26 22 21 2 16 13 -16 10 5 19 2 23 -1 21 -16 -20 -20 -4 -14 -20 -20 -20
-19 -7 2 -18 -14 -17 -20 3 7 -20 -20 -20 -20 -20 -20 -20 -20 -20 -20 -20 -20 14 20 -2 25 2 -11 10 7 21 12 23 18 37 -13 34 18 -20 -20 -20 -10 -3 -20 -20 -20
-0 -20 10 10 -20 -2 -20 -10 -20 -12 -20 -20 -20 -20 -12 -20 -20 -20 -20 -20 -20 -18 18 -9 16 12 -20 -19 27 3 -16 29 31 12 12 -20 -20 -20 -20 -20 -20 -20 -20 -20 -20
-20 -7 -20 4 -20 -20 -20 -20 -20 -20 -20 -20 -20 -20 5 -20 -20 -20 -20 -20 -10 16 17 -9 17 23 4 12 15 -11 4 28 41 6 34 -20 -20 -20 -20 -14 -20 -11 -12 -17 -16
-20 8 -20 6 -20 -10 -20 -20 -20 -20 -20 -20 -20 -20 -20 1 -8 2 -19 -20 4 22 34 8 43 13 17 11 -11 18 9 20 -3 -6 -20 -20 -20 -20 -20 -20 5 -17 3 2 -3
7 -15 -3 9 -15 -20 -20 -20 -20 -20 -20 -20 -20 -20 -20 -20 -20 -17 -20 -20 25 24 29 3 -6 4 -20 -20 -20 -20 11 16 -1 27 1 -20 -20 -20 -20 -20 -20 -20 -20 -20 -19
-20 -10 -1 -19 -15 -20 2 -20 -20 -20 -15 -20 -20 -20 -20 -20 22 13 -20 21 27 30 26 32 19 9 22 -17 6 -14 8 22 9 20 -7 -11 -17 -20 -20 -20 -20 -20 -20 -20 -20
-1 -0 -20 -20 -20 -20 -20 -20 -20 -20 7 -20 -20 -20 -20 17 19 23 -12 3 1 31 35 32 20 39 20 21 29 3 16 33 16 29 -2 -8 -17 -20 -20 -20 -20 -20 -20 -20 -20
-0 -20 -6 6 -20 -20 -10 -20 -20 -20 2 -19 -5 -14 -20 -18 24 -15 2 29 39 36 16 30 9 -17 -17 20 -13 -17 -15 6 28 -20 -15 -20 -20 -20 -20 -20 -0 -20 -20 -20 -20
-8 -20 3 6 -20 -20 -20 -20 -20 -20 14 -20 -20 -20 -20 6 9 3 26 20 1 9 -4 17 -15 25 -20 -20 -20 7 9 30 24 -2 -16 -20 -20 -20 -20 6 -20 -20 -20 -20 -20
-20 -10 8 -20 -17 -20 -20 -20 -19 -1 -9 -20 -20 -19 5 -15 -20 12 18 -3 16 11 11 23 23 7 27 -16 -17 -20 -20 -20 -20 -20 -20 -20 -20 -20 -20 -8 -19 -20 -20 -19 -20
-20 -20 -20 -20 1 -20 -20 -18 1 -9 -20 -15 -20 -10 -1 -20 -20 8 -1 -17 11 -15 7 -9 34 -11 13 -18 -20 -20 -20 -20 -20 -20 -20 -20 -20 -20 -20 -20 -20 -20 0 -20 -20
-20 -20 -20 -18 -20 -20 -20 2 -4 -17 5 -20 -20 -20 -13 -20 -20 3 -18 -20 -20 -12 15 3 24 -7 11 -20 -20 -20 -20 -20 -20 -20 -20 -20 -20 -20 -20 -20 -13 -20 -20 -20 -20
-20 -20 -20 -20 -20 -20 -20 -18 -12 -19 -20 -20 -20 -8 -9 -20 -20 -2 -5 -13 -20 11 21 11 16 26 -6 -20 -20 -20 3 -20 -20 -20 -18 -20 -20 -20 -20 -20 -20 -20 -20 -20 -20
-20 -20 -20 -20 -20 -17 9 -20 -20 -11 -20 -20 3 -20 -20 -20 -20 -7 2 -18 -14 -20 -20 -16 27 14 -20 -20 -20 -20 -20 -20 -20 -20 -20 -20 -19 -20 -20 -20 -20 -20 -20 -20 -20
-20 -12 -20 -20 -20 6 -0 -20 -5 -15 -20 -19 -20 -20 -20 -20 -20 -14 6 -8 -20 -20 -20 -20 -15 -1 -20 -16 -20 -20 -20 -20 -20 -20 3 -20 -20 -20 -20 -20 -20 -20 -20 -20 -20
-17 -2 -16 -20 -5 6 -20 2 -6 -15 -20 -20 -20 -20 -19 -20 -20 -20 12 12 -20 -20 -20 -20 -20 -13 6 -7 -17 -20 -19 -6 -2 -7 -20 -20 -20 -20 -20 -20 -20 -20 -20 -20 -20
-15 -18 -17 -20 2 -20 -15 -20 -20 -17 -1 4 -6 -20 -20 -20 -15 -16 -5 -20 -20 -20 -20 -20 -0 -20 -18 -15 -20 -20 -20 -20 -20 -20 -20 -20 -20 -20 -20 -20 -20 -20 -20 -20 -20
-19 -15 -16 -12 -20 -20 -17 -12 -20 -20 -20 -20 -20 -20 -19 -20 -20 -6 -15 3 -20 -20 -20 -20 -20 -20 -20 -20 -20 -20 -20 -20 -20 -20 -20 -20 -20 -20 -20 -20 -20 -20 -20 -20 -20
-19 -20 -20 -14 -20 -20 5 -20 -20 -20 -20 -20 -20 -20 -20 -8 -13 -20 -20 -20 -10 -20 -20 -20 -20 -20 -20 -20 -20 -20 -20 -20 -20 -20 -20 -20 -20 -20 -20 -20 -20 -20 -20 -20 -20
-20 -20 -20 -20 -20 -20 1 1 4 -20 -3 -20 -20 -20 -20 -2 -13 -20 -20 -4 -13 -20 -20 -20 -20 -20 -20 -20 -20 -20 -20 -20 -20 -20 -20 -20 -20 -20 -20 -20 -20 -20 -20 -20 -20
-20 -20 -20 -20 -12 -13 -20 -20 -10 -20 -20 -20 -20 -18 -20 -20 -20 -20 -20 -20 -13 -19 -20 -20 -20 -20 -18 -20 -20 -20 -20 -20 -20 -20 -20 -17 -20 -20 -20 -20 -20 -20 -20 -20 -20

GFSSW_prec_radar_063.txt.gz
Reflectivity
-1 1 12 -20 -18 -2 2 -20 -20 8 9 -2 -2 1 -20 -20 -20 -20 -20 -20 -3 35 -20 12 22 19 -20 17 17 20 17 -20 -20 -20 -12 -12 -20 -20 -20 -20 6 2 -11 9 13
-17 10 -16 -11 -20 -20 -3 -3 -20 -14 9 -4 -19 -20 -20 -20 -20 -20 -20 3 20 31 26 16 19 21 -8 28 19 32 26 -20 -20 -20 -20 -19 -20 -20 -20 -20 -2 15 18 11 -19
4 6 14 6 -20 -20 -20 -11 -20 -15 -20 -20 -20 -20 -20 -20 -20 -20 -20 -14 25 28 24 14 5 23 9 24 19 -5 38 -20 1 -20 -20 -20 -20 -20 -20 -20 -20 2 9 -14 -20
6 8 4 9 -20 7 -20 -20 7 -20 18 -20 -20 -20 -20 -20 -19 -20 -20 -16 -4 27 35 5 25 20 17 18 2 22 0 -8 1 12 -20 -20 -20 -20 -16 -20 -20 -20 6 8 -20
10 8 7 11 -11 6 -20 -20 -13 -3 -16 -20 -20 -20 -20 -6 4 -20 -20 -17 8 3 32 24 18 24 13 -20 7 13 36 5 1 18 -20 -20 -20 -20 -20 -20 -20 3 -10 8 3
-6 1 -20 -19 -18 14 -20 -20 0 16 -20 -20 -20 -20 -20 -17 -20 -20 -20 -20 -8 -20 -12 16 12 -6 7 -20 -14 -1 20 23 24 24 21 12 -20 -20 -20 -20 -20 2 7 -15 12
-10 11 -20 10 3 13 -18 -20 1 -19 -20 -20 -20 -20 -20 -20 -20 -20 -20 -20 -20 4 25 24 15 -3 5 17 -20 23 28 34 38 36 29 11 -20 -20 -20 -20 -20 -17 -2 -3 -8
8 -8 -16 -20 -20 11 -1 -20 -20 -20 -20 -20 -20 -20 -20 -20 -20 -20 -20 -20 -20 22 22 28 24 -4 19 19 4 31 41 36 22 22 29 13 -20 -20 -20 -20 -20 -20 -20 -20 -20
4 -20 7 -20 12 -7 -20 -20 -20 -20 -20 -20 -20 -20 -20 -20 -20 -20 -20 -18 -20 -16 -20 15 11 36 26 13 20 11 34 31 -6 29 39 -13 3 7 -17 -20 -20 -20 -20 -20 -20
-20 -7 -20 -20 14 7 -20 -20 -20 -20 -20 -20 -20 -20 -20 -20 -20 -20 -19 -20 -5 14 -20 1 15 30 15 19 18 -18 -20 -12 -20 27 24 22 -14 8 -16 -20 -20 -20 -20 -20 -20
-5 -10 -20 5 -20 -20 -20 -20 -20 -20 -20 -20 -20 -20 -20 -20 11 -19 27 -20 -20 16 -7 -9 21 41 0 -20 -20 -20 -13 -20 1 9 31 -0 19 -20 -20 -20 -20 -20 -20 -20 -20
-2 -20 -8 -20 -20 -20 -20 -20 -20 -20 -20 -20 -20 -20 -20 8 30 15 -20 -20 0 14 -16 -14 -1 5 -20 -1 -9 -10 5 3 14 26 27 -14 -20 -20 -20 -20 -20 -20 -20 -20 -20
-20 -20 -20 -20 -20 -20 -20 -20 -20 -20 -20 -20 -20 -20 -20 18 15 12 -19 -20 27 3 -0 -20 7 35 -20 2 14 -2 -20 -20 -8 7 21 2 -13 -20 -20 -20 -20 -20 -20 -20 -20
-20 -20 -20 -20 -20 -20 -20 -20 -20 -20 -20 -20 -10 -20 1 26 12 -8 -15 3 22 17 23 17 16 -16 -20 -8 -19 -20 -20 -1 21 24 12 2 -20 -20 -20 -20 -20 -20 -20 -20 -20
-20 -20 -19 -19 -20 -20 -20 -20 -20 -20 -20 -20 -20 -20 -20 12 21 15 17 12 36 29 15 26 4 39 27 -18 -3 -20 -20 -20 4 -5 -20 -20 -20 -20 -20 -20 -20 -20 -20 -20 -20
-20 -20 -3 -20 -20 -20 -20 -20 -20 -20 -20 -20 -20 -20 -20 -19 29 21 24 17 15 -15 31 4 4 24 27 21 -13 -20 -20 19 33 20 -6 -20 -20 -20 -20 -20 -20 -20 -20 -20 -20
-20 -20 -20 -20 -3 -20 -20 -20 -20 -20 -20 -20 -20 -20 -19 -20 -11 -4 -16 -12 -19 0 21 27 26 -10 5 19 -4 -8 -20 28 23 10 -20 -20 -20 -20 -20 -20 -20 -20 -20 -20 -20
-20 -20 -20 -20 -20 -20 -20 -20 -20 -20 -19 -20 -20 -20 -20 -20 -20 -20 -20 -19 5 -7 -12 24 19 -18 -20 -20 -20 -20 -16 -19 -2 -20 -20 -20 -20 -20 -20 -20 -20 -20 -20 -20 -20
-20 -20 -20 -20 -20 -20 -20 -16 -20 -20 -20 -20 -20 -20 -20 -20 -20 -20 -20 -12 6 -14 3 23 -7 -5 -20 -20 -20 -20 -20 -20 -20 -20 -20 -20 -20 -20 -20 -20 -20 -20 -20 -20 -20
-20 -20 -20 -20 -20 -20 -20 3 -20 -20 -20 -20 -18 -20 -20 -20 -20 -12 -20 -20 -20 -9 -19 -2 -15 -19 -20 -20 -20 -20 -20 -20 -20 -20 -20 -20 -20 -20 -20 -20 -20 -20 -20 -20 -20
-20 -20 -20 -20 -20 -20 -16 -15 -0 -20 -20 -20 -20 -20 -20 -20 -20 -8 -20 -20 -20 -20 -20 -20 7 29 -20 -20 -20 -20 -20 -20 -20 -20 -20 -20 -20 -20 -20 -20 -20 -20 -20 -20 -20
-20 -20 -20 -20 -20 -13 -19 -0 -3 -20 -20 -20 -20 -20 -20 -20 -20 -20 7 -19 -20 -20 -20 -20 -19 -20 -9 -20 -20 -20 -20 -20 -20 -20 -20 -20 -20 -20 -20 -20 -20 -20 -20 -20 -20
-20 -15 -20 -14 -20 -11 -20 -5 -9 -1 -4 -20 -20 -20 -20 -20 -20 1 -7 -20 -17 -20 -20 -20 -20 -20 -15 -20 -20 -20 -20 -15 -19 -20 -20 -20 -20 -20 -20 -20 -20 -20 -20 -20 -20
-20 -15 5 -1 -20 -20 -20 -20 -13 -7 2 -20 -20 -20 -20 -20 -20 -16 -20 -9 -20 -20 -20 -20 -20 -20 -20 -20 -20 -20 -20 -20 -20 -20 3 -19 -20 -20 -20 -20 -20 -20 -20 -20 -20
-20 -20 -20 -20 -20 -20 -20 -20 -20 -20 -20 -20 -20 -20 -16 -20 -20 -20 -7 -4 -20 -20 -20 -20 -20 -20 -20 -20 -20 -20 -20 -20 -20 -20 -20 -20 -20 -20 -20 -20 -20 -20 -20 -20 -20
-20 -20 -20 -20 -20 -20 -20 -20 -20 -20 -20 -20 -0 -20 -20 -20 -20 -20 -3 -20 -20 -20 -20 -20 -20 -20 -20 -20 -20 -20 -20 -20 -20 -20 -20 -20 -20 -20 -20 -20 -20 -20 -20 -20 -20
-20 -20 -20 -20 -20 -20 -20 -20 -20 -20 -20 -20 -20 -20 -20 -20 -20 -20 -20 -20 -20 -20 -20 -20 -20 -20 -20 -20 -20 -20 -20 -20 -20 -20 -20 -20 -20 -20 -20 -20 -20 -20 -20 -20 -20

GFSSW_prec_radar_066.txt.gz
Reflectivity
-19 -2 5 -11 -20 -20 -20 10 -2 -20 -20 8 -20 -2 0 -5 -20 -20 -20 -20 -20 -18 -20 -20 -20 -20 26 7 -5 26 15 20 -20 -20 -20 -20 -20 -8 -13 -2 14 4 -6 10 28
-20 -5 -0 14 4 -20 -20 -20 5 -20 -20 -20 -20 -17 -19 -20 -20 -20 -20 -20 26 24 -15 -16 12 31 27 -0 11 34 4 25 -20 -20 -20 -20 -20 -20 -18 -20 6 14 -6 9 4
-18 7 -10 11 7 -20 -0 -20 -20 16 -20 20 -20 -20 -20 -20 -20 -20 -20 -20 26 32 33 21 36 28 24 -2 27 40 10 30 4 -20 -20 -20 -6 6 -20 -12 -5 9 7 5 -9
11 6 0 8 10 -12 -20 1 -20 5 -20 7 -20 -20 -20 -20 -20 -20 -20 -20 -17 27 36 1 21 18 21 -13 15 32 21 35 9 -20 12 -20 -20 -20 -20 -16 -11 1 9 14 17
-1 -15 8 -20 -8 -20 4 -20 -19 11 -12 -11 -20 -20 -20 -18 -20 -20 -20 -20 -20 7 26 27 2 34 17 -3 1 25 -20 15 13 -19 18 9 -20 -20 -20 -20 -20 -2 4 10 23
15 -6 3 -20 -6 -9 13 -20 -20 10 11 -10 -20 -20 -20 -20 -20 -20 -20 -20 -20 10 10 23 23 14 19 -5 29 24 -20 10 34 13 22 8 -20 -20 -20 -20 -20 -20 -20 5 9
7 -10 -12 -20 -20 -7 11 -20 -20 -20 -20 -20 -20 -20 -20 -20 -20 -20 -20 -20 -17 -18 7 31 28 13 10 2 16 39 14 16 25 19 18 -20 -20 10 0 -20 -20 -20 -20 -5 5
10 -7 -20 -20 1 -4 -20 -20 -20 -20 -20 -20 -20 -20 -20 -20 -20 -20 -20 -20 -7 -20 4 27 -12 -20 16 21 14 33 20 23 28 32 29 13 -16 -20 -20 -20 -20 -20 -20 -20 4
12 -20 -20 7 -5 3 -17 -20 -20 -20 -20 -20 -20 -20 -20 -20 -20 -20 -20 -20 -18 4 15 20 -8 -16 19 22 16 20 26 15 34 17 42 -1 11 -20 -20 -20 -20 -20 -20 -20 -20
22 -11 -20 -20 -20 -20 -20 -20 -20 -20 -20 -20 -20 -20 -20 -20 -20 -20 -20 -20 9 0 -20 19 9 -20 -4 20 9 -12 31 25 26 29 13 33 39 13 7 -20 -20 -20 -20 -20 -20
11 12 -20 -20 -20 -20 -20 -20 -20 -20 -20 -20 -20 -20 -20 -20 6 -3 14 -20 -4 9 -6 24 26 -16 17 12 -20 -20 25 29 31 37 34 37 34 35 7 -20 -20 -20 -20 -20 -20
1 22 -19 -20 -20 -20 -20 -20 -20 -20 -20 -20 -20 -20 -20 -10 21 -8 -20 3 -2 17 -20 14 10 1 32 35 8 -16 10 22 33 16 31 23 20 8 -20 -20 -20 -20 -20 -20 -20
19 26 -20 -20 -20 -20 -20 -20 -20 -20 -20 -20 -20 -20 -20 5 -5 11 -20 -20 -4 -0 -15 -19 -20 24 35 2 12 19 -2 -2 -14 -7 20 27 28 -20 -20 -20 -20 -20 -20 -20 -20
18 22 -20 -20 -20 -20 -20 -20 -20 -20 -20 -20 -20 -20 -17 1 13 17 1 16 18 26 6 -4 2 15 36 -19 -18 3 12 8 -20 -14 7 -1 -20 -20 -20 -5 -20 -20 -20 -20 -20
5 16 -20 -20 -20 -20 -20 -20 -20 -20 -20 -20 -20 -17 -0 12 -12 23 -9 12 -15 5 10 15 -3 17 8 -20 -20 9 5 18 17 -15 7 4 -10 -20 -20 -20 -20 -20 -20 -20 -20
6 13 -16 -20 -20 -20 -20 -20 -20 -20 -20 -20 -20 -20 -20 25 30 29 35 16 16 10 9 12 1 -20 -18 -20 -20 15 -20 -20 -18 28 -4 -6 -20 -20 -20 -20 -20 -20 -20 -20 -20
8 7 -18 -20 -20 -20 -20 -20 -20 -20 -20 -20 -20 -20 -20 -0 -10 6 2 -15 -15 -8 4 17 26 36 9 -14 -11 -14 -20 -1 -8 20 -18 -20 -20 -20 -20 -20 -20 -20 -20 -20 -20
8 0 -20 -20 -20 -20 -20 -20 -20 -20 -20 -20 -20 -20 -20 -20 -20 -20 -20 -9 -10 -20 -19 5 25 39 -8 23 4 -4 -20 4 -6 -17 -19 -19 -20 -20 -20 -20 -20 -20 -20 -20 -20
9 11 -20 -20 -20 -20 -20 -20 -20 -20 -20 -20 -20 -20 -20 -20 -20 -20 -20 18 -7 -13 -20 -10 10 30 -20 -18 -14 6 -20 -15 16 -19 -18 5 -18 -20 -20 -20 -20 -20 -20 -20 -20
18 7 -20 -20 -20 -20 -20 -20 -20 -20 -20 -20 -20 -20 -20 -20 -20 -20 -20 -12 -20 -20 -20 -20 -20 -20 -20 -19 -17 -20 -20 -8 1 -17 -20 -20 -20 -20 -20 -20 -20 -20 -20 -20 -20
12 -3 -20 -20 -20 -20 -20 -20 -20 -20 -20 -20 -20 -20 -20 -20 -20 -20 -20 -15 -20 -20 -20 -20 -20 -20 -20 -20 -20 -20 -20 -20 -19 -20 -20 -20 -20 -20 -20 -20 -20 -20 -20 -20 -20
31 -20 -20 -20 -20 -20 -20 -20 -20 -20 -20 -20 -20 -20 -20 -20 -20 -20 -20 -20 -20 -20 -20 -20 -20 -20 -20 -20 -20 -20 -20 -20 -20 -20 -20 -20 -20 -20 -20 -20 -20 -20 -20 -20 -20
28 -1 -11 -20 -20 -20 -20 -16 -20 -20 -20 -20 -20 -20 -20 -20 -20 3 -20 -20 -20 -20 -20 -20 -20 -20 -20 -20 -20 -20 -20 -20 -20 -20 -20 -20 -20 -20 -20 -20 -20 -20 -20 -20 -20
10 -8 9 -9 -20 -20 -20 -6 -8 -20 -20 -20 -20 -20 -20 -20 -20 -14 7 -12 -20 -20 -20 -20 -20 -20 -20 -20 -20 -20 -20 -20 -20 -20 -20 -17 -20 -20 -20 -20 -20 -20 -20 -20 -20
-18 -20 -17 -17 -20 -20 -20 -20 -16 -15 -20 -20 -20 -20 -20 -20 -20 -20 -20 -4 -20 -20 -20 -20 -20 -20 -20 -20 -20 -20 -20 -20 -20 -10 -14 -13 -20 -20 -20 -20 -20 -20 -20 -20 -20
-7 -20 -20 -20 -20 -20 -20 -20 -20 -20 -20 -20 -20 -20 -20 -20 -20 -20 -20 -20 -20 -20 -20 -20 -20 -20 -20 -20 -20 -20 -20 -20 -20 -20 -20 -20 -15 -20 -20 -20 -18 -11 -20 -20 -20
-20 -20 -20 -20 -20 -20 -20 -5 -20 -20 -20 -20 -20 -20 -20 -20 -20 -20 -20 -20 -20 -20 -20 -20 -20 -20 -20 -20 -20 -20 -20 -20 -20 -20 -20 -20 -20 -20 -20 -20 -20 -20 -20 -20 -20

GFSSW_prec_radar_069.txt.gz
Reflectivity
-20 -15 -20 -19 9 -16 -20 -12 -20 16 -20 -20 -9 -20 -5 0 -13 -20 -20 -20 -20 -20 -7 -20 -20 -20 15 -13 8 -4 24 22 19 -20 -20 -20 -20 -20 -3 8 16 12 4 -2 19
8 -7 5 -20 2 -5 6 8 -20 -20 16 -20 13 -20 -20 -19 -20 -20 -20 -20 10 11 -20 -20 -20 -20 15 18 16 12 22 -8 21 -20 -20 -20 -20 -20 -12 2 8 14 26 31 -2
7 6 5 -17 -15 7 5 -13 -18 -20 -3 -20 4 -20 -20 -20 -20 -20 -20 5 -20 -15 -17 -10 7 14 18 27 8 -15 15 -14 17 3 7 -18 5 -20 1 -2 7 14 23 25 21
27 7 18 -15 -20 -16 1 7 -20 -20 7 -20 -7 -20 -20 -20 -20 -20 -20 -20 -20 -17 -16 25 7 9 -9 32 -3 23 21 -18 -2 22 16 -20 7 -19 -18 -17 5 13 28 17 30
23 16 21 8 -20 -16 11 12 -20 -20 14 -10 -20 -20 -20 -18 -20 -20 -20 -20 -20 -20 -20 22 20 40 30 30 23 9 -1 -5 18 21 23 -12 2 -20 -20 -20 1 10 25 7 24
24 21 22 4 -20 -19 4 -9 -20 -20 3 16 -20 -20 -20 -20 -20 -20 -20 -20 -20 -20 -1 2 -4 31 16 35 -18 -20 19 14 34 18 15 -0 -8 -20 -20 -17 -8 11 11 3 12
26 24 20 13 -15 -10 -19 -20 -20 -20 -20 4 6 -20 -20 -20 -20 -20 -20 -20 -20 6 -9 10 10 36 16 28 -6 -20 23 20 24 25 23 -1 18 15 -20 -20 -12 -0 4 2 7
28 21 24 8 -13 3 -17 -20 -20 -20 -20 4 6 -20 -20 -20 -20 -20 -20 -20 -20 3 15 4 27 18 38 26 13 14 28 40 24 19 25 19 7 13 11 -13 -19 -5 -0 30 10
28 17 26 15 -9 5 -20 -20 -20 -20 -20 9 -20 -20 -20 -20 -20 -20 -20 -20 -1 -20 16 16 24 23 38 10 7 0 33 24 13 16 14 22 8 12 -20 -4 -20 -19 -8 4 9
26 19 26 4 5 -3 -20 -20 -20 -20 -20 -20 -20 -20 -20 -20 -20 -20 -20 -20 9 7 9 22 6 21 20 -0 8 7 26 29 -9 31 38 36 16 2 -20 -20 8 -5 12 -19 2
24 26 31 3 5 -15 -20 -20 -20 -20 -20 -20 -20 -20 -20 -20 7 -5 -20 -20 6 22 -15 6 13 -20 -19 29 11 15 -3 25 16 23 16 31 33 -20 -20 -20 -20 -20 -20 -20 -17
-5 23 23 7 2 -20 -20 -20 -20 -20 -20 -20 -20 -20 -20 -20 2 -20 -20 -16 -14 5 2 18 20 -2 -20 -20 3 11 8 33 28 34 4 32 37 18 -16 -20 -20 -20 -20 -20 -20
-2 25 28 2 -9 -20 -20 -20 -20 -20 -20 -20 -20 -20 -20 -20 -20 11 -20 -20 -20 12 12 -20 -14 -20 -20 -11 18 18 -20 20 33 33 13 34 17 7 31 28 -19 -20 -20 -20 -20
26 26 27 9 -17 -20 -20 -20 -20 -20 -20 -20 -20 -20 -20 -20 -4 17 20 31 7 -5 -10 6 -5 -20 -20 37 24 -19 -18 12 18 5 14 15 -14 -6 26 23 -20 -20 -20 -20 -20
24 27 21 16 -20 -20 -20 -20 -20 -20 -20 -20 -20 -20 -20 18 4 22 5 24 -4 3 -12 0 -2 -19 3 37 32 -19 -17 1 8 13 12 5 10 -20 9 -15 -20 -20 -20 -20 -20
22 28 31 10 -20 -20 -20 -20 -20 -20 -20 -20 -20 -20 -13 12 26 29 26 26 28 -2 14 18 1 4 38 13 -20 8 6 22 -1 -12 -5 4 -20 -20 -20 -20 -18 7 -20 -20 -20
23 31 27 -1 -20 -18 -20 -20 -20 -20 -20 -20 -20 -20 -20 -19 6 -9 13 13 26 5 -1 -7 -10 12 11 -18 -20 -11 6 20 18 25 15 21 -2 -20 -20 -20 -17 -20 -20 -20 -20
26 30 25 -15 -20 -14 -20 -20 -20 -20 -20 -20 -20 -20 -20 -20 -20 -20 0 -5 -10 -20 -9 -19 6 13 -20 -20 -16 -20 -3 -20 -20 9 13 15 -20 -20 -20 -20 -20 -20 -20 -20 -20
32 28 18 -20 -18 -20 -20 -20 -20 -20 -20 -20 -20 -20 -20 -20 -20 -20 -20 -9 -15 -13 21 13 27 17 -2 -20 -20 -20 -20 -20 -20 -20 7 -20 -20 -20 -20 -20 -20 -20 -20 -20 -20
31 30 7 -20 -6 -20 -20 -20 -20 -20 -20 -20 -20 -20 -20 -20 -20 -20 -20 -15 -20 -20 4 24 1 4 -20 -18 4 -14 -20 -20 -20 -20 -20 -15 -20 -20 -20 -20 -20 -20 -20 -20 -20
32 25 -13 -20 -20 -20 -20 -20 -20 -20 -20 -20 -20 -20 -20 -20 -20 -20 -20 -20 -20 -20 -20 -20 -20 -5 13 -19 -20 -20 -20 -20 -20 -20 -20 -20 -20 -20 -20 -20 -20 -20 -20 -20 -20
33 16 -20 -13 -20 -20 -20 -20 -20 -20 -20 -20 -20 -20 -20 -20 -20 -20 -20 -20 -20 -20 -20 -20 -20 -20 -20 -20 -20 -20 -20 -20 -20 -20 -20 -20 -20 -20 -20 -20 -20 -20 -20 -20 -20
32 16 -18 -20 -20 -20 -20 4 -20 -20 -20 -20 -20 -20 -20 -20 -20 -20 -20 -20 -20 -20 -20 -20 -20 -20 -20 -20 -20 -20 -20 -20 -20 -20 -20 -20 -20 -20 -20 -20 -20 -20 -20 -20 -20
38 6 1 -13 -20 -20 -7 -20 -20 -20 -20 -20 -20 -20 -20 -20 -20 -20 -20 -20 -20 -20 -20 -20 -20 -20 -20 -20 -20 -20 -20 -20 -20 -20 -20 -20 -20 -20 -20 -20 -20 -20 -20 -20 -20
23 -20 -20 1 -19 -20 -20 -1 -20 -6 -20 -20 -20 -20 -20 -20 -20 -20 -20 -20 -20 -20 -20 -20 -20 -20 -20 -20 -20 -20 -20 -20 -20 -20 -20 -20 -20 -20 -20 -20 -20 -20 -20 -20 -20
36 8 -20 -20 -20 -20 -20 -20 -15 -20 -20 -20 -20 -20 -20 -20 -20 -20 -20 -20 -20 -20 -20 -20 -20 -20 -20 -20 -20 -20 -20 -20 -20 -20 -20 -20 -20 -20 -20 -20 -20 -20 -20 -20 -20
34 -19 -20 7 -20 -18 -20 -20 -20 -20 -20 -20 -20 -20 -20 -20 -20 -20 -20 -20 -20 -20 -20 -20 -20 -20 -20 -20 -20 -20 -20 -20 -20 -20 -20 -20 -20 -20 -20 -20 -20 -20 -20 -20 -20

GFSSW_prec_radar_072.txt.gz
Reflectivity
15 16 10 -13 -10 -15 10 -6 -3 -20 -20 8 -20 -10 -20 -14 -13 -20 -20 -20 -20 -20 -12 -20 -20 -20 -20 2 3 14 18 14 -14 -6 -15 -11 8 -20 -20 -20 -20 13 19 14 21
18 16 19 9 -7 -8 7 10 -0 -20 -20 -8 7 3 -20 -20 -20 -20 -20 -20 6 -9 -8 -6 -15 -20 -20 -0 9 18 10 -18 -20 -20 -20 -20 8 -15 5 -20 -20 18 21 22 38
5 24 17 12 3 7 -19 -4 -17 -20 -16 -1 5 -2 -20 -20 -20 -20 -20 6 -20 -20 -20 -20 -20 -2 3 -13 -9 -1 -19 -20 -20 -20 -15 -4 30 13 24 -20 -20 13 12 1 24
19 21 16 20 16 18 -12 -2 4 -7 -20 -4 -20 -2 -20 -20 -20 -20 -20 -20 -20 -20 -20 -20 -19 16 14 3 -20 21 -20 -9 -19 -16 13 -20 6 -3 -15 -19 -8 11 9 9 20
8 21 13 22 15 22 -20 -20 -20 -20 -20 4 4 -14 -20 -20 -20 -20 -20 -20 -20 -20 -20 -20 -20 16 8 -17 -20 21 -2 -13 9 -20 5 16 10 9 -20 -14 -13 9 -5 -14 16
25 16 14 21 18 26 -16 -20 -1 8 -20 -11 17 -20 -20 -20 -20 -20 -20 -20 -20 -3 -20 -18 -18 33 1 -8 26 28 5 12 12 20 10 22 7 20 29 -20 -16 36 8 1 14
0 22 16 24 22 23 -4 -20 -16 10 -20 -18 12 -20 -20 -20 -20 -20 -20 -20 -20 -20 -3 11 7 25 29 30 6 16 20 24 -1 15 23 33 19 20 20 6 21 -18 14 5 2
-4 21 20 19 17 20 10 -20 -8 7 -20 -20 8 -20 -20 -20 -20 -20 -20 -20 -20 -18 11 19 14 31 33 33 34 31 18 14 -15 27 24 17 12 17 19 26 -10 33 26 30 9
12 26 8 15 22 23 3 -17 -5 -2 -20 -11 -20 -20 -20 -20 -20 -20 -20 -20 -20 -20 -9 18 2 27 17 25 34 23 -18 17 -9 25 31 17 34 19 20 22 25 25 26 26 15
12 26 13 18 15 23 -17 -20 -20 6 -20 -20 -20 -20 -20 -20 -20 -20 -20 -20 -12 -20 13 -4 13 22 -12 25 22 -4 -20 11 23 21 40 22 20 -10 17 20 14 13 10 19 22
20 30 23 12 12 24 2 -20 -20 -20 -20 -20 -20 -20 -20 -20 -20 -20 -20 -20 -20 -20 7 16 19 15 0 43 13 -20 -20 13 30 26 28 39 5 -20 -20 18 13 4 4 15 25
19 26 24 33 18 24 21 -20 -20 -20 -20 -20 -20 -20 -20 -20 -20 -18 -20 -19 -20 -18 10 9 22 -17 35 36 -2 -19 4 31 18 33 36 11 -19 10 -6 9 16 18 10 2 15
9 29 24 30 21 20 5 -16 -20 -20 -20 -20 -20 -20 -20 -20 -20 -9 -10 -8 -20 19 5 6 -3 -19 -7 28 18 5 -9 5 38 34 25 17 -1 36 29 16 10 12 -10 -6 -7
11 29 25 21 20 29 -7 -20 -20 -20 -20 -20 -20 -20 -20 -20 -14 -15 24 21 -12 -2 6 -10 8 -20 -20 -20 7 -17 -19 -8 26 26 18 9 17 36 33 14 15 11 18 -20 -20
-17 26 24 21 19 17 5 10 -20 -20 -20 -20 -20 -20 -20 -8 -11 16 3 16 7 2 16 6 9 8 -20 -19 5 -2 -20 -19 6 16 11 14 20 16 14 13 -20 -20 9 -20 -20
-18 26 24 16 30 23 18 -4 -20 -20 -20 -20 -20 -20 -20 -2 9 -7 13 13 -5 11 16 9 -20 -20 6 38 1 -17 -18 -7 -6 14 -0 11 18 -8 4 -20 9 30 14 -13 -15
15 32 21 17 29 18 1 -20 -14 -20 -20 -20 -20 -20 -20 -17 -11 7 22 20 25 4 -15 -16 -5 18 38 21 18 3 -13 11 13 -1 4 -17 -2 -20 -20 -20 -15 11 -2 -19 -20
25 34 26 25 31 11 -16 -20 -20 -20 -20 -20 -20 -20 -20 -20 10 -10 -14 12 -20 -20 -20 -17 15 12 26 10 7 21 15 7 -17 -19 4 -8 -20 -20 -20 -20 -20 -20 -13 -20 -20
31 30 24 32 27 6 -20 -20 -20 -20 -20 -20 -20 -20 -20 -20 -6 -3 21 14 -19 -19 -13 -18 13 -13 -20 -20 -20 -13 -2 -20 -20 -19 -18 1 -18 -20 -20 -20 -20 -20 -12 -20 -20
22 30 25 28 19 -17 -20 -20 -20 -20 -20 -20 -20 -20 -20 -20 -20 -20 -13 -10 9 -2 -9 -1 10 -14 -20 -20 -20 -20 -10 -20 -20 -20 -16 -20 -4 -20 -20 -20 -20 -20 -20 -20 -20
32 31 34 27 3 -11 -20 -20 -20 -20 -20 -20 -20 -20 -20 -20 -20 -20 -20 -20 -20 -20 -18 -20 -20 -15 -20 -20 -20 -20 -20 -20 -20 -18 -20 -20 -20 -20 -20 -20 -20 -20 -20 -20 -20
31 30 31 15 16 -16 -20 -20 -20 -20 -20 -20 -20 -20 -20 -20 -20 -20 -20 -20 -20 -20 -20 -20 -20 -20 -20 -20 -20 -20 -20 -20 -20 -20 -20 -20 -20 -20 -20 -20 -20 -20 -20 -20 -20
34 32 33 1 7 -14 -20 -20 -20 -20 -20 -20 -20 -20 -20 -20 -20 -20 -20 -20 -20 -20 -20 -20 -20 -20 -20 -20 -20 -20 -20 -20 -20 -20 -20 -20 -20 -20 -20 -20 -20 -20 -20 -20 -20
27 26 31 3 -5 -20 -20 -20 -20 -20 -20 -20 -20 -20 -20 -20 -20 -20 -20 -20 -20 -20 -20 -20 -20 -20 -20 -20 -20 -20 -20 -20 -20 -20 -20 -20 -20 -20 -20 -20 -20 -20 -20 -20 -20
29 30 22 8 -0 -20 -20 -20 -20 -20 -20 -20 -20 -20 -20 -20 -20 -20 -20 -20 -20 -20 -20 -20 -20 -20 -20 -20 -20 -20 -20 -20 -20 -20 -20 -20 -20 -20 -20 -20 -20 -20 -20 -20 -20
26 29 22 -4 -20 -20 -20 -20 -20 -20 -20 -20 -20 -20 -20 -20 -20 -20 -20 -20 -20 -20 -20 -20 -20 -20 -20 -20 -20 -20 -20 -20 -20 -20 -20 -20 -20 -20 -20 -20 -20 -20 -20 -20 -20
19 23 -17 12 -20 -20 -20 -20 -19 -20 -20 -20 -20 -20 -20 -20 -20 -20 -20 -20 -20 -20 -20 -20 -20 -20 -20 -20 -20 -20 -20 -20 -20 -20 -20 -20 -20 -20 -20 -20 -20 -20 -20 -20 -20

GFSSW_prec_radar_075.txt.gz
Reflectivity
21 3 8 10 3 11 5 -2 -17 9 6 -20 -14 -5 5 -20 -20 -20 -20 -20 -20 -20 7 -20 -20 -20 -20 -20 -15 -5 17 -8 -20 1 -20 -20 -10 -20 -20 -20 -20 -20 -20 13 22
-17 22 20 15 -6 3 -8 -10 4 -2 -5 -20 -12 10 -8 -20 -20 -20 -20 -20 -9 -0 -20 -20 -20 -20 -20 -3 -20 -4 -12 -20 -20 -20 -20 -20 -20 7 -7 -20 -20 -20 -20 13 -1
8 6 -1 18 13 19 7 12 -18 -20 2 -20 16 8 -18 -20 -20 -20 -20 -20 -1 -20 -20 -20 -20 -20 4 2 4 -20 -20 -20 -20 -20 -20 -20 8 15 23 19 -20 -20 -20 6 16
11 -5 21 21 20 9 16 4 -8 6 -11 -20 20 9 -20 -20 -20 -20 -20 -20 -20 -20 -20 -20 -18 -20 3 -15 -20 -10 -20 -20 -20 -20 6 -20 -9 11 2 -20 -20 -20 -16 10 16
9 -1 13 7 17 11 15 2 15 1 -18 -20 -13 -7 -20 -20 -20 -20 -20 -20 -20 -20 -20 -20 -20 -1 11 7 -20 -1 -20 -13 -20 -19 6 5 -8 -20 -4 -19 4 -19 -20 3 -8
-10 10 -5 19 15 -2 14 4 1 -5 -20 -20 -13 -20 -20 -20 -20 -20 -20 -20 -20 -20 -20 -20 -20 -5 -11 13 -0 -20 -18 -11 -17 -20 2 -10 9 -20 -20 6 12 15 -13 4 -5
-18 -19 3 13 14 6 -2 20 8 -20 -20 -20 -10 -20 -20 -20 -20 -20 -20 -20 -20 -20 -20 -20 -20 20 -17 10 5 8 4 -20 -20 -20 -14 4 19 -18 -13 12 -12 31 -10 12 6
-17 -5 20 -1 25 4 20 19 3 -11 -20 -20 16 -20 -20 -20 -20 -20 -20 -20 -20 -20 -20 -20 -3 8 -13 10 32 12 21 -4 -20 -7 -18 25 -14 -19 14 -8 -20 18 11 31 -9
-15 -20 23 25 19 19 22 13 17 -1 16 14 2 -20 -20 -20 -20 -20 -20 -20 -20 -20 -20 19 3 -20 -20 37 31 8 4 13 25 -20 16 9 -5 -20 20 4 18 18 3 14 31
-2 -20 2 23 20 16 23 14 4 12 13 8 -20 -20 -20 -20 -20 -20 -20 -20 -20 -9 12 20 -17 2 25 17 22 17 5 25 -7 11 -10 30 -9 -20 5 18 18 -1 21 33 36
-14 -20 -11 16 26 22 22 12 9 8 -1 -20 -20 -20 -20 -20 -20 -20 -20 -20 -20 4 -20 11 7 6 29 4 32 36 18 -4 -4 -20 -0 40 11 -13 -20 10 11 20 20 26 28
-20 -6 -3 14 24 22 19 25 9 4 -2 -20 -16 -20 -20 -20 -20 -20 -20 -18 -20 -20 16 -3 5 3 18 30 31 28 -19 -3 8 23 11 1 36 19 2 27 12 -18 4 19 14
-20 8 -20 29 23 13 18 13 25 16 8 3 -19 -20 -20 -20 -20 -20 -20 -20 -18 -17 22 17 -4 6 27 41 24 24 -2 14 35 28 8 32 32 40 0 11 16 -3 24 22 17
-20 0 -18 34 20 -10 2 20 12 19 -19 2 -20 -20 -20 -20 -1 -14 -11 -17 -7 -13 6 19 8 18 -19 14 21 14 -20 6 5 20 18 27 25 26 17 13 18 18 5 26 22
-20 -20 -20 33 -7 -10 19 26 15 9 -4 -9 -20 -20 -20 -18 -8 15 -18 2 5 11 28 4 19 14 -20 -19 17 27 17 14 11 -15 15 33 31 11 -20 -20 5 8 25 28 17
-6 -20 -20 34 6 22 19 25 17 -17 6 -20 -20 -20 -20 -14 -1 3 8 8 8 32 23 9 -20 -2 -20 -20 -4 10 9 -1 -20 -15 10 26 -3 -20 -20 -4 4 33 11 21 23
5 -18 12 31 1 18 33 19 -9 -4 -15 -20 -20 -20 -20 -20 -11 -5 19 -14 14 4 -16 -20 -4 32 39 28 -1 -5 -20 -20 -20 -20 15 24 -20 7 -20 -20 18 22 32 14 -16
16 -15 20 13 17 29 21 -5 18 -4 -20 -20 -20 -20 -20 -20 -13 -5 4 16 -20 -20 -20 -20 -9 28 32 28 10 -10 -4 -20 -20 -20 16 25 -20 12 7 -2 16 26 -16 -10 -20
16 34 26 19 24 28 7 20 -4 -20 -20 -20 -20 -20 -20 -20 -20 26 24 15 -19 -6 -4 9 26 15 26 16 -4 -19 -20 -20 -19 -2 2 -20 -7 -20 -20 -20 -20 -18 -9 19 16
11 26 28 30 29 24 20 11 -1 -20 -20 -20 -20 -20 -20 -20 -20 -4 -19 -4 26 -15 -2 -20 4 -11 -20 -20 -15 -20 -20 13 -11 -6 6 6 -20 -20 -20 -20 -20 -20 -17 -12 -20
14 32 32 31 34 23 19 -13 -20 -20 -20 -20 -20 -20 -20 -20 -20 -20 -17 17 17 -7 -20 -20 -20 -1 -20 -20 -19 -20 -20 -20 -20 -16 -20 -20 -20 -20 -20 -20 -20 -20 -20 -20 -20
26 28 27 21 31 20 12 -18 -20 -20 -20 -20 -20 -20 -20 -20 -20 -20 -20 -20 -20 -20 -20 -20 -20 -20 -20 -20 -20 -20 -20 -20 -20 -20 -20 -20 -20 -20 -20 -20 -20 -20 -20 -20 -20
24 31 32 27 24 10 -6 -20 -20 -20 -20 -20 -20 -20 -20 -20 -20 -20 -20 -20 -20 -20 -20 -20 -20 -20 -20 -20 -20 -20 -20 -20 -20 -20 -20 -20 -20 -20 -20 -20 -20 -20 -20 -20 -20
28 25 33 33 11 -20 18 -20 -20 -20 -20 -20 -20 -20 -20 -20 -20 -20 -20 -20 -20 -20 -20 -20 -20 -20 -20 -20 -20 -20 -20 -20 -20 -20 -20 -20 -20 -20 -20 -20 -20 -20 -20 -20 -20
29 35 14 13 3 14 -3 -20 -20 -20 -20 -20 -20 -20 -20 -20 -20 -20 -20 -20 -20 -20 -20 -20 -20 -20 -20 -20 -20 -20 -20 -20 -20 -20 -20 -20 -20 -20 -20 -20 -20 -20 -20 -20 -20
29 29 28 5 -20 7 -17 -20 -20 -20 -20 -20 -20 -20 -20 -20 -20 -20 -20 -20 -20 -20 -20 -20 -20 -20 -20 -20 -20 -20 -20 -20 -20 -20 -20 -20 -20 -20 -20 -20 -20 -20 -20 -20 -20
20 10 19 -16 -20 15 -20 -20 -20 -20 -20 -20 -20 -20 -20 -20 -20 -20 -20 -20 -20 -20 -20 -20 -20 -20 -20 -20 -20 -20 -20 -20 -20 -20 -20 -20 -20 -20 -20 -20 -20 -20 -20 -20 -20

GFSSW_prec_radar_078.txt.gz
Reflectivity
6 15 4 21 15 11 9 -5 -20 -17 -20 -20 -20 -20 -20 -20 -20 -20 -20 -20 -20 -20 7 7 -15 5 -20 -20 -20 -9 13 2 -20 -20 -20 -20 -20 -20 -20 -20 -20 -20 -20 -20 -20
10 5 11 2 -18 13 -1 -5 -20 -20 -20 -20 -20 -6 -20 -20 -20 -20 -20 -20 -20 8 -20 -20 -20 -20 3 -20 -20 -10 -2 -20 -20 -20 -20 -20 -20 -20 -20 -20 -20 -20 -20 -20 -20
-3 2 -1 -18 -10 20 2 -19 -20 -20 -16 -20 -20 11 -20 -20 -20 -20 -20 -20 -3 -20 -20 -20 -20 -20 -20 -4 7 -20 -20 -20 -20 -20 -20 -20 -20 -20 -20 -20 -20 -20 -20 -20 -13
-18 -18 6 8 16 9 3 2 -20 -15 1 -20 -20 9 -20 -20 -20 -20 -20 -20 -8 -20 -20 -20 -20 -20 -20 -20 -19 10 -20 -20 -20 -20 -20 -20 -20 -20 -20 -20 -20 -20 -6 37 -5
8 -7 5 -20 15 16 -12 12 1 -11 -12 -18 -20 -20 -20 -20 -20 -20 -20 -20 -20 -20 -20 -20 -20 -20 -20 -20 -17 2 -20 -20 -20 -20 -20 -20 -20 -20 -20 -20 -7 12 -20 -20 2
14 -17 13 -20 3 13 24 8 -17 2 6 -14 -20 -20 -20 -20 -20 -20 -20 -20 -20 -20 -20 -20 -20 -4 -1 1 5 -20 -20 -20 -20 -1 -7 -20 -20 6 -20 -20 16 10 -20 -20 -8
-18 -14 8 12 9 21 9 23 -20 17 -15 -20 -20 -8 -20 -20 -20 -20 -20 -20 -20 -20 -20 -20 -20 5 4 5 -19 8 7 4 -19 -6 4 -20 11 -17 -20 -20 4 17 -20 -20 -16
-13 8 -9 10 29 -10 20 14 -8 10 -19 -20 5 -20 -20 -20 -20 -20 -20 -20 -20 -20 -20 -20 -4 12 21 -15 2 12 8 15 -20 -20 -20 14 -19 -20 -20 -20 -20 -20 -15 -20 27
-7 4 -18 13 27 29 8 25 5 14 -20 -7 -20 -20 -20 -20 -20 -20 -20 -20 -20 -20 -20 -20 17 12 18 17 15 4 12 10 2 -20 -15 12 -2 -20 -20 -20 -20 -20 -20 -20 37
-13 3 -20 -20 24 20 8 15 20 4 6 -20 -20 -20 -20 -20 -20 -20 -20 -20 -12 14 -1 8 18 17 8 21 5 33 9 -13 -10 -20 -20 13 2 -4 -20 -20 -20 -20 -20 4 36
-20 -20 -20 12 27 21 4 16 20 16 -16 -20 -17 0 -20 -20 -20 -20 -20 -20 11 22 4 22 10 5 -6 15 20 29 35 6 -15 -16 -14 -1 3 -8 -2 -20 -20 -20 -6 27 27
-20 -20 -20 -1 31 19 -14 14 7 10 -13 -20 -14 -0 -19 -20 -20 -20 -20 -14 -20 -7 2 16 -8 -20 -4 11 12 25 22 26 20 22 23 -0 9 -14 20 -11 -20 -20 -7 13 32
12 -20 -20 -20 30 15 -19 4 4 -5 -20 -14 -4 -7 -20 -20 -12 -20 -20 -10 -5 -3 -20 11 -20 -5 23 28 24 -5 16 24 16 4 -10 -1 25 18 10 1 -15 -8 11 24 32
9 -20 -20 3 28 5 -1 24 14 -15 -20 -9 -7 -13 -20 -20 -20 -20 12 -14 -8 -16 5 5 -2 18 30 31 4 15 4 5 30 32 22 5 5 23 30 17 22 37 -19 21 33
18 23 -16 -17 19 20 -19 17 -20 -20 -1 -4 0 -20 -20 -3 11 10 -17 -19 5 5 25 5 11 16 17 27 -8 19 30 30 23 9 12 -1 27 29 33 20 35 5 1 23 19
16 16 16 -8 15 10 2 11 -19 -20 2 7 -8 -20 -3 3 7 -15 2 -10 -5 19 18 10 -20 -0 -18 -7 -20 4 14 12 8 -2 12 30 19 5 35 22 34 7 -12 5 13
16 8 11 20 17 12 26 26 -6 -20 10 1 -20 -20 2 -13 10 2 -5 -20 1 13 -7 6 12 -12 -20 13 34 -15 11 12 17 14 15 29 11 15 20 -18 -20 -20 -12 12 36
34 21 -8 32 9 8 33 17 -13 10 9 -10 -20 -20 7 -20 -20 1 -8 -2 -20 0 -1 5 25 28 6 2 -7 -7 -20 -8 6 18 14 3 6 -14 -20 -20 -20 -15 4 3 29
20 16 7 18 24 20 24 3 12 13 -0 -20 -20 -20 -20 -20 -20 -14 -0 10 -18 2 7 27 25 34 -9 -19 -10 -14 -20 -20 -20 -20 -14 -3 -20 -20 -20 -14 24 10 20 24 26
7 18 28 12 25 33 28 15 11 5 -20 -20 -20 -20 -20 -20 -20 -20 -18 -17 13 23 9 3 11 -8 4 -20 -20 -20 -20 -16 -20 -20 -9 -12 -20 -20 -20 -20 -5 -1 17 34 32
4 31 32 35 35 28 25 21 -3 -20 -20 -20 -20 -20 -20 -20 -20 -20 18 12 -15 -20 -20 -20 -20 -8 -20 -20 -20 -20 -20 -20 -19 -20 -20 -20 -20 -20 -20 -20 -20 -20 -18 9 13
-19 21 37 33 29 31 21 -16 -20 -20 -20 -20 -20 -20 -20 -20 -20 -20 2 -1 -15 -20 -20 -20 -20 -20 -20 -20 -20 -20 -20 -20 -20 -20 -20 -20 -20 -20 -20 -20 -20 -20 -20 -20 -19
22 31 36 31 23 19 4 -18 -20 -20 -20 -20 -20 -20 -20 -20 -20 -20 -20 -20 -20 -20 -20 -20 -20 -20 -20 -20 -20 -20 -20 -20 -20 -20 -20 -20 -20 -20 -20 -20 -20 -20 -20 -20 -20
21 26 32 30 26 -10 16 -20 -20 -20 -20 -20 -20 -20 -20 -20 -20 -20 -20 -20 -20 -20 -20 -20 -20 -20 -20 -20 -20 -20 -20 -20 -20 -20 -20 -20 -20 -20 -20 -20 -20 -20 -20 -20 -20
26 29 19 17 7 -20 -18 -20 -20 -20 -20 -20 -20 -20 -20 -20 -20 -20 -20 -20 -20 -20 -20 -20 -20 -20 -20 -20 -20 -20 -20 -20 -20 -20 -20 -20 -20 -20 -20 -20 -20 -20 -20 -20 -20
-3 24 24 -20 -20 28 -20 -20 -20 -20 -20 -20 -20 -20 -20 -20 -20 -20 -20 -20 -20 -20 -20 -20 -20 -20 -20 -20 -20 -20 -20 -20 -20 -20 -20 -20 -20 -20 -20 -20 -20 -20 -20 -20 -20
-20 -9 -19 -19 -19 -0 -11 -20 -20 -20 -20 -20 -20 -20 -20 -20 -20 -20 -20 -20 -20 -20 -20 -20 -20 -20 -20 -20 -20 -20 -20 -20 -20 -20 -20 -20 -20 -20 -20 -20 -20 -20 -20 -20 -20

GFSSW_prec_radar_081.txt.gz
Reflectivity
9 8 9 16 7 19 -7 -5 -8 -20 -20 -20 -20 -20 8 -20 -20 -20 -20 -20 -20 -20 -20 -10 -20 -20 -20 -20 -20 -20 10 -7 -20 -20 -20 -20 -20 -20 -20 -20 -20 -20 -4 1 6
12 -9 -10 12 9 10 -1 5 1 -20 -20 -20 -20 -20 -20 -20 -20 -20 -20 -20 -20 -20 -9 -12 -10 -20 -5 -20 -20 -20 -20 -20 -20 -20 -20 -20 -20 -20 -20 -20 -20 -20 5 -18 -17
12 10 12 -17 5 -8 22 10 -11 10 -20 -20 -20 -20 -20 -20 -20 -20 -20 -20 -11 -20 -20 -20 -20 -20 -20 -15 2 -20 -20 -20 -20 -20 -20 -20 -20 -20 -20 -20 -20 -20 -12 3 -20
12 9 12 7 10 -18 24 9 13 4 -17 -20 -20 -20 -20 -20 -20 -20 -20 -20 6 -20 -20 -20 -20 -20 -20 -15 -20 -7 -20 -20 -20 -20 -20 -20 -20 -20 -20 -20 -20 -20 -19 17 -10
13 9 12 10 6 -12 18 18 12 -5 -20 -20 -20 -20 -20 -20 -20 -20 -20 -20 -20 -20 -20 -20 -20 -20 -20 -20 -20 -20 -20 -20 -20 -20 -20 -20 -20 -20 -20 -20 -20 -20 24 17 -17
-15 12 3 -18 -19 5 7 14 -10 23 2 -20 -20 -20 -20 -20 -20 -20 -20 -20 -20 -20 -20 -20 -20 -20 -20 -20 -20 -20 -20 -20 -20 -20 -20 -20 -20 -20 -20 -20 -20 -20 -20 27 -20
-16 -4 11 -13 10 4 26 20 14 20 15 1 -20 -20 -20 -20 -20 -20 -20 -20 -20 -20 -20 -20 -20 -20 -19 -15 -20 -20 0 -20 -20 -20 -20 -20 1 -20 -20 -20 -20 -20 -20 -20 -20
-18 -8 5 -20 4 14 23 14 18 12 -14 -20 -20 -7 -20 -20 -20 -20 -20 -20 -20 -20 -20 -20 -20 -20 -10 -16 -8 9 16 12 -20 -14 -20 -14 -12 -20 -20 -20 -19 -20 -20 -20 3
-20 -20 -20 -20 -1 24 13 15 18 13 3 -14 -2 -6 -20 -20 -20 -20 -20 -20 -20 -20 -20 -20 -6 7 11 7 10 7 -1 -0 -16 -20 1 -3 -20 -20 -20 -20 -20 -20 -20 -20 -0
-17 -9 -20 -20 6 20 23 12 15 0 -1 -13 -20 -15 -20 -20 -20 -20 -20 -20 -20 -11 2 -7 18 16 2 -10 6 8 24 9 -0 -19 -13 0 -15 -20 -20 -20 -20 -20 -20 23 -6
-20 3 -20 -20 19 26 12 16 -9 27 -14 4 -20 -20 -20 -20 -20 -20 -20 -12 7 8 14 14 2 16 8 9 -7 3 10 10 15 20 1 -20 5 -20 -20 5 -4 -20 1 8 -20
8 -20 -20 -20 1 35 22 22 11 26 -15 -20 -20 -20 -20 -20 -20 -20 -20 6 5 8 19 10 3 0 -2 -11 6 -4 16 9 -1 13 -7 -20 4 -15 -20 -20 -20 -19 -16 -20 -16
-18 -20 -20 -18 -20 18 -13 18 -16 20 -19 -20 -20 -20 -20 -20 -20 -9 -20 4 9 3 5 10 -5 -4 17 24 20 2 4 18 37 12 16 15 16 -10 -20 -7 -4 -19 -20 -20 14
-20 -20 -2 -20 14 6 19 12 -3 -16 9 -20 -20 -20 -20 -20 -20 -16 -20 3 13 7 9 6 -8 3 18 33 24 -9 -6 31 12 20 23 11 17 -7 -20 -18 -20 -1 -20 -18 23
14 -20 -20 -15 10 23 11 4 35 4 12 -20 -20 -20 -20 -17 -17 -19 -16 9 3 10 15 13 -19 25 17 26 16 30 -1 14 31 11 5 -7 12 -6 -8 1 22 24 -2 27 19
22 25 -20 4 12 -13 17 -1 17 13 -4 -20 -20 -17 -20 -20 5 -8 7 -16 0 15 13 -9 2 8 9 -15 6 10 18 7 32 24 17 11 -9 8 28 27 12 12 -1 31 5
28 20 -6 12 -15 10 -7 31 17 14 -20 -20 -20 -20 -20 -17 16 10 -16 6 7 10 -9 4 -3 -6 -12 -1 -9 14 5 12 23 26 15 15 -20 17 19 -3 3 22 39 33 6
33 19 -9 -18 -20 20 16 37 15 -20 -20 -20 -19 -20 6 -14 -17 -14 3 7 -20 2 12 8 0 2 29 27 12 31 5 13 20 22 11 15 11 17 28 21 34 35 16 5 -3
-12 16 9 -18 8 14 28 20 13 -20 -6 -3 -19 -6 -13 10 7 -12 -20 3 -15 10 26 27 -0 -16 -20 -20 -15 1 -2 -15 -8 -20 -19 5 16 27 26 30 28 17 0 16 23
14 24 23 5 -7 18 33 31 -6 5 -13 -20 -20 -6 3 -10 6 5 12 -17 -6 3 24 29 29 12 -20 -16 -20 -20 1 -1 -9 15 1 -1 -12 -6 17 22 20 17 11 2 19
-18 19 24 14 19 33 33 29 14 -11 -20 -20 -20 -20 5 -1 10 2 -18 -15 -20 -7 19 -17 20 -17 -19 -17 -20 -20 -20 -20 -20 -15 0 -10 -11 -20 -20 -20 -13 20 32 16 16
-19 28 24 26 34 30 32 13 -20 -20 -20 -20 -20 -20 5 -5 -3 3 9 -10 -20 -20 -16 -17 -19 -19 -20 -20 -20 -20 -20 -17 -20 -20 -20 -20 -20 -20 -20 -20 -20 -20 -20 -20 -7
3 34 33 31 26 29 16 -20 -20 -20 -20 -20 -20 -20 -20 -20 -10 -1 -5 -20 -20 -20 -20 -20 -20 -14 -15 -20 -20 -20 -20 -20 -20 -20 -20 -20 -20 -20 -20 -20 -20 -20 -20 -20 -20
-1 17 18 18 16 20 -2 -20 -20 -20 -20 -20 -20 -20 -20 -20 -20 -7 -20 -20 -20 -20 -20 -20 -20 -20 -19 -20 -20 -20 -20 -20 -20 -20 -20 -20 -20 -20 -20 -20 -20 -20 -20 -20 -20
-15 8 7 29 7 -6 -12 -20 -20 -14 -20 -20 -20 -20 -20 -20 -20 -20 -20 -20 -20 -20 -20 -20 -20 -20 -20 -20 -20 -20 -20 -20 -20 -20 -20 -20 -20 -20 -20 -20 -20 -20 -20 -20 -20
-20 -0 -17 -20 -20 -20 -20 -20 -20 -20 -3 -20 -20 -20 -20 -20 -20 -20 -20 -20 -20 -20 -20 -20 -20 -20 -20 -20 -20 -20 -20 -20 -20 -20 -20 -20 -20 -20 -20 -20 -20 -20 -20 -20 -20
-13 -20 -20 -20 -20 3 -17 -20 -20 -20 -20 -20 -20 -20 -20 -20 -20 -20 -20 -20 -20 -20 -20 -20 -20 -20 -20 -20 -20 -20 -20 -20 -20 -20 -20 -20 -20 -20 -20 -20 -20 -20 -20 -20 -20

GFSSW_prec_radar_084.txt.gz
Reflectivity
-20 -20 -6 -19 -12 2 16 24 5 10 -19 -20 -20 -20 -20 -20 -20 -20 -20 -20 -20 -20 -20 -20 -20 -20 -20 -20 -20 -20 -4 -13 -20 -20 -20 -20 -20 -20 -20 -20 -20 -20 -20 -20 -20
12 13 14 -7 -20 -3 15 -12 21 7 18 -20 -20 -20 -20 -20 -20 -20 -20 -20 -20 -20 -20 -20 -20 -20 -20 -20 -20 -20 -20 -20 -20 -20 -20 -20 -20 -20 -20 -20 -20 -20 -20 -20 -20
15 13 14 11 -9 6 16 -20 26 5 7 -16 -20 -20 -20 -20 -20 -20 -20 -20 -20 -20 -20 -20 -20 -20 -20 -20 -20 -20 -20 -20 -20 -20 -20 -20 -20 -20 -20 -20 -20 -10 -20 -20 -20
1 -10 13 10 4 11 0 -6 30 12 -0 -20 -20 -20 -20 -20 -20 -20 -20 -20 -20 -20 -20 -20 -20 -20 -20 -20 -20 -20 -20 -20 -20 -20 -20 -20 -20 -20 -20 -20 -20 -19 -20 -13 -20
4 -16 7 5 -4 -5 -19 5 25 -6 15 -20 -20 -20 -20 -20 -20 -20 -20 -20 -20 -20 -20 -20 -20 -20 -20 -20 -20 -20 -20 -20 -20 -20 -20 -20 -20 -20 -20 -20 -20 -7 -20 -17 3
8 7 -7 -11 -20 15 11 2 27 7 14 24 -4 -20 -20 -20 -20 -20 -20 -20 -20 -20 -20 -20 -20 -20 -20 -20 -20 -20 -20 -20 -20 -20 -20 -20 -20 -20 -20 -20 -20 -20 -20 -20 -20
9 12 -14 -20 0 -13 7 19 19 11 10 1 18 -20 -20 -20 -20 -20 -20 -20 -20 -20 -20 -20 -20 -20 -20 -20 -20 -20 -20 -20 -20 -20 -20 -20 -20 -20 -20 -20 -20 -20 -20 -20 -20
17 -18 -20 5 -18 -0 10 27 6 12 9 18 -1 -20 -20 -20 -20 -20 -20 -20 -20 -20 -20 -20 -20 -20 -20 -20 -20 -17 -19 -20 -20 -20 -20 -6 -16 -20 -20 -20 -20 -20 -20 -20 -20
2 8 -3 -20 -20 6 5 27 24 3 -4 24 -19 -20 -20 -20 -20 -20 -20 -20 -20 -20 -20 -20 -14 -11 -9 3 4 -9 -12 -20 -20 -5 -8 -13 -20 -20 -20 -20 -20 -20 -20 -20 -20
-20 -20 -12 -20 -20 6 33 32 22 -7 16 5 -20 -13 -20 -20 -20 -20 -20 -20 -20 -20 -20 -1 10 3 11 5 -7 -20 1 -6 23 -5 21 -1 -20 -20 -20 -14 -20 -20 -20 -18 -20
-20 -20 -20 -20 -9 20 23 39 12 -3 6 -19 -20 -20 -20 -20 -20 -20 -20 -20 -14 -20 -4 -13 12 -4 -4 -20 -20 -20 -20 -7 -20 -20 24 12 -20 -20 29 7 23 -20 -20 -20 19
19 -20 -20 -20 -2 -18 30 28 21 36 14 -19 -20 -20 -20 -20 -20 -20 -20 -20 -7 -20 -14 9 2 -20 -17 23 18 10 -8 -8 -10 -20 15 29 -20 -20 -20 28 -20 -20 -20 -7 29
18 -20 -20 -20 -20 5 33 20 23 12 22 26 -20 -20 -20 -20 -20 -18 -20 -20 -20 -20 -8 -1 -20 5 12 -12 10 -19 3 6 14 21 7 23 5 -13 9 -18 -20 -20 -20 4 30
-20 -19 -20 -20 -13 -13 8 38 6 5 33 -20 -20 -20 -20 -20 -11 -18 -20 -20 -17 -16 6 7 -17 -20 -20 9 28 5 -7 24 15 6 -11 -17 -8 0 -14 -20 -20 -20 -20 -19 12
0 -5 -17 -15 9 -20 -7 8 5 -18 -1 -14 -19 -20 -20 4 -10 0 -20 -20 -20 8 14 -20 -17 -2 23 -1 26 25 -5 19 16 19 21 3 24 -3 -20 -20 -20 14 -19 -18 -8
12 19 -20 -6 11 -4 9 8 9 12 3 -19 -12 -11 -1 -20 -4 -9 -12 -20 -20 4 1 -17 -20 24 -8 -5 17 7 17 25 24 -8 -11 3 -0 -3 -10 -10 -20 17 -10 5 27
33 -7 3 12 13 -14 24 -1 26 12 -10 -20 -16 2 2 -2 -1 -20 -19 -19 2 13 -13 -20 2 -20 -20 -16 -2 17 31 20 26 28 5 -12 -13 -16 6 12 9 27 12 31 30
24 9 10 16 22 -17 -5 -11 6 -6 -17 -20 -8 7 -1 -20 -20 -3 -20 -17 -15 2 26 1 -8 -0 -2 -3 31 23 22 21 26 15 -1 14 -4 11 21 29 14 -20 17 12 38
-7 19 12 -7 12 2 -20 12 19 -1 -20 -19 7 -11 -5 -20 -20 -20 -20 12 4 21 25 14 10 -12 -20 -20 -1 -19 32 24 29 21 -0 21 30 36 31 27 27 13 34 31 31
17 9 28 -18 1 -2 -3 30 18 -20 -20 -11 -20 -20 -20 -20 -17 -14 17 -20 -16 23 -20 -0 5 6 7 -0 -16 -12 -7 2 13 13 5 16 -11 30 31 34 34 26 29 27 20
-13 4 3 18 -9 -14 11 28 6 6 22 -14 -15 -20 -15 -3 5 7 -19 -20 3 26 -20 -20 8 -7 7 -17 -20 -19 -15 -16 -20 -20 -15 -20 4 18 23 28 18 18 15 15 25
-20 12 12 -20 -17 15 35 28 -3 -19 -20 -20 -20 -20 -19 -19 -20 -4 -20 -20 -2 -20 -19 -20 -20 -20 -19 -20 -20 -20 -20 -20 -20 -20 -20 -20 -20 -20 -20 -9 -2 22 19 20 3
10 23 -13 -2 22 33 -1 7 10 -20 -20 -20 -20 -20 -20 -20 0 -20 -20 -20 -9 -20 -20 -20 -20 -2 -20 -20 -20 -20 -20 -20 -20 -20 -20 -20 -20 -20 -20 -20 -20 -20 -20 -20 -20
-3 -6 -12 12 22 6 -10 -9 -20 -20 -20 -20 -20 -20 -12 -20 -20 -20 -20 -20 -20 -20 -20 -20 -20 -20 -20 -20 -20 -20 -20 -20 -20 -20 -20 -20 -20 -20 -20 -20 -20 -20 -20 -20 -20
-20 -11 -16 -15 -20 -9 -20 -13 -20 -20 -20 -20 -20 -20 -16 -19 -17 -20 -20 -20 -20 -20 -20 -20 -20 -20 -20 -20 -20 -20 -20 -20 -20 -20 -20 -20 -20 -20 -20 -20 -20 -20 -20 -20 -20
-20 -20 -20 -20 -20 -20 -20 -20 -20 -20 -20 -20 -20 -20 -20 -20 -20 -20 -20 -20 -20 -20 -20 -20 -20 -20 -20 -20 -20 -20 -20 -20 -20 -20 -20 -20 -20 -20 -20 -20 -20 -20 -20 -20 -20
-20 -20 -20 -20 -20 -20 -20 -20 -20 -20 -20 -20 -20 -20 -20 -20 -20 -20 -20 -20 -20 -20 -20 -20 -20 -20 -20 -20 -20 -20 -20 -20 -20 -20 -20 -20 -20 -20 -20 -20 -20 -20 -20 -20 -20

GFSSW_prec_radar_087.txt.gz
Reflectivity
13 11 11 10 -20 -10 2 6 19 22 23 -8 -20 -20 -20 -20 -20 -20 -20 -20 -20 -20 -20 -20 -20 -20 -20 -20 -20 -20 -20 -20 -20 -20 -20 -20 -20 -20 -20 -20 -20 -20 -20 -20 -7
13 13 12 14 14 8 -16 14 20 -15 30 -19 -20 -20 -20 -20 -20 -20 -20 -20 -20 -20 -20 -20 -20 -20 -20 -20 -20 -20 -20 -20 -20 -20 -20 -20 -20 -20 -20 -20 -20 -20 -20 -20 -20
13 12 11 12 14 10 12 6 -5 -11 12 11 -9 -20 -20 -20 -20 -20 -20 -20 -20 -20 -20 -20 -20 -20 -20 -20 -20 -20 -20 -20 -20 -20 -20 -20 -20 -20 -20 -20 -20 -20 -20 -20 -20
11 -5 -20 11 14 8 13 9 -2 5 26 20 -15 -16 -20 -20 -20 -20 -20 -20 -20 -20 -20 -20 -20 -20 -20 -20 -20 -20 -20 -20 -20 -20 -20 -20 -20 -20 -20 -20 -20 -20 -20 -20 -14
-2 15 10 -8 -20 12 10 -10 -16 21 22 28 -13 -10 -20 -20 -20 -20 -20 -20 -20 -20 -20 -20 -20 -20 -20 -20 -20 -20 -20 -20 -20 -20 -20 -20 -20 -20 -20 -20 -20 -20 -20 -20 -20
19 19 5 -3 -11 8 4 6 7 23 -4 9 13 4 -20 -20 -20 -20 -20 -20 -20 -20 -20 -20 -20 -20 -20 -20 -20 -20 -20 -20 -20 -20 -20 -20 -20 -20 -20 -20 -20 -20 -20 -20 -20
-10 2 -13 4 12 0 -5 -12 -4 32 25 -19 14 -19 13 -20 -20 -20 -20 -20 -20 -20 -20 -20 -20 -20 -20 -20 -20 -20 -20 -20 -20 -20 -20 -20 -20 -20 -20 -20 -20 -20 -20 -20 -20
-11 -5 -12 -19 -2 -2 -6 -9 -2 6 28 15 23 -20 -20 -20 -20 -20 -20 -20 -20 -20 -20 -20 -20 -20 -20 -20 -20 -20 -20 -20 -20 -20 -20 -20 -20 -20 -20 -20 -20 -20 -20 -20 -20
0 6 19 -20 -20 -20 16 -1 28 27 13 21 -8 -16 -14 -20 -20 -20 -20 -20 -20 -20 -20 -20 -20 -20 -20 -8 -15 -20 -20 -20 -20 -20 -20 -14 -19 -20 -20 -20 -20 -20 -20 -20 -20
-1 -5 9 -20 -20 -1 34 7 25 33 17 22 16 28 -6 -20 -20 -20 -20 -20 -20 -20 -20 -16 -20 -1 4 1 -15 -20 -20 -20 -20 -20 -20 -17 -14 -20 -20 -20 -20 -20 -20 -20 -20
-20 -20 21 -20 2 -20 31 28 9 41 30 -0 -2 -20 -19 -20 -20 -20 -20 -20 -20 -20 -20 -12 -20 -3 -20 -20 -20 -20 -20 -20 -20 -20 -2 -14 -17 -20 -20 -20 -20 -20 -20 -20 -20
17 22 13 -20 2 -20 12 32 30 36 20 24 -9 -20 -20 -20 -20 -20 -20 -20 -12 -20 -20 -15 -20 -20 -20 -20 -11 -4 -8 -20 -20 -20 17 4 -18 -20 -20 11 -20 -20 -11 -20 -8
-0 8 5 -1 -20 -12 -9 29 25 23 30 16 15 -18 -20 -20 -13 -20 -20 -20 -20 -20 -20 -20 -20 -20 -20 -20 -7 -14 4 -20 -20 6 0 -12 -12 -20 -20 -13 -20 12 8 -20 -20
19 24 23 -20 -20 -20 -5 14 27 29 32 33 8 -20 -20 -20 6 -15 -20 -20 -18 -20 -20 -20 -20 -20 -20 -20 -6 9 3 8 8 22 -16 -20 -20 -20 -20 -20 4 14 -10 18 -20
-19 14 -9 -20 -2 -20 12 24 34 17 11 27 5 -20 -20 -14 -16 -11 -20 -20 -20 -20 1 -20 -20 -20 -13 16 13 15 17 -3 -18 5 16 -15 24 -20 -20 -20 -20 -20 -20 -20 23
13 -11 -20 -20 -20 4 10 -14 26 -20 -7 -1 -6 1 -19 -2 -1 3 -20 -20 -20 -20 -20 -20 -20 -20 -7 -20 -15 6 12 26 13 21 9 -20 12 -16 -20 -20 -20 -20 -19 4 0
25 18 -20 -20 -14 -1 -16 -20 -20 -20 -15 -12 -7 -7 -10 -1 -5 -20 -11 -20 -20 -7 -20 -20 -20 -20 -20 -20 -8 25 33 23 20 -1 16 -20 -20 -20 -10 -16 -7 -0 -3 -3 6
24 17 -3 11 -20 -20 -20 -20 -20 2 -20 -20 -20 -17 -6 -17 -8 -15 -20 -20 -20 -20 4 -20 -16 -8 2 -7 24 26 31 25 18 14 -15 -20 -20 4 8 -2 3 32 29 38 41
-2 -20 -20 15 -20 -20 -15 12 17 7 -4 -4 -16 11 1 -1 -20 -20 -20 -20 -18 -4 -6 -16 -14 -20 -20 -19 6 20 25 25 17 -20 -13 6 15 24 24 21 7 5 24 30 35
-20 -20 -8 -19 -20 -20 -20 16 7 -12 -9 -20 -20 -17 -20 -20 -20 -20 -15 -20 -18 6 -20 -4 -14 -20 -13 -18 -20 1 9 -11 22 8 17 13 8 21 32 33 33 33 34 19 27
-20 -8 -19 -16 -16 -20 2 8 24 21 3 -4 -20 -18 -20 -20 -20 -15 -20 -20 -20 -20 -20 -19 17 -19 -20 -20 -6 -19 -10 6 -20 -20 -19 -13 2 30 31 28 31 20 22 22 30
-20 8 -13 -20 -20 -15 15 35 20 1 -20 -12 -20 -20 -20 -20 -20 -20 -20 -20 -20 -20 -20 -20 -20 -20 -20 -20 -20 -20 -20 -20 -20 -20 -20 -20 -20 18 22 22 25 16 12 8 20
-6 -15 -17 -20 -20 11 -20 -4 -20 -20 -20 -20 -20 -20 -20 -20 -20 -20 -20 -20 -20 -20 -20 -20 -20 -20 -20 -20 -20 -20 -20 -20 -20 -20 -20 -20 -20 -20 -20 -12 27 26 13 -12 -14
-4 -20 -20 -20 -20 -20 -20 -20 -20 -20 -20 -20 -20 -20 -20 -20 -20 -20 -20 -20 -20 -20 -20 -20 -20 -20 -20 -20 -20 -20 -20 -20 -20 -20 -20 -20 -20 -20 -20 -20 -20 -20 -20 -20 -17
-20 -20 -20 -20 -20 -20 -20 -20 -20 -20 -20 -20 -20 -20 -20 -20 -20 -20 -20 -20 -20 -20 -20 -20 -20 -20 -20 -20 -20 -20 -20 -20 -20 -20 -20 -20 -20 -20 -20 -20 -20 -20 -20 -20 -20
-20 -20 -20 -20 -20 -20 -20 -20 -20 -20 -20 -20 -20 -20 -20 -20 -20 -20 -20 -20 -20 -20 -20 -20 -20 -20 -20 -20 -20 -20 -20 -20 -20 -20 -20 -20 -20 -20 -20 -20 -20 -20 -20 -20 -20
-20 -20 -20 -20 -20 -20 -20 -20 -20 -20 -20 -20 -20 -20 -20 -20 -20 -20 -20 -20 -20 -20 -20 -20 -20 -20 -20 -20 -20 -20 -20 -20 -20 -20 -20 -20 -20 -20 -20 -20 -20 -20 -20 -20 -20

GFSSW_prec_radar_090.txt.gz
Reflectivity
-16 5 -0 -7 17 -5 -9 -3 17 16 16 20 -17 -16 -20 -20 -20 -20 -20 -20 -20 -20 -20 -20 -20 -20 -20 -20 -20 -20 -20 -20 -20 -20 -20 -20 -20 -20 -20 -20 -20 -20 -20 -20 -20
-15 20 -10 -16 1 16 1 -6 3 15 1 25 6 6 -20 -20 -20 -20 -20 -20 -20 -20 -20 -20 -20 -20 -20 -20 -20 -20 -20 -20 -20 -20 -20 -20 -20 -20 -20 -20 -20 -20 -20 -20 -20
17 19 9 0 6 -20 -11 16 -9 17 16 -13 16 7 -20 -20 -20 -20 -20 -20 -20 -20 -20 -20 -20 -20 -20 -20 -20 -20 -20 -20 -20 -20 -20 -20 -20 -20 -20 -20 -20 -20 -20 -20 -20
19 19 5 -10 -1 -20 -14 1 -4 7 12 14 11 17 -19 -20 -20 -20 -20 -20 -20 -20 -20 -20 -20 -20 -20 -20 -20 -20 -20 -20 -20 -20 -20 -20 -20 -20 -20 -20 -20 -20 -20 -20 -20
12 15 18 17 6 -12 0 -12 -15 -16 14 32 3 4 -8 -20 -20 -20 -20 -20 -20 -20 -20 -20 -20 -20 -20 -20 -20 -20 -20 -20 -20 -20 -20 -20 -20 -20 -20 -20 -20 -20 -20 -20 -20
3 26 13 11 6 1 2 6 5 3 -7 26 9 19 -20 -20 -20 -20 -20 -20 -20 -20 -20 -20 -20 -20 -20 -20 -20 -20 -20 -20 -20 -20 -20 -20 -20 -20 -20 -20 -20 -20 -20 -20 -20
-13 7 -1 -19 3 0 6 -3 9 5 -4 27 3 20 10 -12 -20 -5 -20 -20 -20 -20 -20 -20 -20 -20 -20 -20 -20 -20 -20 -20 -20 -20 -20 -20 -20 -20 -20 -20 -20 -20 -20 -20 -20
20 -1 -20 -5 -13 -11 1 -2 5 7 19 19 -7 -11 7 -19 -20 -20 -20 -20 -20 -20 -20 -20 -20 -20 -20 -20 -20 -20 -20 -20 -20 -20 -20 -20 -20 -20 -20 -20 -20 -20 -20 -20 -20
24 3 -20 -2 -20 -1 -14 14 15 20 29 3 34 -10 31 -20 -20 -20 -20 -20 -20 -20 -20 -20 -20 -20 -20 -20 -20 -20 -20 -20 -20 -20 -20 -20 -20 -20 -20 -20 -20 -20 -20 -20 -20
-4 1 23 20 -17 -16 28 31 32 28 25 27 22 19 18 -20 -20 -20 -20 -20 -20 -20 -20 -20 -20 -20 -20 -16 -20 -20 -20 -20 -20 -20 -20 -20 -20 -20 -20 -20 -20 -20 -20 -20 -20
-11 -20 23 -20 -20 -4 35 24 23 32 20 36 20 8 21 -15 -20 -20 -20 -20 -20 -20 -20 -20 -20 -20 -20 -20 -20 -20 -20 -20 -20 -20 -20 -20 -20 -20 -20 -20 -20 -20 -20 -20 -20
-15 19 19 -20 -20 -15 29 41 18 27 37 33 14 19 2 -20 -20 -20 -20 -20 -20 -20 -20 -4 -18 -20 -20 -20 -20 -20 -16 -20 -20 -20 3 -17 -17 -20 -20 -20 -20 -20 -20 -20 -20
19 18 -20 -20 -20 2 19 35 11 14 36 21 2 9 -19 -20 -20 -20 -20 -20 -20 -20 -20 -20 -20 -20 -20 -20 -20 -20 -4 -20 7 3 -17 -19 -17 -20 -20 -20 -20 -20 -20 -20 -17
11 -20 -20 -20 -20 -20 12 23 26 29 18 29 31 4 -20 -20 -9 -20 -20 -20 -3 -20 -20 -20 -20 -20 -20 -20 -20 -1 -20 1 32 12 -18 -13 -20 -20 -20 -20 -20 -20 -20 -20 -11
12 -18 -20 -20 -20 -19 -11 11 8 14 13 33 19 -9 -20 -15 -20 -1 -20 -20 -20 -20 -20 -20 -20 -20 -20 -20 -20 -17 -5 8 6 -3 -15 -13 7 -20 -20 -20 -20 -20 -15 -19 -20
17 -20 -20 -20 -20 -19 -0 -20 20 5 12 18 17 -0 -0 7 1 -20 -20 -20 -20 -20 -20 -20 -20 -20 -20 -20 -12 -20 -5 15 31 15 -3 -20 -16 -20 -16 -20 -20 -17 -18 8 -4
-7 -20 -20 -20 -20 -20 -19 -1 18 13 25 5 1 -20 0 -5 -20 -20 -20 -20 -20 -14 -20 -20 -20 -20 -20 -17 -15 -17 20 17 15 -14 -3 -3 -20 -20 -11 -20 -10 3 1 2 -0
-11 -20 -20 -20 -20 -20 -20 -20 -20 -12 -18 -20 -20 -20 -20 -1 -8 -20 -20 -20 -20 -20 -6 -20 -20 -20 -20 -20 -19 20 28 17 15 -16 -16 -14 -12 -17 10 16 -2 12 20 15 21
-20 -20 -20 -20 -20 -20 -20 -20 -20 -20 1 -3 -4 -7 7 8 -20 -20 -20 -18 -14 10 -19 -7 -20 -20 -20 2 23 28 27 21 20 -20 -20 -5 11 22 14 10 8 15 34 38 36
-20 -20 -20 -20 -20 -20 -20 -20 -20 -20 0 -12 -20 -20 -20 -20 -20 -20 -20 -20 -20 -3 -20 -2 -17 -20 -1 -17 -11 -17 15 20 12 -3 4 10 0 16 24 21 19 18 31 31 34
-20 -20 -20 -20 -20 -20 -8 -12 -9 -20 -20 -20 -20 -20 -20 -20 -20 -20 -20 -20 -20 -20 -20 -20 -20 -20 -20 -7 -14 3 24 -6 -4 -8 9 -20 -12 26 31 29 32 30 34 37 34
-20 -20 -20 -20 -19 -17 9 8 -4 -20 -20 -20 -20 -20 -20 -20 -20 -20 -20 -20 -20 -20 -20 -20 -20 -20 -20 -20 -20 -20 -20 -20 -20 -20 -20 -20 -19 -7 21 23 27 32 35 24 29
-20 -20 -20 -20 -20 -20 -20 -20 -20 -20 -20 -20 -20 -20 -20 -20 -20 -20 -20 -20 -20 -20 -20 -20 -20 -20 -20 -20 -20 -20 -20 -20 -20 -20 -20 -20 -20 -20 -3 14 6 0 -1 10 -18
-20 -20 -20 -20 -20 -20 -20 -20 -20 -20 -20 -20 -20 -20 -20 -20 -20 -20 -20 -20 -20 -20 -20 -20 -20 -20 -20 -20 -20 -20 -20 -20 -20 -20 -20 -20 -20 -20 -20 -20 -20 -20 -20 -20 -20
-20 -20 -20 -20 -20 -20 -20 -20 -20 -20 -20 -20 -20 -20 -20 -20 -20 -20 -20 -20 -20 -20 -20 -20 -20 -20 -20 -20 -20 -20 -20 -20 -20 -20 -20 -20 -20 -20 -20 -20 -20 -20 -20 -20 -20
-20 -20 -20 -20 -20 -20 -20 -20 -20 -20 -20 -20 -20 -20 -20 -20 -20 -20 -20 -20 -20 -20 -20 -20 -20 -20 -20 -20 -20 -20 -20 -20 -20 -20 -20 -20 -20 -20 -20 -20 -20 -20 -20 -20 -20
-20 -20 -20 -20 -20 -20 -20 -20 -20 -20 -20 -20 -20 -20 -20 -20 -20 -20 -20 -20 -20 -20 -20 -20 -20 -20 -20 -20 -20 -20 -20 -20 -20 -20 -20 -20 -20 -20 -20 -20 -20 -20 -20 -20 -20

GFSSW_prec_radar_093.txt.gz
Reflectivity
-20 -17 13 20 -20 -20 10 -20 -20 -5 13 6 21 16 -20 -20 -20 -20 -20 -20 -20 -20 -20 -20 -20 -20 -20 -20 -20 -20 -20 -20 -20 -20 -20 -20 -20 -20 -20 -20 -20 -20 -20 -20 -20
4 11 16 22 9 -20 -7 -20 -20 -20 14 8 -6 20 -18 -16 -20 -20 -20 -20 -20 -20 -20 -20 -20 -20 -20 -20 -20 -20 -20 -20 -20 -20 -20 -20 -20 -20 -20 -20 -20 -20 -20 -20 -20
-20 -13 10 25 17 23 17 -20 -20 -20 -6 17 -5 25 19 -20 -20 -20 -20 -20 -20 -20 -20 -20 -20 -20 -20 -20 -20 -20 -20 -20 -20 -20 -20 -20 -20 -20 -20 -20 -20 -20 -20 -20 -20
-16 -19 -15 24 14 24 19 9 11 -17 -20 23 9 19 10 -19 -20 -20 -20 -20 -20 -20 -20 -20 -20 -20 -20 -20 -20 -20 -20 -20 -20 -20 -20 -20 -20 -20 -20 -20 -20 -20 -20 -20 -20
6 4 -17 25 27 22 18 13 17 8 -7 26 31 10 13 6 -20 -20 -20 -20 -20 -20 -20 -20 -20 -20 -20 -20 -20 -20 -20 -20 -20 -20 -20 -20 -20 -20 -20 -20 -20 -20 -20 -20 -20
3 -19 10 23 23 12 7 11 19 17 11 7 24 22 -20 -20 -20 -20 -20 -20 -20 -20 -20 -20 -20 -20 -20 -20 -20 -20 -20 -20 -20 -20 -20 -20 -20 -20 -20 -20 -20 -20 -20 -20 -20
-14 3 -19 -16 -20 17 8 2 11 15 14 12 27 21 10 16 -20 -20 -20 -20 -20 -20 -20 -20 -20 -20 -20 -20 -20 -20 -20 -20 -20 -20 -20 -20 -20 -20 -20 -20 -20 -20 -20 -20 -20
18 -10 -19 -6 -15 -20 -5 -1 0 1 9 16 26 24 8 10 -1 -12 -20 -20 -20 -20 -20 -20 -20 -20 -20 -20 -20 -20 -20 -20 -20 -20 -20 -20 -20 -20 -20 -20 -20 -20 -20 -20 -20
-4 -4 15 24 14 -9 -20 -8 -11 -12 -12 31 24 23 31 34 11 -9 -20 -20 -20 -20 -20 -20 -20 -20 -20 -20 -20 -20 -20 -20 -20 -20 -20 -20 -20 -20 -20 -20 -20 -20 -20 -20 -20
-20 -1 23 25 -20 -11 -20 31 21 18 23 41 21 10 7 12 4 -10 -20 -20 -20 -20 -20 -20 -20 -20 -20 -20 -20 -20 -20 -20 -20 -20 -20 -20 -20 -20 -20 -20 -20 -20 -20 -20 -20
-18 2 10 -20 -20 -20 19 31 27 21 19 36 18 -5 6 7 -19 -20 -20 -20 -20 -20 -20 -20 -20 -20 -20 -20 -20 -20 -20 -20 -20 -20 -20 -20 -20 -20 -20 -20 -20 -20 -20 -20 -20
21 -20 -20 -20 -20 -17 31 40 35 37 36 33 33 32 21 19 10 -20 -20 -20 -20 -20 -20 -20 -20 -20 -20 -20 -20 -20 -19 -20 -20 -20 -13 -20 -20 -20 -20 -20 -20 -20 -20 -20 -20
2 -20 -20 -20 -20 -6 27 32 37 18 22 33 31 28 17 -19 -20 -20 -20 -20 -20 -20 -20 -20 -20 -20 -20 -20 -20 -20 -20 -20 -20 -10 -20 -15 -20 -20 -20 -20 -20 -20 -20 1 0
-20 -20 -20 -20 -10 15 24 22 35 30 26 32 28 12 -16 -20 -12 -20 -20 -20 -20 -20 -20 -20 -20 -20 -20 -20 -20 -1 -20 -7 -7 25 -20 -14 -20 -20 -20 -20 -13 -19 17 -10 -8
-20 -20 -20 -20 -1 1 10 18 17 -1 17 32 14 -18 -20 -16 -20 -10 -20 -20 -20 -1 -20 -20 -20 -20 -19 -20 -19 -20 -20 -20 5 15 -20 -20 -20 -20 -20 -20 -20 -20 -20 -20 24
-20 -20 -20 -20 -15 -8 10 22 30 7 12 20 2 -20 7 -10 8 -9 -20 -20 -20 -20 -20 -20 -20 -20 -20 -18 -20 -20 0 -5 -5 25 -14 -20 -20 -20 -20 -19 -20 -18 -20 -10 6
-20 -20 -20 -20 -13 -4 -9 20 -19 -14 -10 18 5 -20 -19 2 -20 -20 -20 -20 -20 -20 -20 -20 -20 -20 -20 -20 -11 -4 11 -8 -16 -6 -20 -15 -20 -20 -20 -20 2 4 -1 3 7
-20 -20 -20 -20 -20 -20 -20 -20 -18 6 -19 3 -7 -20 -20 -20 -20 -20 -20 -20 -20 -15 -3 -20 -20 -17 -20 -20 -1 20 18 0 -20 -7 -20 -7 15 -20 -2 2 4 -1 8 4 5
-20 -20 -20 -20 -20 -20 -17 14 0 -16 -20 -20 -4 -20 -20 -20 -20 -20 -20 -20 -2 -11 -4 -18 -20 -20 -20 -20 -19 2 21 17 5 -20 -20 -20 -1 -6 -7 4 4 -1 12 28 27
-20 -20 -20 -20 -20 -20 -20 -20 -20 -20 -20 -20 -20 -20 -20 -20 -20 -20 -20 -20 -15 -8 -16 -18 -10 -20 -20 -20 8 17 25 13 16 12 -20 -19 -11 -13 25 24 27 32 32 33 29
-20 -20 -20 -20 -20 -20 -20 -20 -20 -20 -20 -20 -20 -20 -20 -20 -20 -20 -20 -20 -17 -20 -20 -20 -16 -20 -20 -20 7 3 -11 5 15 16 8 -3 -6 12 27 29 26 29 30 31 33
-20 -20 -20 -20 -20 -20 -20 -20 -15 -20 -20 -20 -20 -20 -20 -20 -20 -19 -20 -20 -20 -20 -20 -20 -20 -20 -20 -20 -20 -20 -20 -20 -20 -20 -20 -11 -20 -20 13 22 23 31 31 29 32
-20 -20 -20 -20 -20 -20 -20 -20 -20 -20 -20 -20 -20 -20 -20 -20 -20 -20 -20 -20 -20 -20 -20 -20 -20 -20 -20 -20 -20 -20 -20 -20 -20 -20 -20 -20 -20 13 6 6 6 18 -3 -15 -19
-20 -20 -20 -20 -20 -20 -20 -20 -20 -20 -20 -20 -20 -20 -20 -20 -20 -20 -20 -20 -20 -20 -20 -20 -20 -20 -20 -20 -20 -20 -20 -20 -20 -20 -20 -20 -20 -18 -6 -18 -20 -20 -20 -20 -20
-20 -20 -20 -20 -20 -20 -20 -20 -20 -20 -20 -20 -20 -20 -20 -20 -20 -20 -20 -20 -20 -20 -20 -20 -20 -20 -20 -20 -20 -20 -20 -20 -20 -20 -20 -20 -20 -20 -20 -20 -20 -20 -20 -20 -20
-20 -20 -20 -20 -20 -20 -20 -20 -20 -20 -20 -20 -20 -20 -20 -20 -20 -20 -20 -20 -20 -20 -20 -20 -20 -20 -20 -20 -20 -20 -20 -20 -20 -20 -20 -20 -20 -20 -20 -20 -20 -20 -20 -20 -20
-20 -20 -20 -20 -20 -20 -20 -20 -20 -20 -20 -20 -20 -20 -20 -20 -20 -20 -20 -20 -20 -20 -20 -20 -20 -20 -20 -20 -20 -20 -20 -20 -20 -20 -20 -20 -20 -20 -20 -20 -20 -20 -20 -20 -20

GFSSW_prec_radar_096.txt.gz
Reflectivity
-20 -20 11 10 3 2 -19 -20 -20 -20 -12 15 -2 31 14 -20 -20 -20 -20 -20 -20 -20 -20 -20 -20 -20 -20 -20 -20 -20 -20 -20 -20 -20 -20 -20 -20 -20 -20 -20 -20 -20 -20 -20 -20
-20 -20 -12 -20 22 -6 20 9 -3 -19 -20 12 4 11 30 -14 -20 -20 -20 -20 -20 -20 -20 -20 -20 -20 -20 -20 -20 -20 -20 -20 -20 -20 -20 -20 -20 -20 -20 -20 -20 -20 -20 -20 -20
15 9 -6 -4 -20 27 16 17 9 6 -18 -13 14 10 28 15 -18 -20 -20 -20 -20 -20 -20 -20 -20 -20 -20 -20 -20 -20 -20 -20 -20 -20 -20 -20 -20 -20 -20 -20 -20 -20 -20 -20 -20
-20 -17 -20 -19 -19 1 24 22 -4 19 14 1 18 33 16 -6 -10 -20 -20 -20 -20 -20 -20 -20 -20 -20 -20 -20 -20 -20 -20 -20 -20 -20 -20 -20 -20 -20 -20 -20 -20 -20 -20 -20 -20
-20 -20 -7 -14 -13 23 23 22 -3 5 16 16 13 22 -5 21 -9 -20 -20 -15 -20 -20 -20 -20 -20 -20 -20 -20 -20 -20 -20 -20 -20 -20 -20 -20 -20 -20 -20 -20 -20 -20 -20 -20 -20
0 5 3 -18 22 -4 31 6 20 0 10 11 21 37 20 15 29 -19 -20 -20 -20 -20 -20 -20 -20 -20 -20 -20 -20 -20 -20 -20 -20 -20 -20 -20 -20 -20 -20 -20 -20 -20 -20 -20 -20
13 -1 -20 -20 -14 4 18 -1 10 15 8 9 29 15 31 9 32 -11 -20 -20 -20 -20 -20 -20 -20 -20 -20 -20 -20 -20 -20 -20 -20 -20 -20 -20 -20 -20 -20 -20 -20 -20 -20 -20 -20
-6 1 -20 21 18 7 -10 -20 9 5 -8 12 27 29 31 23 9 -4 -20 -20 -20 -20 -20 -20 -20 -20 -20 -20 -20 -20 -20 -20 -20 -20 -20 -20 -20 -20 -20 -20 -20 -20 -20 -20 -20
-20 -20 -5 31 23 12 -20 -20 4 10 3 11 21 40 7 34 26 2 -17 -20 -20 -20 -20 -20 -20 -20 -20 -20 -20 -20 -20 -20 -20 -20 -20 -20 -20 -20 -20 -20 -20 -20 -20 -20 -20
-20 -20 -20 18 12 -20 -20 -4 18 25 14 6 24 29 32 28 27 4 -20 -20 -20 -20 -20 -20 -20 -20 -20 -20 -20 -20 -20 -20 -20 -20 -20 -20 -20 -20 -20 -20 -20 -20 -20 -20 -20
21 3 -20 -20 -20 -20 -20 34 27 16 11 38 38 7 23 32 26 -5 -20 -20 -20 -20 -20 -20 -20 -20 -20 -20 -20 -20 -20 -20 -20 -20 -20 -20 -20 -20 -20 -20 -20 -20 -20 -20 -20
22 -20 -20 -20 -20 -18 16 40 33 21 33 32 28 32 9 22 7 -18 8 -20 -20 -20 -20 -20 -20 -20 -20 -20 -20 -20 -19 -20 -20 -20 -20 -20 -20 -20 -20 -20 -20 -20 -20 -20 -14
-20 -20 -20 -20 -2 12 21 33 32 28 35 40 27 24 20 23 8 10 -13 -20 -20 -20 -20 -20 -20 -20 -20 -20 -20 -20 -14 -20 -20 -20 -20 -20 -20 -20 -20 -20 -20 -20 -15 -1 5
-20 -20 -20 -20 -13 20 25 35 34 27 19 30 28 25 11 -17 -19 -18 -20 -20 -20 -20 -20 -20 -20 -20 -20 -20 -20 -4 -20 -20 -1 10 -18 -20 -20 -20 -20 -20 -20 -20 -20 16 -4
-20 -20 -20 -19 4 15 24 31 27 17 15 26 25 -6 6 3 -20 2 -20 -20 -20 -8 -20 -20 -20 -20 -20 -20 -20 -20 -13 4 4 7 18 -17 -5 -20 -20 -20 -20 -19 -20 -20 18
-20 -20 -20 -20 3 20 13 22 12 12 14 20 20 9 -13 -4 3 1 -20 -20 -20 -20 -20 -20 -20 -20 -20 -20 -20 -6 0 -8 2 16 5 -20 -20 -20 -14 -11 -20 0 -11 14 -3
-20 -17 -10 -11 -18 -19 -20 -20 -2 -14 16 15 -18 -15 -20 -20 -20 -20 -20 -20 -20 -20 -20 -20 -20 -20 -20 -17 -9 8 26 -20 -20 -14 -20 -20 -11 -20 -20 -20 10 10 -11 -10 -16
-20 -20 -20 -20 -20 -20 -20 -20 -19 1 7 -20 -20 -20 -20 -20 -20 -20 -20 -20 -20 -20 -20 -20 -20 -20 -20 -19 4 24 24 -19 -20 -20 -20 -5 -13 -13 -20 -6 -6 6 -2 1 2
-20 -20 -20 -20 -20 -20 -20 -20 -18 -20 -20 -20 -20 -20 -20 -20 -20 -20 -20 -20 -20 -20 -20 -19 -20 -20 -20 -5 16 19 26 19 -7 -8 9 -17 1 -18 26 10 -1 -1 -3 13 23
-20 -20 -20 -20 -20 -20 -20 -4 -20 -20 -20 -20 -20 -20 -20 -20 -20 -20 -20 -20 -20 -20 -20 -13 -0 -20 -20 -20 -20 -6 1 14 17 -6 -20 -15 -12 17 21 28 29 25 35 28 25
-20 -20 -20 -20 -20 -20 -20 -20 -20 -20 -20 -20 -20 -20 -20 -20 -20 -20 -20 -20 -20 -16 -20 -14 -16 -20 -20 -20 -20 -6 -20 -12 -8 12 9 -20 -16 25 25 23 11 31 28 28 29
-20 -20 -20 -20 -20 -20 -20 -20 -20 -20 -20 -20 -20 -20 -20 -20 -20 -20 -20 -20 -20 -20 -20 -20 -20 -20 -20 -20 -20 -20 -20 -20 -20 -20 -20 -20 -20 -8 -2 23 19 20 23 26 28
-20 -20 -20 -20 -20 -20 -20 -20 -20 -20 -20 -20 -20 -20 -20 -20 -20 -20 -20 -20 -20 -20 -20 -20 -20 -20 -20 -20 -20 -20 -20 -20 -20 -20 -20 -20 -20 12 -9 -3 9 9 -2 15 -2
-20 -20 -20 -20 -20 -20 -20 -20 -20 -20 -20 -20 -20 -20 -20 -20 -20 -20 -20 -20 -20 -20 -20 -20 -20 -20 -20 -20 -20 -20 -20 -20 -20 -20 -20 -20 -20 -20 -20 -14 -20 -20 -20 -20 -20
-20 -20 -20 -20 -20 -20 -20 -20 -20 -20 -20 -20 -20 -20 -20 -20 -20 -20 -20 -20 -20 -20 -20 -20 -20 -20 -20 -20 -20 -20 -20 -20 -20 -20 -20 -20 -20 -20 -20 -20 -20 -20 -20 -20 -20
-20 -20 -20 -20 -20 -20 -20 -20 -20 -20 -20 -20 -20 -20 -20 -20 -20 -20 -20 -20 -20 -20 -20 -20 -20 -20 -20 -20 -20 -20 -20 -20 -20 -20 -20 -20 -20 -20 -20 -20 -20 -20 -20 -20 -20
-20 -20 -20 -20 -20 -20 -20 -20 -20 -20 -20 -20 -20 -20 -20 -20 -20 -20 -20 -20 -20 -20 -20 -20 -20 -20 -20 -20 -20 -20 -20 -20 -20 -20 -20 -20 -20 -20 -20 -20 -20 -20 -20 -20 -20

GFSSW_prec_radar_099.txt.gz
Reflectivity
-13 12 -20 -20 -2 13 16 9 5 -15 -20 -20 -20 -4 18 25 -20 -20 -20 -20 -20 -20 -20 -20 -20 -20 -20 -20 -20 -20 -20 -20 -20 -20 -20 -20 -20 -20 -20 -20 -20 -20 -20 -20 -20
4 14 11 2 -12 -4 23 22 17 11 -5 -19 -20 -20 14 25 -15 -20 -20 -20 -20 -20 -20 -20 -20 -20 -20 -20 -20 -20 -20 -20 -20 -20 -20 -20 -20 -20 -20 -20 -20 -20 -20 -20 -20
17 -13 8 -1 -20 -14 -7 -14 22 -16 10 6 -3 -20 21 31 9 -20 -20 -20 -20 -20 -20 -20 -20 -20 -20 -20 -20 -20 -20 -20 -20 -20 -20 -20 -20 -20 -20 -20 -20 -20 -20 -20 -20
22 -5 -19 4 14 13 10 -20 17 20 -7 13 10 9 17 18 29 -16 -20 -13 -20 -20 -20 -20 -20 -20 -20 -20 -20 -20 -20 -20 -20 -20 -20 -20 -20 -20 -20 -20 -20 -20 -20 -20 -20
4 -1 -4 -9 -20 -20 13 10 27 22 10 -2 16 21 12 -20 15 -14 10 10 -20 -20 -20 -20 -20 -20 -20 -20 -20 -20 -20 -20 -20 -20 -20 -20 -20 -20 -20 -20 -20 -20 -20 -20 -20
-3 -20 -20 -20 -17 -20 -20 -9 32 28 20 -9 16 28 7 -2 -10 -20 -20 -20 -20 -20 -20 -20 -20 -20 -20 -20 -20 -20 -20 -20 -20 -20 -20 -20 -20 -20 -20 -20 -20 -20 -20 -20 -20
-11 22 7 -20 14 -18 22 -6 20 21 -9 17 17 23 37 27 -0 -3 -20 -20 -20 -20 -20 -20 -20 -20 -20 -20 -20 -20 -20 -20 -20 -20 -20 -20 -20 -20 -20 -20 -20 -20 -20 -20 -20
26 22 -4 22 -2 -4 -12 15 10 12 -13 -20 16 9 16 36 -6 19 -14 -20 -20 -20 -20 -20 -20 -20 -20 -20 -20 -20 -20 -20 -20 -20 -20 -20 -20 -20 -20 -20 -20 -20 -20 -20 -20
27 20 -9 -20 -20 1 -20 -20 -20 17 -20 -2 31 32 34 25 7 -3 -3 -20 -20 -20 -20 -20 -20 -20 -20 -20 -20 -20 -20 -20 -20 -20 -20 -20 -20 -20 -20 -20 -20 -20 -20 -20 -20
34 6 -20 -20 -20 -20 -20 -14 22 18 1 12 41 37 17 37 16 -13 -20 -20 -20 -19 -20 -20 -20 -20 -20 -20 -20 -20 -20 -20 -20 -20 -20 -20 -20 -20 -20 -20 -20 -20 -20 -20 -20
14 -20 -20 -20 -20 -20 -20 2 29 22 -3 20 25 31 21 18 -7 -20 -20 -20 -20 -20 -20 -20 -20 -20 -20 -20 -20 -20 -20 -20 -20 -20 -20 -20 -20 -20 -20 -20 -20 -20 -20 -20 -20
-20 -20 -20 -1 -20 -20 -10 14 18 10 13 37 28 36 28 28 -3 -4 -20 -20 -15 -18 -20 -20 -20 -20 -20 -20 -20 -20 -20 -20 -20 -20 -20 -20 -20 -20 -20 -20 -20 -20 -20 -20 -17
-20 -20 -20 -19 -20 -20 4 24 22 21 36 37 37 33 29 13 -7 -20 -20 -20 -20 -20 -20 -20 -20 -20 -20 -20 -20 -20 -20 -20 -20 -20 -20 -20 -20 -20 -20 -20 -20 -20 -20 -20 -9
-20 -20 -20 -12 -20 7 21 24 13 24 18 29 34 33 26 19 -20 -20 -20 -20 -20 -20 -20 -20 -20 -20 -20 -20 -20 -20 -20 -20 -20 0 -5 -14 -4 -20 -20 -20 -20 -20 -20 -20 13
-19 -7 -20 -18 18 24 27 30 16 15 8 26 26 10 0 -20 -20 -20 -20 -20 -20 -20 -20 -20 -20 -20 -20 -20 -20 -20 -20 -20 -20 3 8 -11 0 -20 -20 -20 -20 -20 -20 5 -18
-20 -20 -20 -15 -9 -7 14 -16 10 -13 11 19 30 27 10 -17 -20 -20 -20 -20 -20 -20 -20 -20 -20 -20 -20 -20 -20 -20 -20 -20 -15 13 3 -20 -20 -20 -20 -20 -19 7 -20 -4 -18
-20 -20 -20 -20 -20 -20 -20 -12 -17 -18 18 -13 7 -11 -20 -20 -20 -20 -20 -20 -20 -20 -20 -20 -20 -20 -20 -20 -20 -20 17 -18 -20 -20 -20 -20 -20 -14 -20 -20 -6 14 6 -0 -4
-20 -20 -20 -20 -20 -20 -20 -18 -20 -8 -3 -11 -15 -20 -20 -20 -20 -20 -20 -20 -20 -20 -20 -20 -20 -20 -20 -20 -8 22 19 -20 -20 -20 -20 -13 -20 15 12 23 -5 -1 12 -3 3
-20 -20 -20 -20 -20 -20 -18 -20 -20 -20 -20 -20 -20 -20 -20 -20 -20 -20 -20 -20 -20 -20 -20 -20 -20 -20 -20 -20 10 14 15 12 4 -20 -17 -20 10 16 24 28 22 17 19 20 23
-20 -20 -20 -20 -20 -20 -3 -20 -20 -20 -20 -20 -20 -20 -20 -20 -20 -20 -20 -20 -20 -20 -20 -15 -10 -20 -20 -20 -20 -8 -20 -6 10 -20 -20 -20 -14 14 24 28 29 20 28 30 32
-20 -20 -20 -20 -20 -20 -20 -20 -20 -20 -20 -20 -20 -20 -20 -20 -20 -20 -20 -20 -20 -20 -20 -20 -19 -20 -20 -20 -20 -19 -20 -20 -11 -0 -20 -20 -20 23 29 23 22 14 23 30 31
-20 -20 -20 -20 -20 -20 -20 -20 -20 -20 -20 -20 -20 -20 -20 -20 -20 -20 -20 -20 -20 -20 -20 -20 -20 -20 -20 -20 -20 -20 -20 -20 -20 -20 -20 -20 -20 -13 12 -0 5 13 14 22 23
-20 -20 -20 -20 -20 -20 -20 -20 -20 -20 -20 -20 -20 -20 -20 -20 -20 -20 -20 -20 -20 -20 -20 -20 -20 -20 -20 -20 -20 -20 -20 -20 -20 -20 -20 -20 -20 -20 -20 -20 -20 -20 -20 -20 -17
-20 -20 -20 -20 -20 -20 -20 -20 -20 -20 -20 -20 -20 -20 -20 -20 -20 -20 -20 -20 -20 -20 -20 -20 -20 -20 -20 -20 -20 -20 -20 -20 -20 -20 -20 -20 -20 -20 -20 -20 -20 -20 -20 -20 -20
-20 -20 -20 -20 -20 -20 -20 -20 -20 -20 -20 -20 -20 -20 -20 -20 -20 -20 -20 -20 -20 -20 -20 -20 -20 -20 -20 -20 -20 -20 -20 -20 -20 -20 -20 -20 -20 -20 -20 -20 -20 -20 -20 -20 -20
-20 -20 -20 -20 -20 -20 -20 -20 -20 -20 -20 -20 -20 -20 -20 -20 -20 -20 -20 -20 -20 -20 -20 -20 -20 -20 -20 -20 -20 -20 -20 -20 -20 -20 -20 -20 -20 -20 -20 -20 -20 -20 -20 -20 -20
-20 -20 -20 -20 -20 -20 -20 -20 -20 -20 -20 -20 -20 -20 -20 -20 -20 -20 -20 -20 -20 -20 -20 -20 -20 -20 -20 -20 -20 -20 -20 -20 -20 -20 -20 -20 -20 -20 -20 -20 -20 -20 -20 -20 -20

GFSSW_prec_radar_102.txt.gz
Reflectivity
-10 -20 -14 22 -14 -20 -20 -20 -19 8 12 -14 -20 -20 -20 26 -6 -20 -20 -20 -20 -20 -20 -20 -20 -20 -20 -20 -20 -20 -20 -20 -20 -20 -20 -20 -20 -20 -20 -20 -20 -20 -20 -20 -20
-4 -7 -20 26 26 -17 -20 -20 3 -20 8 10 3 -20 5 4 -10 -17 -20 -20 -20 -20 -20 -20 -20 -20 -20 -20 -20 -20 -20 -20 -20 -20 -20 -20 -20 -20 -20 -20 -20 -20 -20 -20 -20
-5 -19 -13 -11 -13 16 -20 -5 22 -8 -17 -4 7 5 -5 -20 9 9 -20 -20 -20 -20 -20 -20 -20 -20 -20 -20 -20 -20 -20 -20 -20 -20 -20 -20 -20 -20 -20 -20 -20 -20 -20 -20 -20
3 3 -20 -20 -12 -20 -20 -20 -20 1 12 -20 -11 8 10 -19 7 5 2 -14 -20 -20 -20 -20 -20 -20 -20 -20 -20 -20 -20 -20 -20 -20 -20 -20 -20 -20 -20 -20 -20 -20 -20 -20 -20
5 -6 -20 5 -20 -20 -20 -20 24 26 6 -20 -10 11 4 13 14 -9 12 -7 -20 -20 -20 -20 -20 -20 -20 -20 -20 -20 -20 -20 -20 -20 -20 -20 -20 -20 -20 -20 -20 -20 -20 -20 -20
-16 3 -14 -13 -20 -20 -20 -20 -16 -1 14 0 -6 16 9 21 20 18 12 -20 -20 -20 -20 -20 -20 -20 -20 -20 -20 -20 -20 -20 -20 -20 -20 -20 -20 -20 -20 -20 -20 -20 -20 -20 -20
-2 23 22 -6 -20 -20 -20 -20 -20 -13 27 20 -2 15 12 2 -15 15 -19 -20 -20 -20 -20 -20 -20 -20 -20 -20 -20 -20 -20 -20 -20 -20 -20 -20 -20 -20 -20 -20 -20 -20 -20 -20 -20
35 26 -20 -20 -20 -20 -20 -20 -20 7 24 -19 -10 37 8 40 -20 -20 -20 -2 -11 -20 -20 -20 -20 -20 -20 -20 -20 -20 -20 -20 -20 -20 -20 -20 -20 -20 -20 -20 -20 -20 -20 -20 -20
36 21 -9 -20 -20 -20 -20 -20 -20 -13 -18 -20 -5 39 29 40 1 -19 -20 -20 -4 -17 -20 -20 -20 -20 -20 -20 -20 -20 -20 -20 -20 -20 -20 -20 -20 -20 -20 -20 -20 -20 -20 -20 -20
-5 6 -5 -20 -20 -20 -20 -20 11 3 15 -20 21 35 37 35 17 1 -20 -20 -20 -20 -20 -20 -20 -20 -20 -20 -20 -20 -20 -20 -20 -20 -20 -20 -20 -20 -20 -20 -20 -20 -20 -20 -20
10 -20 -17 -20 -20 -20 -20 -4 9 32 17 20 21 26 31 30 3 -14 -14 -20 -20 -20 -20 -20 -20 -20 -20 -20 -20 -20 -20 -20 -20 -20 -20 -20 -20 -20 -20 -20 -20 -20 -20 -20 -20
-20 -20 -20 -20 -20 -20 -20 -1 6 11 25 39 36 24 31 20 8 -16 -14 -20 -20 -20 -20 -20 -20 -20 -20 -20 -20 -20 -20 -20 -20 -20 -20 -20 -20 -20 -20 -20 -20 -20 -19 1 6
-20 3 -16 -20 -14 -17 -6 9 11 13 33 33 35 34 29 26 9 -20 -20 -20 -20 -20 -20 -20 -20 -20 -20 -20 -20 -20 -20 -20 -20 -20 -20 -20 -20 -20 -20 -20 -20 -20 -20 -20 -3
-20 -12 -14 16 15 -14 15 27 0 13 25 31 38 33 21 12 -18 -20 -20 -20 -20 -20 -20 -20 -20 -20 -20 -20 -20 -20 -20 -20 -20 -6 -16 -20 -11 -20 -20 -20 -20 -20 -20 -20 -20
-20 -6 -20 -19 -20 -6 10 26 22 12 -5 21 26 28 10 -15 -20 -20 -20 -20 -20 -20 -20 -20 -20 -20 -20 -20 -20 -20 -20 -20 -20 -20 6 -12 4 -20 -20 -20 -20 -20 -11 -20 -9
-20 -20 19 12 -20 -20 4 10 -12 -20 11 22 27 10 4 -15 -6 -20 -20 -20 -20 -20 -20 -20 -20 -20 -20 -20 -20 -20 -20 -16 0 -5 5 -20 -20 -20 -20 -20 -20 -2 -10 2 2
-20 -20 -20 -20 -20 -20 -20 -20 -20 -11 4 4 22 5 -13 -20 -20 -20 -20 -20 -20 -20 -20 -20 -20 -20 -20 -20 -20 -20 -20 -14 -9 -13 -12 -20 -20 -20 -20 -2 6 5 -4 5 1
-20 -20 -20 -20 -20 -20 -20 -20 -20 8 7 -17 -6 -20 -20 -20 -20 -20 -20 -20 -20 -20 -20 -20 -20 -20 -20 -20 -3 10 -0 1 2 2 3 -20 -19 -5 -20 -20 -20 -20 -4 -3 4
-20 -20 -20 -20 -20 -20 -20 -20 -20 -20 -20 -20 -20 -20 -20 -20 -20 -20 -20 -20 -20 -20 -20 -20 -6 -20 -20 -20 -20 5 9 -6 16 -20 1 -20 -17 -19 -20 -20 -20 -18 5 1 7
-20 -20 -20 -20 -20 -20 -19 -20 -20 -20 -20 -20 -20 -20 -20 -20 -20 -20 -20 -20 -20 -20 -20 -20 -20 -20 -20 -20 -20 -19 -2 3 10 1 -14 -20 -20 -13 -20 -19 -14 -12 2 7 11
-20 -20 -20 -20 -20 -20 -20 -20 -20 -20 -20 -20 -20 -20 -20 -20 -20 -20 -20 -20 -20 -20 -20 -20 -20 -20 -20 -20 -16 -1 1 -20 -7 -20 -15 -20 -20 -6 -20 -4 22 4 -3 1 4
-20 -20 -20 -20 -20 -20 -20 -20 -20 -20 -20 -20 -20 -20 -20 -20 -20 -20 -20 -20 -20 -20 -20 -20 -20 -20 -20 -20 -20 -20 -20 -20 -20 -20 -20 -20 -20 -20 -16 -3 -3 -1 -8 -17 -11
-20 -20 -20 -20 -20 -20 -20 -20 -20 -20 -20 -20 -20 -20 -20 -20 -20 -20 -20 -20 -20 -20 -20 -20 -20 -20 -20 -20 -20 -20 -20 -20 -20 -20 -20 -20 -20 -20 -20 -20 -4 -20 -6 -20 -16
-20 -20 -20 -20 -20 -20 -20 -20 -20 -20 -20 -20 -20 -20 -20 -20 -20 -20 -20 -20 -20 -20 -20 -20 -20 -20 -20 -20 -20 -20 -20 -20 -20 -20 -20 -20 -20 -20 -20 -20 -20 -20 -20 -20 -20
-20 -20 -20 -20 -20 -20 -20 -20 -20 -20 -20 -20 -20 -20 -20 -20 -20 -20 -20 -20 -20 -20 -20 -20 -20 -20 -20 -20 -20 -20 -20 -20 -20 -20 -20 -20 -20 -20 -20 -20 -20 -20 -20 -20 -20
-20 -20 -20 -20 -20 -20 -20 -20 -20 -20 -20 -20 -20 -20 -20 -20 -20 -20 -20 -20 -20 -20 -20 -20 -20 -20 -20 -20 -20 -20 -20 -20 -20 -20 -20 -20 -20 -20 -20 -20 -20 -20 -20 -20 -20
-20 -20 -20 -20 -20 -20 -20 -20 -20 -20 -20 -20 -20 -20 -20 -20 -20 -20 -20 -20 -20 -20 -20 -20 -20 -20 -20 -20 -20 -20 -20 -20 -20 -20 -20 -20 -20 -20 -20 -20 -20 -20 -20 -20 -20

GFSSW_prec_radar_105.txt.gz
Reflectivity
25 2 -20 -11 -20 -20 -20 -20 21 13 -7 -20 -19 -18 19 9 -18 -20 -20 -20 -20 -20 -20 -20 -20 -20 -20 -20 -20 -20 -20 -20 -20 -20 -20 -20 -20 -20 -20 -20 -20 -20 -20 -20 -20
-20 -15 -20 -20 -20 -12 -20 -20 -20 1 0 -11 -20 -8 -20 -16 -20 -20 -20 -20 -20 -20 -20 -20 -20 -20 -20 -20 -20 -20 -20 -20 -20 -20 -20 -20 -20 -20 -20 -20 -20 -20 -20 -20 -20
-16 3 1 -18 -20 -1 -8 -20 -20 -20 -20 -19 -20 7 18 -20 -6 -20 -20 -20 -20 -20 -20 -20 -20 -20 -20 -20 -20 -20 -20 -20 -20 -20 -20 -20 -20 -20 -20 -20 -20 -20 -20 -20 -20
-20 -20 -20 -13 1 -8 -20 -15 -20 16 -0 -20 -9 11 9 -20 21 -19 -5 -20 -20 -20 -20 -20 -20 -20 -20 -20 -20 -20 -20 -20 -20 -20 -20 -20 -20 -20 -20 -20 -20 -20 -20 -20 -20
-20 -17 -20 -20 -10 -20 -20 -20 -20 -12 -7 -20 -20 21 -16 2 -4 -20 -7 -20 -20 -20 -20 -20 -20 -20 -20 -20 -20 -20 -20 -20 -20 -20 -20 -20 -20 -20 -20 -20 -20 -20 -20 -20 -20
7 -2 -20 -20 -20 -20 -20 -20 2 6 -20 -20 -20 6 4 10 6 -20 6 -9 -20 -20 -20 -20 -20 -20 -20 -20 -20 -20 -20 -20 -20 -20 -20 -20 -20 -20 -20 -20 -20 -20 -20 -20 -20
25 23 -20 -20 -20 -20 -20 -20 -20 -20 -20 -20 -20 23 -1 -4 27 -20 22 2 -18 -20 -20 -20 -20 -20 -20 -20 -20 -20 -20 -20 -20 -20 -20 -20 -20 -20 -20 -20 -20 -20 -20 -20 -20
10 -3 -20 -20 -20 -20 -20 -20 -20 -20 -20 -20 -20 -20 22 -3 25 19 8 -20 -12 -20 -20 -20 -20 -20 -20 -20 -20 -20 -20 -20 -20 -20 -20 -20 -20 -20 -20 -20 -20 -20 -20 -20 -20
27 -7 -20 -7 -20 -11 -20 -20 -20 -20 8 -20 -1 -12 13 19 29 20 22 3 -20 -20 -20 -20 -20 -20 -20 -20 -20 -20 -20 -20 -20 -20 -20 -20 -20 -20 -20 -20 -20 -20 -20 -20 -20
-13 9 -15 -18 -20 -20 -20 -20 -20 -2 27 -13 25 12 26 29 31 11 14 -20 -20 -20 -20 -19 -20 -20 -20 -20 -20 -20 -20 -20 -20 -20 -20 -20 -20 -20 -20 -20 -20 -20 -20 -20 -20
-20 -20 -20 -20 -20 -20 -5 0 8 11 12 14 21 34 17 37 12 -15 3 -18 -20 -20 -20 -20 -20 -20 -14 -20 -20 -20 -20 -20 -20 -20 -20 -20 -20 -20 -20 -20 -20 -20 -20 -20 -20
-5 -16 -20 -20 -20 -20 -20 2 -16 -16 -1 25 25 24 31 37 26 23 -17 -20 -20 -20 -20 -20 -20 -20 -20 -20 -20 -20 -20 -20 -20 -20 -20 -20 -20 -20 -20 -20 -20 -20 -20 -20 -20
22 17 -8 -18 -20 -20 -20 -20 4 16 30 30 27 34 29 21 23 -5 8 -20 -20 -20 -20 -20 -20 -20 -20 -20 -20 -20 -20 -20 -20 -20 -20 -20 -20 -20 -20 -20 -20 -20 -20 -20 -20
25 16 -13 -18 -20 -14 5 12 20 27 28 29 24 10 22 15 7 2 -19 -20 -20 -20 -20 -20 -20 -20 -20 -20 -20 -20 -20 -20 -20 -20 -20 -20 -20 -20 -20 -20 -20 -20 -20 -20 -20
13 7 1 -20 -17 4 -15 18 26 5 14 25 32 26 22 3 -20 -20 -20 -20 -20 -20 -20 -20 -20 -20 -20 -20 -20 -20 -20 -20 -20 -20 -17 -20 -19 -20 -20 -20 -20 -20 -15 2 -19
-20 -20 -20 -20 -20 -20 -5 -5 -18 10 16 23 28 28 11 -2 -7 -20 -20 -20 -20 -20 -20 -20 -20 -20 -20 -20 -20 -20 -20 -20 -20 -15 -9 -20 -20 -20 -20 -20 -20 -20 -16 1 -20
-20 -20 -10 -20 -4 -20 -20 -20 -18 -5 15 12 20 8 -0 -14 -20 -20 -20 -20 -20 -11 -3 -20 -20 -20 -20 -20 -20 -20 -10 -13 -15 -1 -18 -20 -20 -20 -20 -20 -20 -3 -16 3 -20
-20 -20 -20 -19 2 -20 -20 -20 -20 11 5 -2 -14 -20 -20 -20 -20 -20 -20 -20 -20 -20 -20 -2 -6 -20 -20 -20 -12 -5 0 -3 -6 -2 -16 -20 -14 -20 -20 -18 6 -6 -18 -18 -20
-20 -20 -20 -20 -20 -20 -20 -20 10 -4 -11 -20 -20 -20 -20 -20 -20 -20 -7 -7 -20 -20 -20 -7 -1 -20 -20 -19 -20 -0 11 -5 -17 -20 -7 -20 -20 -20 -20 -19 0 6 -11 -20 -5
-20 -20 -20 -20 -20 -20 -20 -20 -20 -20 -20 -20 -20 -20 -20 -20 -20 -20 -13 -20 -20 -20 -20 -20 -4 -20 -20 -20 -20 -20 -20 -2 4 -19 -8 -20 -20 -20 -20 -20 -20 -3 -9 -5 1
-20 -20 -20 -20 -20 -20 7 -9 -20 -20 -20 -20 -20 -20 -20 -20 -20 -20 -20 -20 -20 -20 -20 -20 -17 -20 -20 -20 -16 -8 -13 -14 -7 -20 -14 -20 -20 -20 -20 -13 -4 -4 -7 -11 -17
-20 -20 -20 -20 -20 -20 -19 -20 -20 -20 -20 -20 -20 -20 -20 -20 -20 -20 -20 -20 -20 -20 -20 -20 -20 -20 -20 -20 -20 -20 -20 -20 -20 -5 -20 -20 -20 -20 -20 -20 -2 1 -6 -19 -20
-20 -20 -20 -20 -17 -20 -20 -20 -20 -20 -20 -20 -20 -20 -20 -20 -20 -20 -20 -20 -20 -20 -20 -20 -20 -20 -20 -20 -20 -20 -20 -20 -20 -20 -20 -20 -20 -20 -20 -20 -20 -20 -20 -3 -18
-20 -20 -20 -20 -20 -20 -20 -20 -20 -20 -20 -20 -20 -20 -20 -20 -20 -20 -20 -20 -20 -20 -20 -20 -20 -20 -20 -20 -20 -20 -20 -20 -20 -20 -20 -20 -20 -20 -20 -20 -20 -20 -20 -20 -20
-20 -20 -20 -20 -20 -20 -20 -20 -20 -20 -20 -20 -20 -20 -20 -20 -20 -20 -20 -20 -20 -20 -20 -20 -20 -20 -20 -20 -20 -20 -20 -20 -20 -20 -20 -20 -20 -20 -20 -20 -20 -20 -20 -20 -20
-20 -20 -20 -20 -20 -20 -20 -20 -20 -20 -20 -20 -20 -20 -20 -20 -20 -20 -20 -20 -20 -20 -20 -20 -20 -20 -20 -20 -20 -20 -20 -20 -20 -20 -20 -20 -20 -20 -20 -20 -20 -20 -20 -20 -20
-20 -20 -20 -20 -20 -20 -20 -20 -20 -20 -20 -20 -20 -20 -20 -20 -20 -20 -20 -20 -20 -20 -20 -20 -20 -20 -20 -20 -20 -20 -20 -20 -20 -20 -20 -20 -20 -20 -20 -20 -20 -20 -20 -20 -20

GFSSW_prec_radar_108.txt.gz
Reflectivity
5 21 39 29 21 9 -20 -20 -12 -20 -20 -20 -14 -20 3 25 -10 -20 -20 -20 -20 -20 -20 -20 -20 -20 -20 -20 -20 -20 -20 -20 -20 -20 -20 -20 -20 -20 -20 -20 -20 -20 -20 -20 -20
-6 -11 -5 -9 -20 -20 -20 -20 -20 -3 -20 -20 1 -14 -20 13 10 -11 -20 -20 -20 -20 -20 -20 -20 -20 -20 -20 -20 -20 -20 -20 -20 -20 -20 -20 -20 -20 -20 -20 -20 -20 -20 -20 -20
-20 -16 -5 -20 -20 -20 10 -20 -20 -20 -20 -20 -16 1 -20 -9 24 -10 -20 -20 -20 -20 -20 -20 -20 -20 -20 -20 -20 -20 -20 -20 -20 -20 -20 -20 -20 -20 -20 -20 -20 -20 -20 -20 -20
26 -20 -20 -20 -20 -20 -12 -20 -20 -20 -20 -20 -20 -8 -20 -3 27 14 -20 -20 -20 -20 -20 -20 -20 -20 -20 -20 -20 -20 -20 -20 -20 -20 -20 -20 -20 -20 -20 -20 -20 -20 -20 -20 -20
26 7 -20 -20 -20 -20 -20 2 12 -20 -20 -20 -20 -4 13 -4 13 13 -13 -18 -20 -20 -20 -20 -20 -20 -20 -20 -20 -20 -20 -20 -20 -20 -20 -20 -20 -20 -20 -20 -20 -20 -20 -20 -20
-7 -2 -20 -20 -20 -20 -20 20 24 14 -20 -20 -20 8 8 1 -20 8 13 5 -20 -20 -20 -20 -20 -20 -20 -20 -20 -20 -20 -20 -20 -20 -20 -20 -20 -20 -20 -20 -20 -20 -20 -20 -20
22 -20 -20 -17 -20 -20 -17 -18 -19 1 -20 -20 -20 -7 -18 9 -14 -20 4 -13 -20 -20 -20 -20 -20 -20 -20 -20 -20 -20 -20 -20 -20 -20 -20 -20 -20 -20 -20 -20 -20 -20 -20 -20 -20
20 14 -20 -20 -20 -20 -20 -12 -20 -20 -20 -20 -20 21 22 21 -20 8 4 12 -20 -20 -20 -20 -20 -20 -20 -20 -20 -20 -20 -20 -20 -20 -20 -20 -20 -20 -20 -20 -20 -20 -20 -20 -20
21 -2 -20 -20 -4 -20 -20 -20 -4 13 -1 -20 11 31 17 20 30 27 2 1 -8 -20 -20 -20 -20 -20 -20 -20 -20 -20 -20 -20 -20 -20 -20 -20 -20 -20 -20 -20 -20 -20 -20 -20 -20
-20 -20 -20 -20 -20 -20 -20 -20 -10 21 2 -20 -20 26 21 26 33 26 -17 16 -20 -20 -20 -20 -20 -20 -20 -20 -20 -20 -20 -20 -20 -20 -20 -20 -20 -20 -20 -20 -20 -20 -20 -20 -20
-20 -20 -20 -20 -20 0 24 4 -7 30 -5 14 18 19 11 21 17 16 22 -14 -20 -20 -20 -20 -20 -20 -20 -20 -20 -20 -20 -20 -20 -20 -20 -20 -20 -20 -20 -20 -20 -20 -20 -20 -20
-20 -20 -20 -20 -20 -20 -20 -16 -10 -20 16 30 13 17 28 13 6 -10 4 -20 -20 -20 -20 -20 -20 -20 -20 -14 -20 -20 -20 -20 -20 -20 -20 -20 -20 -20 -20 -20 -20 -20 -20 -20 -20
-11 -12 -17 -20 -20 -3 -20 -20 -20 -20 15 31 27 31 26 4 -15 -12 1 -6 -20 -20 -20 -20 -20 -20 -20 -20 -20 -20 -20 -20 -20 -20 -20 -20 -20 -20 -20 -20 -20 -20 -20 -20 -20
-19 -14 5 -20 -20 -20 -20 -20 -9 -6 12 28 31 18 10 10 -16 1 -20 -20 -20 -20 -20 -20 -20 -20 -20 -20 -20 -20 -20 -20 -20 -20 -20 -20 -20 -20 -20 -20 -20 -20 -20 -20 -20
-20 -20 -20 -20 -20 -6 -19 11 16 -13 -19 22 28 30 28 9 -4 -11 -12 -20 -20 -20 -20 -20 -20 -20 -20 -20 -20 -20 -20 -20 -20 -20 -20 -20 -20 -20 -20 -20 -20 -20 -20 -20 -20
-20 -14 -19 -13 -20 -20 -10 -20 -18 -6 7 17 23 24 11 15 -18 -7 -20 -12 -20 -20 -20 -20 -20 -20 -20 -20 -20 -20 -20 -20 -20 -20 -20 -20 -20 -20 -20 -20 -20 -20 -20 -20 -20
-20 -20 -20 -20 -20 -20 -20 -20 -16 -11 17 2 18 7 -12 -20 -20 -13 -20 -20 -20 -20 -20 -20 -20 -20 -20 -20 -20 -20 -1 -20 -16 -20 -20 -20 -20 -20 -20 -20 -20 -20 -20 -20 -20
-20 -20 -20 -20 -20 -20 -20 -20 -20 5 -4 12 6 -14 -20 -20 -20 -20 -20 -20 -20 -20 -20 -20 -20 -20 -20 -20 -20 -1 5 -20 -20 -20 -20 -20 -20 -20 -20 -20 -20 -20 -20 -14 -20
-20 -20 -20 -20 -20 -13 -20 -20 11 -15 -20 -20 -6 -16 -13 -9 -20 -20 -20 -20 -20 -20 -20 -18 -20 -20 -20 -20 -14 -19 -9 -8 -20 -20 -18 -20 -20 -20 -20 -20 -20 -20 -20 -20 -20
-20 -20 -20 -20 -20 -20 -20 -20 -20 -20 -20 -20 -20 -20 -20 -20 -20 -20 -20 -20 -20 -20 -20 -20 -18 -20 -20 -20 -20 -5 -20 -3 -16 -20 -17 -20 -20 -20 -20 -20 -20 -19 -14 -15 -20
-20 -20 -20 -20 -20 -20 -14 -20 -20 -20 -20 -20 -20 -20 -20 -20 -20 -20 -20 -20 -20 -20 -20 -20 -20 -20 -20 -18 -20 -14 -11 -20 -20 -20 -15 -20 -20 -20 -20 -20 -20 -20 -20 -20 -20
-20 -20 -20 -20 -20 -20 -20 -20 -20 -20 -20 -20 -20 -20 -20 -20 -20 -20 -20 -20 -20 -20 -20 -20 -20 -20 -20 -20 -20 -20 -20 -20 -20 -20 -20 -20 -20 -20 -20 -20 -20 -20 -20 -20 -20
-20 -20 -20 -20 -20 -20 -20 -20 -20 -20 -20 -20 -20 -20 -20 -20 -20 -20 -20 -20 -20 -20 -20 -20 -20 -20 -20 -20 -20 -20 -20 -20 -20 -20 -20 -20 -20 -20 -20 -20 -20 -20 -20 -20 -20
-20 -20 -20 -20 -20 -20 -20 -20 -20 -20 -20 -20 -20 -20 -20 -20 -20 -20 -20 -20 -20 -20 -20 -20 -20 -20 -20 -20 -20 -20 -20 -20 -20 -20 -20 -20 -20 -20 -20 -20 -20 -20 -20 -20 -20
-20 -20 -20 -20 -20 -20 -20 -20 -20 -20 -20 -20 -20 -20 -20 -20 -20 -20 -20 -20 -20 -20 -20 -20 -20 -20 -20 -20 -20 -20 -20 -20 -20 -20 -20 -20 -20 -20 -20 -20 -20 -20 -20 -20 -20
-20 -20 -20 -20 -20 -20 -20 -20 -20 -20 -20 -20 -20 -20 -20 -20 -20 -20 -20 -20 -20 -20 -20 -20 -20 -20 -20 -20 -20 -20 -20 -20 -20 -20 -20 -20 -20 -20 -20 -20 -20 -20 -20 -20 -20
-20 -20 -20 -20 -20 -20 -20 -20 -20 -20 -20 -20 -20 -20 -20 -20 -20 -20 -20 -20 -20 -20 -20 -20 -20 -20 -20 -20 -20 -20 -20 -20 -20 -20 -20 -20 -20 -20 -20 -20 -20 -20 -20 -20 -20

GFSSW_prec_radar_111.txt.gz
Reflectivity
24 22 3 22 26 18 29 10 7 -20 -20 -20 -20 6 -6 33 13 -20 -20 -20 -20 -20 -20 -20 -20 -20 -20 -20 -20 -20 -20 -20 -20 -20 -20 -20 -20 -20 -20 -20 -20 -20 -20 -20 -20
4 -18 15 18 35 35 28 8 20 -20 -20 -20 -20 -20 -13 19 2 -20 -20 -20 -20 -20 -20 -20 -20 -20 -20 -20 -20 -20 -20 -20 -20 -20 -20 -20 -20 -20 -20 -20 -20 -20 -20 -20 -20
-2 -2 8 8 -3 25 8 20 18 -5 -20 -20 -20 -20 -15 32 22 -19 -20 -20 -20 -20 -20 -20 -20 -20 -20 -20 -20 -20 -20 -20 -20 -20 -20 -20 -20 -20 -20 -20 -20 -20 -20 -20 -20
27 24 -20 -20 -19 -2 -8 21 18 4 -20 -20 -20 -19 -15 10 -19 27 -20 -20 -20 -20 -20 -20 -20 -20 -20 -20 -20 -20 -20 -20 -20 -20 -20 -20 -20 -20 -20 -20 -20 -20 -20 -20 -20
-5 -10 -20 -20 0 -20 -20 -20 -20 -7 -20 -20 -20 8 -20 -16 -19 -0 -20 -20 -20 -20 -20 -20 -20 -20 -20 -20 -20 -20 -20 -20 -20 -20 -20 -20 -20 -20 -20 -20 -20 -20 -20 -20 -20
22 -18 -12 -20 -20 -20 -20 26 27 -12 -20 -20 -20 -20 -20 -20 -9 34 13 -20 -20 -20 -20 -20 -20 -20 -20 -20 -20 -20 -20 -20 -20 -20 -20 -20 -20 -20 -20 -20 -20 -20 -20 -20 -20
-12 21 -19 -19 -20 -20 -20 -8 19 24 -20 -20 -20 -20 9 3 11 25 25 -20 -20 -20 -20 -20 -20 -20 -20 -20 -20 -20 -20 -20 -20 -20 -20 -20 -20 -20 -20 -20 -20 -20 -20 -20 -20
14 -20 -20 -20 -20 -6 -13 10 10 -14 2 -20 -20 -20 7 7 15 23 15 -19 -20 -20 -20 -20 -20 -20 -20 -20 -20 -20 -20 -20 -20 -20 -20 -20 -20 -20 -20 -20 -20 -20 -20 -20 -20
26 4 -20 -20 -20 -20 -13 -20 -20 -20 -20 -20 -20 -20 -2 19 -18 20 34 -20 -20 -20 -20 -20 -20 -20 -20 -20 -20 -20 -20 -20 -20 -20 -20 -20 -20 -20 -20 -20 -20 -20 -20 -20 -20
-20 -20 -20 -20 -20 -20 -20 -20 -20 -20 -20 -20 9 2 22 33 17 -9 -1 2 -8 -20 -20 -20 -20 -20 -20 -20 -20 -20 -20 -20 -20 -20 -20 -20 -20 -20 -20 -20 -20 -20 -20 -20 -20
-20 -20 -20 -20 -20 -20 -20 -20 17 -19 7 19 14 27 28 20 -6 26 -12 -13 16 -20 -20 -20 -20 -20 -20 -20 -20 -20 -20 -20 -20 -20 -20 -20 -20 -20 -20 -20 -20 -20 -20 -20 -20
-20 -20 -20 -20 -20 -20 -20 -20 -7 -15 19 5 14 26 26 31 35 -16 -17 2 -6 -17 -20 -20 -20 -20 -20 -20 -20 -20 -20 -20 -20 -20 -20 -20 -20 -20 -20 -20 -20 -20 -20 -20 -20
-20 -20 -20 -20 -20 -20 -20 -20 -20 -14 20 24 21 24 25 21 21 -0 1 -3 -20 -20 -20 -20 -20 -20 -20 -20 -20 -20 -20 -20 -20 -20 -20 -20 -20 -20 -20 -20 -20 -20 -20 -20 -20
-20 -20 -20 -20 -20 -20 -20 -20 -20 -9 -20 24 18 25 10 -0 25 24 3 -20 -20 -20 -20 -20 -20 -20 -20 -20 -20 -20 -20 -20 -20 -20 -20 -20 -20 -20 -20 -20 -20 -20 -20 -20 -20
-20 -20 -20 -20 -20 -20 -20 -20 -20 -20 -20 20 27 23 10 -19 -16 -17 -13 -7 -18 -19 -20 -20 -20 -20 -20 -20 -20 -20 -20 -20 -20 -20 -20 -20 -20 -20 -20 -20 -20 -20 -20 -20 -20
-20 -20 -20 -20 -20 -20 -20 -20 -20 -20 10 22 21 25 2 -20 -20 -20 -20 -20 -20 -20 -20 -20 -20 -20 -20 -20 -20 -20 -20 -20 -20 -20 -20 -20 -20 -20 -20 -20 -20 -20 -20 -20 -20
-20 -20 -20 -20 -20 -20 -20 -20 -20 -16 20 27 17 7 -2 7 9 9 -12 -20 -20 -20 -20 -20 -20 -20 -20 -20 -20 -20 -20 -20 -20 -20 -20 -20 -20 -20 -20 -20 -20 -20 -20 -20 -20
-20 -20 -20 -20 -20 -20 -20 -20 -19 3 10 -1 -7 15 8 -19 -20 -20 -20 -20 -20 -20 -20 -20 -20 -20 -20 -20 -20 -20 -20 -20 -20 -20 -20 -20 -20 -20 -20 -20 -20 -20 -20 -20 -20
-20 -20 -20 -20 -20 -9 -20 -20 -20 -20 -20 -20 -20 -17 -20 -20 -20 -20 -20 -20 -20 -20 -20 -20 -20 -20 -20 -16 -20 -20 -20 -20 -20 -20 -20 -20 -20 -20 -20 -20 -20 -20 -20 -20 -20
-20 -20 -20 -20 -20 -20 -20 -20 -20 -12 -19 -20 -20 -20 -20 -20 -20 -20 -20 -20 -20 -20 -20 -20 -20 -20 -20 -20 -16 -4 -20 -18 -20 -20 -20 -20 -20 -20 -20 -20 -20 -20 -20 -20 -20
-20 -20 -20 -20 -20 -20 -20 -20 -20 -20 -20 -20 -20 -20 -20 -20 -20 -20 -20 -20 -20 -20 -20 -20 -20 -20 -20 -20 -20 -20 -20 -20 -20 -20 -20 -20 -20 -20 -20 -20 -20 -20 -20 -20 -20
-20 -20 -20 -20 -20 -20 -20 -20 -20 -20 -20 -20 -20 -20 -20 -20 -20 -20 -20 -20 -20 -20 -20 -20 -20 -20 -20 -20 -20 -20 -20 -20 -20 -20 -20 -20 -20 -20 -20 -20 -20 -20 -20 -20 -20
-20 -20 -20 -20 -20 -20 -20 -20 -20 -20 -20 -20 -20 -20 -20 -20 -20 -20 -20 -20 -20 -20 -20 -20 -20 -20 -20 -20 -20 -20 -20 -20 -20 -20 -20 -20 -20 -20 -20 -20 -20 -20 -20 -20 -20
-20 -20 -20 -20 -20 -20 -20 -20 -20 -20 -20 -20 -20 -20 -20 -20 -20 -20 -20 -20 -20 -20 -20 -20 -20 -20 -20 -20 -20 -20 -20 -20 -20 -20 -20 -20 -20 -20 -20 -20 -20 -20 -20 -20 -20
-20 -20 -20 -20 -20 -20 -20 -20 -20 -20 -20 -20 -20 -20 -20 -20 -20 -20 -20 -20 -20 -20 -20 -20 -20 -20 -20 -20 -20 -20 -20 -20 -20 -20 -20 -20 -20 -20 -20 -20 -20 -20 -20 -20 -20
-20 -20 -20 -20 -20 -20 -20 -20 -20 -20 -20 -20 -20 -20 -20 -20 -20 -20 -20 -20 -20 -20 -20 -20 -20 -20 -20 -20 -20 -20 -20 -20 -20 -20 -20 -20 -20 -20 -20 -20 -20 -20 -20 -20 -20
-20 -20 -20 -20 -20 -20 -20 -20 -20 -20 -20 -20 -20 -20 -20 -20 -20 -20 -20 -20 -20 -20 -20 -20 -20 -20 -20 -20 -20 -20 -20 -20 -20 -20 -20 -20 -20 -20 -20 -20 -20 -20 -20 -20 -20

GFSSW_prec_radar_114.txt.gz
Reflectivity
27 10 26 30 -4 40 31 28 -10 -20 -20 -20 -16 21 27 25 -4 -20 -20 -20 -20 -20 -20 -20 -20 -20 -20 -20 -20 -20 -20 -20 -20 -20 -20 -20 -20 -20 -20 -20 -20 -20 -20 -20 -20
3 10 9 26 -12 23 24 24 25 -20 -20 -20 -20 6 17 25 24 -20 -20 -20 -20 -20 -20 -20 -20 -20 -20 -20 -20 -20 -20 -20 -20 -20 -20 -20 -20 -20 -20 -20 -20 -20 -20 -20 -20
-19 -14 3 26 -18 5 27 32 26 -4 -20 -20 -20 -20 13 -10 33 5 -20 -20 -20 -20 -20 -20 -20 -20 -20 -20 -20 -20 -20 -20 -20 -20 -20 -20 -20 -20 -20 -20 -20 -20 -20 -20 -20
-20 1 -19 -16 -15 -13 17 22 28 17 -20 -20 -10 -20 19 -14 34 25 -20 -20 -20 -20 -20 -20 -20 -20 -20 -20 -20 -20 -20 -20 -20 -20 -20 -20 -20 -20 -20 -20 -20 -20 -20 -20 -20
-20 -8 10 -20 -20 -20 -12 5 -9 1 -20 -20 -20 -13 9 -11 21 4 -20 -20 -20 -20 -20 -20 -20 -20 -20 -20 -20 -20 -20 -20 -20 -20 -20 -20 -20 -20 -20 -20 -20 -20 -20 -20 -20
-14 -16 -20 -20 -20 -20 -20 26 8 3 -20 -20 -20 14 9 -20 13 36 -6 -20 -20 -20 -20 -20 -20 -20 -20 -20 -20 -20 -20 -20 -20 -20 -20 -20 -20 -20 -20 -20 -20 -20 -20 -20 -20
-14 24 -10 -20 -9 -18 -17 23 -10 18 -20 -20 -20 2 17 14 11 11 8 -20 -20 -20 -20 -20 -20 -20 -20 -20 -20 -20 -20 -20 -20 -20 -20 -20 -20 -20 -20 -20 -20 -20 -20 -20 -20
-15 -11 -20 -16 -20 0 -20 14 -19 -20 -20 -20 -20 -20 16 -6 16 -17 17 -20 -20 -20 -20 -20 -20 -20 -20 -20 -20 -20 -20 -20 -20 -20 -20 -20 -20 -20 -20 -20 -20 -20 -20 -20 -20
2 6 -6 -20 -20 -20 -20 -5 3 -19 -20 -20 -20 -20 -13 10 13 10 35 -13 -20 -20 -20 -20 -20 -20 -20 -20 -20 -20 -20 -20 -20 -20 -20 -20 -20 -20 -20 -20 -20 -20 -20 -20 -20
-20 -20 -20 -20 -20 -18 -0 -17 -20 -6 -20 -20 -20 -20 18 8 22 22 31 -6 -20 -20 -20 -20 -20 -20 -20 -20 -20 -20 -20 -20 -20 -20 -20 -20 -20 -20 -20 -20 -20 -20 -20 -20 -20
-20 -20 -20 -20 -20 -20 -20 -20 -20 -17 2 18 19 3 4 29 3 25 36 7 -20 -20 -20 -20 -20 -20 -20 -20 -20 -20 -20 -20 -20 -20 -20 -20 -20 -20 -20 -20 -20 -20 -20 -20 -20
-20 -20 -20 -20 -20 -20 -20 -20 -17 -2 26 23 26 14 22 9 6 9 1 10 -20 -20 -20 -20 -20 -20 -20 -20 -20 -20 -20 -20 -20 -20 -20 -20 -20 -20 -20 -20 -20 -20 -20 -20 -20
-20 -20 -20 -20 -20 -20 -20 -20 -20 -20 22 30 18 22 21 1 27 7 5 8 23 -20 -20 -20 -20 -20 -20 -20 -20 -20 -20 -20 -20 -20 -20 -20 -20 -20 -20 -20 -20 -20 -20 -20 -20
-20 -20 -20 -20 -20 -20 -20 -20 -20 -20 -8 28 31 31 30 27 -3 2 -15 -20 7 -16 -20 -20 -20 -20 -20 -20 -20 -20 -20 -20 -20 -20 -20 -20 -20 -20 -20 -20 -20 -20 -20 -20 -20
-20 -20 -20 -20 -20 -20 -20 -20 -20 -20 -6 22 29 20 28 26 20 -19 -20 13 19 -18 -20 -20 -20 -20 -20 -20 -20 -20 -20 -20 -20 -20 -20 -20 -20 -20 -20 -20 -20 -20 -20 -20 -20
-20 -20 -20 -20 -20 -20 -20 -20 -20 -20 -3 15 18 20 14 17 -2 17 -4 -17 -10 -3 -20 -20 -20 -20 -20 -20 -20 -20 -20 -20 -20 -20 -20 -20 -20 -20 -20 -20 -20 -20 -20 -20 -20
-20 -20 -20 -20 -20 -20 -20 -20 -20 -20 -8 8 10 -18 -20 -20 -20 -20 -20 -18 -20 -20 -20 -20 -20 -20 -20 -20 -20 -20 -20 -20 -20 -20 -20 -20 -20 -20 -20 -20 -20 -20 -20 -20 -20
-20 -20 -20 -20 -20 -20 -20 -20 -20 -4 9 -18 3 -19 -20 -20 -20 -20 -20 -20 -20 -20 -20 -20 -20 -20 -20 -20 -20 -20 -20 -20 -20 -20 -20 -20 -20 -20 -20 -20 -20 -20 -20 -20 -20
-20 -20 -20 -20 -17 -20 -20 -20 -20 -20 -20 -20 -20 -20 -20 -12 -20 -20 -20 -20 -20 -20 -20 -20 -20 -20 -20 -20 -20 -20 -20 -20 -20 -20 -20 -20 -20 -20 -20 -20 -20 -20 -20 -20 -20
-20 -20 -20 -20 -20 -20 -20 -20 -20 -20 -20 -20 -20 3 -14 -17 -20 -20 -20 -20 -20 -20 -20 -20 -20 -20 -20 -20 -20 -20 -20 -20 -20 -20 -20 -20 -20 -20 -20 -20 -20 -20 -20 -20 -20
-20 -20 -20 -20 -20 -20 -20 -20 -20 -20 -20 -20 -20 -20 -20 -20 -20 -20 -20 -20 -20 -20 -20 -20 -20 -20 -19 -20 -20 -20 -20 -20 -20 -20 -20 -20 -20 -20 -20 -20 -20 -20 -20 -20 -20
-20 -20 -20 -20 -20 -20 -20 -20 -20 -20 -20 -20 -20 -20 -20 -20 -20 -20 -20 -20 -20 -20 -20 -20 -20 -20 -20 -20 -20 -20 -20 -20 -20 -20 -20 -20 -20 -20 -20 -20 -20 -20 -20 -20 -20
-20 -20 -20 -20 -20 -20 -20 -20 -20 -20 -20 -20 -20 -20 -20 -20 -20 -20 -20 -20 -20 -20 -20 -20 -20 -20 -20 -20 -20 -20 -20 -20 -20 -20 -20 -20 -20 -20 -20 -20 -20 -20 -20 -20 -20
-20 -20 -20 -20 -20 -20 -20 -20 -20 -20 -20 -20 -20 -20 -20 -20 -20 -20 -20 -20 -20 -20 -20 -20 -20 -20 -20 -20 -20 -20 -20 -20 -20 -20 -20 -20 -20 -20 -20 -20 -20 -20 -20 -20 -20
-20 -20 -20 -20 -20 -20 -20 -20 -20 -20 -20 -20 -20 -20 -20 -20 -20 -20 -20 -20 -20 -20 -20 -20 -20 -20 -20 -20 -20 -20 -20 -20 -20 -20 -20 -20 -20 -20 -20 -20 -20 -20 -20 -20 -20
-20 -20 -20 -20 -20 -20 -20 -20 -20 -20 -20 -20 -20 -20 -20 -20 -20 -20 -20 -20 -20 -20 -20 -20 -20 -20 -20 -20 -20 -20 -20 -20 -20 -20 -20 -20 -20 -20 -20 -20 -20 -20 -20 -20 -20
-20 -20 -20 -20 -20 -20 -20 -20 -20 -20 -20 -20 -20 -20 -20 -20 -20 -20 -20 -20 -20 -20 -20 -20 -20 -20 -20 -20 -20 -20 -20 -20 -20 -20 -20 -20 -20 -20 -20 -20 -20 -20 -20 -20 -20

GFSSW_prec_radar_117.txt.gz
Reflectivity
10 7 -20 -20 2 23 29 42 26 20 -20 -20 -1 23 34 30 -15 -20 -20 -20 -20 -20 -20 -20 -20 -20 -20 -20 -20 -20 -20 -20 -20 -20 -20 -20 -20 -20 -20 -20 -20 -20 -20 -20 -20
-20 -20 -11 19 28 -13 34 40 29 22 -19 -20 -18 24 17 35 8 -20 -20 -20 -20 -20 -20 -20 -20 -20 -20 -20 -20 -20 -20 -20 -20 -20 -20 -20 -20 -20 -20 -20 -20 -20 -20 -20 -20
10 -1 20 22 -20 5 24 19 27 33 6 -20 -20 -18 30 39 30 -5 -20 -20 -20 -20 -20 -20 -20 -20 -20 -20 -20 -20 -20 -20 -20 -20 -20 -20 -20 -20 -20 -20 -20 -20 -20 -20 -20
-17 19 9 15 -20 26 25 25 30 27 -5 -20 -20 -18 24 32 40 -3 -20 5 -20 -20 -20 -20 -20 -20 -20 -20 -20 -20 -20 -20 -20 -20 -20 -20 -20 -20 -20 -20 -20 -20 -20 -20 -20
-13 -13 -11 -20 -20 -19 -10 3 17 25 -9 -20 -12 -6 19 30 24 33 -17 -20 -20 -20 -20 -20 -20 -20 -20 -20 -20 -20 -20 -20 -20 -20 -20 -20 -20 -20 -20 -20 -20 -20 -20 -20 -20
-10 -9 -20 -6 -20 -13 23 -20 26 4 -20 -20 -20 -20 -18 18 25 33 -16 -20 -20 -20 -20 -20 -20 -20 -20 -20 -20 -20 -20 -20 -20 -20 -20 -20 -20 -20 -20 -20 -20 -20 -20 -20 -20
-18 -20 -19 6 12 -20 -20 -17 24 -0 -20 -20 -20 -17 -20 4 13 39 -18 -20 -20 -20 -20 -20 -20 -20 -20 -20 -20 -20 -20 -20 -20 -20 -20 -20 -20 -20 -20 -20 -20 -20 -20 -20 -20
10 5 -9 -20 -20 -20 -20 -12 -14 -20 -20 -20 -20 -4 16 -19 18 36 9 -20 -20 -20 -20 -20 -20 -20 -20 -20 -20 -20 -20 -20 -20 -20 -20 -20 -20 -20 -20 -20 -20 -20 -20 -20 -20
-16 -9 -20 -20 -20 -20 21 3 -20 -20 -20 -20 -20 -20 21 16 29 26 19 -20 -20 -20 -20 -20 -20 -20 -20 -20 -20 -20 -20 -20 -20 -20 -20 -20 -20 -20 -20 -20 -20 -20 -20 -20 -20
-20 -20 -20 -20 -20 -20 -13 -20 -20 -20 -20 -20 -20 -20 4 31 24 33 29 -19 -20 -20 -20 -20 -20 -20 -20 -20 -20 -20 -20 -20 -20 -20 -20 -20 -20 -20 -20 -20 -20 -20 -20 -20 -20
-20 -20 -20 -20 -14 -20 -20 -20 -20 -20 8 17 -9 -4 -6 26 24 14 32 -20 -20 -20 -20 -20 -20 -20 -20 -20 -20 -20 -20 -20 -20 -20 -20 -20 -20 -20 -20 -20 -20 -20 -20 -20 -20
-20 -9 -13 -20 -20 -20 -20 -20 -20 -5 19 1 18 6 13 -10 10 21 30 -20 -20 -20 -20 -20 -20 -20 -20 -20 -20 -20 -20 -20 -20 -20 -20 -20 -20 -20 -20 -20 -20 -20 -20 -20 -20
-20 -20 -20 -20 -20 -20 -20 -20 -0 14 24 15 24 6 3 16 26 27 37 -20 -20 -20 -20 -20 -20 -20 -20 -20 -20 -20 -20 -20 -20 -20 -20 -20 -20 -20 -20 -20 -20 -20 -20 -20 -20
-20 -20 -20 -20 -20 -20 -20 -20 16 -19 -20 26 21 26 3 13 14 18 18 -20 -20 -20 -20 -20 -20 -20 -20 -20 -20 -20 -20 -20 -20 -20 -20 -20 -20 -20 -20 -20 -20 -20 -20 -20 -20
-20 -20 -20 -20 -20 -20 -20 -20 -19 -20 -13 12 33 27 21 -3 -7 -20 8 -19 -20 -20 -20 -20 -20 -20 -20 -20 -20 -20 -20 -20 -20 -20 -20 -20 -20 -20 -20 -20 -20 -20 -20 -20 -20
-20 -20 -20 -20 -20 -20 -20 -20 -20 -20 1 24 19 28 13 2 -2 -15 -20 -20 -20 -20 -20 -20 -20 -20 -20 -20 -20 -20 -20 -20 -20 -20 -20 -20 -20 -20 -20 -20 -20 -20 -20 -20 -20
-20 -20 -20 -20 -20 -20 -20 -20 -20 -20 16 7 30 33 4 9 -20 -20 -16 -17 -20 -20 -20 -20 -20 -20 -20 -20 -20 -20 -20 -20 -20 -20 -20 -20 -20 -20 -20 -20 -20 -20 -20 -20 -20
-20 -20 -20 -20 -20 -20 -20 -20 -20 2 7 -18 -19 -20 4 -9 -20 -20 -20 9 6 -19 -20 -20 -20 -20 -20 -20 -20 -20 -20 -20 -20 -20 -20 -20 -20 -20 -20 -20 -20 -20 -20 -20 -20
-20 -20 -20 -20 -20 -20 -20 -20 -20 -20 -20 -13 -20 -20 -20 -1 -7 -16 -20 -20 -20 -20 -20 -20 -20 -20 -20 -20 -20 -20 -20 -20 -20 -20 -20 -20 -20 -20 -20 -20 -20 -20 -20 -20 -20
-20 -20 -20 -20 -20 -20 -20 -20 -20 -20 -20 -20 -20 -20 -20 -20 -20 -20 -20 -20 -20 -20 -20 -20 -20 -20 -20 -20 -20 -20 -20 -20 -20 -20 -20 -20 -20 -20 -20 -20 -20 -20 -20 -20 -20
-20 -20 -20 -20 -20 -20 -20 -20 -20 -20 -20 -20 -20 -20 -20 -20 -20 -20 -20 -20 -20 -20 -20 -20 -20 -20 -20 -20 -20 -20 -20 -20 -20 -20 -20 -20 -20 -20 -20 -20 -20 -20 -20 -20 -20
-20 -20 -20 -20 -20 -20 -20 -20 -20 -20 -20 -20 -20 -20 -20 -20 -20 -20 -20 -20 -20 -20 -20 -20 -20 -20 -20 -20 -20 -20 -20 -20 -20 -20 -20 -20 -20 -20 -20 -20 -20 -20 -20 -20 -20
-20 -20 -20 -20 -20 -20 -20 -20 -20 -20 -20 -20 -20 -20 -20 -20 -20 -20 -20 -20 -20 -20 -20 -20 -20 -20 -20 -20 -20 -20 -20 -20 -20 -20 -20 -20 -20 -20 -20 -20 -20 -20 -20 -20 -20
-20 -20 -20 -20 -20 -20 -20 -20 -20 -20 -20 -20 -20 -20 -20 -20 -20 -20 -20 -20 -20 -20 -20 -20 -20 -20 -20 -20 -20 -20 -20 -20 -20 -20 -20 -20 -20 -20 -20 -20 -20 -20 -20 -20 -20
-20 -20 -20 -20 -20 -20 -20 -20 -20 -20 -20 -20 -20 -20 -20 -20 -20 -20 -20 -20 -20 -20 -20 -20 -20 -20 -20 -20 -20 -20 -20 -20 -20 -20 -20 -20 -20 -20 -20 -20 -20 -20 -20 -20 -20
-20 -20 -20 -20 -20 -20 -20 -20 -20 -20 -20 -20 -20 -20 -20 -20 -20 -20 -20 -20 -20 -20 -20 -20 -20 -20 -20 -20 -20 -20 -20 -20 -20 -20 -20 -20 -20 -20 -20 -20 -20 -20 -20 -20 -20
-20 -20 -20 -20 -20 -20 -20 -20 -20 -20 -20 -20 -20 -20 -20 -20 -20 -20 -20 -20 -20 -20 -20 -20 -20 -20 -20 -20 -20 -20 -20 -20 -20 -20 -20 -20 -20 -20 -20 -20 -20 -20 -20 -20 -20